<?xml version="1.0" encoding="UTF-8" standalone="no" ?>
<gpx xmlns="http://www.topografix.com/GPX/1/1" xmlns:xsi="http://www.w3.org/2001/XMLSchema-instance" xsi:schemaLocation="http://www.topografix.com/GPX/1/1 http://www.topografix.com/GPX/1/1/gpx.xsd" version="1.1" creator="VisuGPX - https://www.visugpx.com">
  <metadata>
    <name>ST_RAD_19km  -700</name>
    <desc><![CDATA[19km  -700]]></desc>
  </metadata>
  <trk>
    <name><![CDATA[st RA 18km +]]></name>
    <trkseg>
      <trkpt lat="44.33569" lon="2.62922">
        <ele>649.9885254</ele>
        <time>2014-06-15T07:00:21Z</time>
      </trkpt>
      <trkpt lat="44.33569" lon="2.62923">
        <ele>649.0270996</ele>
        <time>2014-06-15T07:00:22Z</time>
      </trkpt>
      <trkpt lat="44.33569" lon="2.62935">
        <ele>648.065918</ele>
        <time>2014-06-15T07:00:26Z</time>
      </trkpt>
      <trkpt lat="44.33568" lon="2.62956">
        <ele>647.5852051</ele>
        <time>2014-06-15T07:00:32Z</time>
      </trkpt>
      <trkpt lat="44.33569" lon="2.62969">
        <ele>647.5852051</ele>
        <time>2014-06-15T07:00:36Z</time>
      </trkpt>
      <trkpt lat="44.33572" lon="2.62992">
        <ele>646.1433105</ele>
        <time>2014-06-15T07:00:43Z</time>
      </trkpt>
      <trkpt lat="44.33577" lon="2.63005">
        <ele>644.7011719</ele>
        <time>2014-06-15T07:00:47Z</time>
      </trkpt>
      <trkpt lat="44.33577" lon="2.63024">
        <ele>642.2980957</ele>
        <time>2014-06-15T07:00:53Z</time>
      </trkpt>
      <trkpt lat="44.33577" lon="2.63027">
        <ele>641.8173828</ele>
        <time>2014-06-15T07:00:54Z</time>
      </trkpt>
      <trkpt lat="44.3357" lon="2.63034">
        <ele>639.4140625</ele>
        <time>2014-06-15T07:00:59Z</time>
      </trkpt>
      <trkpt lat="44.33568" lon="2.63034">
        <ele>637.972168</ele>
        <time>2014-06-15T07:01:04Z</time>
      </trkpt>
      <trkpt lat="44.33568" lon="2.63034">
        <ele>637.4914551</ele>
        <time>2014-06-15T07:01:09Z</time>
      </trkpt>
      <trkpt lat="44.33565" lon="2.63045">
        <ele>637.972168</ele>
        <time>2014-06-15T07:01:13Z</time>
      </trkpt>
      <trkpt lat="44.33565" lon="2.63067">
        <ele>637.972168</ele>
        <time>2014-06-15T07:01:19Z</time>
      </trkpt>
      <trkpt lat="44.33565" lon="2.6307">
        <ele>637.972168</ele>
        <time>2014-06-15T07:01:20Z</time>
      </trkpt>
      <trkpt lat="44.33563" lon="2.63087">
        <ele>638.4528809</ele>
        <time>2014-06-15T07:01:25Z</time>
      </trkpt>
      <trkpt lat="44.33561" lon="2.63094">
        <ele>638.4528809</ele>
        <time>2014-06-15T07:01:27Z</time>
      </trkpt>
      <trkpt lat="44.33555" lon="2.63116">
        <ele>636.0495605</ele>
        <time>2014-06-15T07:01:34Z</time>
      </trkpt>
      <trkpt lat="44.33554" lon="2.63119">
        <ele>636.5302734</ele>
        <time>2014-06-15T07:01:35Z</time>
      </trkpt>
      <trkpt lat="44.33545" lon="2.63136">
        <ele>636.5302734</ele>
        <time>2014-06-15T07:01:41Z</time>
      </trkpt>
      <trkpt lat="44.33538" lon="2.63153">
        <ele>639.4140625</ele>
        <time>2014-06-15T07:01:48Z</time>
      </trkpt>
      <trkpt lat="44.33533" lon="2.6317">
        <ele>640.855957</ele>
        <time>2014-06-15T07:01:54Z</time>
      </trkpt>
      <trkpt lat="44.33529" lon="2.63187">
        <ele>642.2980957</ele>
        <time>2014-06-15T07:01:59Z</time>
      </trkpt>
      <trkpt lat="44.33526" lon="2.63201">
        <ele>643.2592773</ele>
        <time>2014-06-15T07:02:03Z</time>
      </trkpt>
      <trkpt lat="44.3352" lon="2.63224">
        <ele>643.2592773</ele>
        <time>2014-06-15T07:02:09Z</time>
      </trkpt>
      <trkpt lat="44.33516" lon="2.6324">
        <ele>642.2980957</ele>
        <time>2014-06-15T07:02:14Z</time>
      </trkpt>
      <trkpt lat="44.33509" lon="2.63263">
        <ele>642.2980957</ele>
        <time>2014-06-15T07:02:21Z</time>
      </trkpt>
      <trkpt lat="44.33503" lon="2.63284">
        <ele>642.2980957</ele>
        <time>2014-06-15T07:02:27Z</time>
      </trkpt>
      <trkpt lat="44.33498" lon="2.63304">
        <ele>643.2592773</ele>
        <time>2014-06-15T07:02:33Z</time>
      </trkpt>
      <trkpt lat="44.33494" lon="2.63324">
        <ele>643.2592773</ele>
        <time>2014-06-15T07:02:39Z</time>
      </trkpt>
      <trkpt lat="44.33491" lon="2.63334">
        <ele>642.7788086</ele>
        <time>2014-06-15T07:02:42Z</time>
      </trkpt>
      <trkpt lat="44.33487" lon="2.63354">
        <ele>641.8173828</ele>
        <time>2014-06-15T07:02:48Z</time>
      </trkpt>
      <trkpt lat="44.33486" lon="2.63368">
        <ele>641.3366699</ele>
        <time>2014-06-15T07:02:52Z</time>
      </trkpt>
      <trkpt lat="44.33485" lon="2.63385">
        <ele>642.2980957</ele>
        <time>2014-06-15T07:02:57Z</time>
      </trkpt>
      <trkpt lat="44.33484" lon="2.63399">
        <ele>643.2592773</ele>
        <time>2014-06-15T07:03:01Z</time>
      </trkpt>
      <trkpt lat="44.33481" lon="2.63417">
        <ele>643.2592773</ele>
        <time>2014-06-15T07:03:07Z</time>
      </trkpt>
      <trkpt lat="44.33481" lon="2.63423">
        <ele>642.2980957</ele>
        <time>2014-06-15T07:03:09Z</time>
      </trkpt>
      <trkpt lat="44.3348" lon="2.63435">
        <ele>638.9335938</ele>
        <time>2014-06-15T07:03:13Z</time>
      </trkpt>
      <trkpt lat="44.33474" lon="2.63451">
        <ele>635.5686035</ele>
        <time>2014-06-15T07:03:18Z</time>
      </trkpt>
      <trkpt lat="44.33467" lon="2.63475">
        <ele>635.0881348</ele>
        <time>2014-06-15T07:03:25Z</time>
      </trkpt>
      <trkpt lat="44.33461" lon="2.63494">
        <ele>635.0881348</ele>
        <time>2014-06-15T07:03:31Z</time>
      </trkpt>
      <trkpt lat="44.33456" lon="2.63509">
        <ele>635.5686035</ele>
        <time>2014-06-15T07:03:36Z</time>
      </trkpt>
      <trkpt lat="44.33452" lon="2.63526">
        <ele>634.126709</ele>
        <time>2014-06-15T07:03:41Z</time>
      </trkpt>
      <trkpt lat="44.33452" lon="2.63541">
        <ele>635.0881348</ele>
        <time>2014-06-15T07:03:45Z</time>
      </trkpt>
      <trkpt lat="44.33451" lon="2.63563">
        <ele>636.5302734</ele>
        <time>2014-06-15T07:03:51Z</time>
      </trkpt>
      <trkpt lat="44.33444" lon="2.63582">
        <ele>637.972168</ele>
        <time>2014-06-15T07:03:57Z</time>
      </trkpt>
      <trkpt lat="44.33436" lon="2.63592">
        <ele>636.5302734</ele>
        <time>2014-06-15T07:04:02Z</time>
      </trkpt>
      <trkpt lat="44.33426" lon="2.63602">
        <ele>635.0881348</ele>
        <time>2014-06-15T07:04:08Z</time>
      </trkpt>
      <trkpt lat="44.33416" lon="2.63613">
        <ele>634.126709</ele>
        <time>2014-06-15T07:04:14Z</time>
      </trkpt>
      <trkpt lat="44.33407" lon="2.63621">
        <ele>634.126709</ele>
        <time>2014-06-15T07:04:20Z</time>
      </trkpt>
      <trkpt lat="44.33399" lon="2.63632">
        <ele>635.0881348</ele>
        <time>2014-06-15T07:04:26Z</time>
      </trkpt>
      <trkpt lat="44.33393" lon="2.63641">
        <ele>636.0495605</ele>
        <time>2014-06-15T07:04:31Z</time>
      </trkpt>
      <trkpt lat="44.33387" lon="2.63652">
        <ele>638.4528809</ele>
        <time>2014-06-15T07:04:36Z</time>
      </trkpt>
      <trkpt lat="44.33379" lon="2.63667">
        <ele>639.8947754</ele>
        <time>2014-06-15T07:04:43Z</time>
      </trkpt>
      <trkpt lat="44.33371" lon="2.63679">
        <ele>640.855957</ele>
        <time>2014-06-15T07:04:49Z</time>
      </trkpt>
      <trkpt lat="44.33364" lon="2.63692">
        <ele>641.8173828</ele>
        <time>2014-06-15T07:04:55Z</time>
      </trkpt>
      <trkpt lat="44.33359" lon="2.63705">
        <ele>643.2592773</ele>
        <time>2014-06-15T07:05:01Z</time>
      </trkpt>
      <trkpt lat="44.33355" lon="2.63722">
        <ele>645.1818848</ele>
        <time>2014-06-15T07:05:08Z</time>
      </trkpt>
      <trkpt lat="44.33352" lon="2.63736">
        <ele>646.6240234</ele>
        <time>2014-06-15T07:05:13Z</time>
      </trkpt>
      <trkpt lat="44.33347" lon="2.63753">
        <ele>649.0270996</ele>
        <time>2014-06-15T07:05:20Z</time>
      </trkpt>
      <trkpt lat="44.33341" lon="2.63773">
        <ele>650.949707</ele>
        <time>2014-06-15T07:05:28Z</time>
      </trkpt>
      <trkpt lat="44.33337" lon="2.63791">
        <ele>652.3918457</ele>
        <time>2014-06-15T07:05:35Z</time>
      </trkpt>
      <trkpt lat="44.33332" lon="2.63808">
        <ele>653.3532715</ele>
        <time>2014-06-15T07:05:42Z</time>
      </trkpt>
      <trkpt lat="44.33328" lon="2.6382">
        <ele>653.8339844</ele>
        <time>2014-06-15T07:05:47Z</time>
      </trkpt>
      <trkpt lat="44.33324" lon="2.63839">
        <ele>654.3146973</ele>
        <time>2014-06-15T07:05:55Z</time>
      </trkpt>
      <trkpt lat="44.33321" lon="2.63856">
        <ele>656.7177734</ele>
        <time>2014-06-15T07:06:01Z</time>
      </trkpt>
      <trkpt lat="44.33317" lon="2.63869">
        <ele>657.1984863</ele>
        <time>2014-06-15T07:06:06Z</time>
      </trkpt>
      <trkpt lat="44.33313" lon="2.63884">
        <ele>658.6403809</ele>
        <time>2014-06-15T07:06:12Z</time>
      </trkpt>
      <trkpt lat="44.33309" lon="2.63901">
        <ele>659.6018066</ele>
        <time>2014-06-15T07:06:18Z</time>
      </trkpt>
      <trkpt lat="44.33304" lon="2.63922">
        <ele>661.0437012</ele>
        <time>2014-06-15T07:06:25Z</time>
      </trkpt>
      <trkpt lat="44.333" lon="2.63944">
        <ele>662.4855957</ele>
        <time>2014-06-15T07:06:32Z</time>
      </trkpt>
      <trkpt lat="44.33298" lon="2.63963">
        <ele>662.9663086</ele>
        <time>2014-06-15T07:06:38Z</time>
      </trkpt>
      <trkpt lat="44.33296" lon="2.63983">
        <ele>662.9663086</ele>
        <time>2014-06-15T07:06:45Z</time>
      </trkpt>
      <trkpt lat="44.33291" lon="2.64001">
        <ele>663.9274902</ele>
        <time>2014-06-15T07:06:51Z</time>
      </trkpt>
      <trkpt lat="44.33287" lon="2.64016">
        <ele>663.9274902</ele>
        <time>2014-06-15T07:06:56Z</time>
      </trkpt>
      <trkpt lat="44.33282" lon="2.64033">
        <ele>664.888916</ele>
        <time>2014-06-15T07:07:02Z</time>
      </trkpt>
      <trkpt lat="44.33279" lon="2.64053">
        <ele>664.888916</ele>
        <time>2014-06-15T07:07:08Z</time>
      </trkpt>
      <trkpt lat="44.33279" lon="2.6407">
        <ele>666.3308105</ele>
        <time>2014-06-15T07:07:13Z</time>
      </trkpt>
      <trkpt lat="44.33276" lon="2.64089">
        <ele>665.8503418</ele>
        <time>2014-06-15T07:07:18Z</time>
      </trkpt>
      <trkpt lat="44.33273" lon="2.64106">
        <ele>666.3308105</ele>
        <time>2014-06-15T07:07:23Z</time>
      </trkpt>
      <trkpt lat="44.3327" lon="2.64121">
        <ele>666.3308105</ele>
        <time>2014-06-15T07:07:28Z</time>
      </trkpt>
      <trkpt lat="44.33266" lon="2.64142">
        <ele>665.8503418</ele>
        <time>2014-06-15T07:07:36Z</time>
      </trkpt>
      <trkpt lat="44.33262" lon="2.6416">
        <ele>666.3308105</ele>
        <time>2014-06-15T07:07:42Z</time>
      </trkpt>
      <trkpt lat="44.33259" lon="2.64175">
        <ele>666.3308105</ele>
        <time>2014-06-15T07:07:47Z</time>
      </trkpt>
      <trkpt lat="44.33255" lon="2.6419">
        <ele>666.8115234</ele>
        <time>2014-06-15T07:07:52Z</time>
      </trkpt>
      <trkpt lat="44.3325" lon="2.64205">
        <ele>666.8115234</ele>
        <time>2014-06-15T07:07:57Z</time>
      </trkpt>
      <trkpt lat="44.33245" lon="2.64221">
        <ele>667.7727051</ele>
        <time>2014-06-15T07:08:03Z</time>
      </trkpt>
      <trkpt lat="44.3324" lon="2.64235">
        <ele>668.734375</ele>
        <time>2014-06-15T07:08:08Z</time>
      </trkpt>
      <trkpt lat="44.33235" lon="2.64249">
        <ele>670.1762695</ele>
        <time>2014-06-15T07:08:13Z</time>
      </trkpt>
      <trkpt lat="44.33229" lon="2.64262">
        <ele>671.1376953</ele>
        <time>2014-06-15T07:08:18Z</time>
      </trkpt>
      <trkpt lat="44.33223" lon="2.64277">
        <ele>671.6181641</ele>
        <time>2014-06-15T07:08:23Z</time>
      </trkpt>
      <trkpt lat="44.33217" lon="2.64291">
        <ele>670.6569824</ele>
        <time>2014-06-15T07:08:28Z</time>
      </trkpt>
      <trkpt lat="44.33208" lon="2.6431">
        <ele>671.6181641</ele>
        <time>2014-06-15T07:08:35Z</time>
      </trkpt>
      <trkpt lat="44.33202" lon="2.64325">
        <ele>672.098877</ele>
        <time>2014-06-15T07:08:40Z</time>
      </trkpt>
      <trkpt lat="44.33193" lon="2.64348">
        <ele>672.098877</ele>
        <time>2014-06-15T07:08:47Z</time>
      </trkpt>
      <trkpt lat="44.33186" lon="2.64367">
        <ele>672.098877</ele>
        <time>2014-06-15T07:08:53Z</time>
      </trkpt>
      <trkpt lat="44.33179" lon="2.64389">
        <ele>672.5795898</ele>
        <time>2014-06-15T07:08:59Z</time>
      </trkpt>
      <trkpt lat="44.33173" lon="2.64405">
        <ele>673.0603027</ele>
        <time>2014-06-15T07:09:04Z</time>
      </trkpt>
      <trkpt lat="44.33169" lon="2.64425">
        <ele>674.0214844</ele>
        <time>2014-06-15T07:09:10Z</time>
      </trkpt>
      <trkpt lat="44.33166" lon="2.64441">
        <ele>674.5021973</ele>
        <time>2014-06-15T07:09:15Z</time>
      </trkpt>
      <trkpt lat="44.33162" lon="2.64454">
        <ele>674.5021973</ele>
        <time>2014-06-15T07:09:19Z</time>
      </trkpt>
      <trkpt lat="44.33157" lon="2.64473">
        <ele>674.0214844</ele>
        <time>2014-06-15T07:09:25Z</time>
      </trkpt>
      <trkpt lat="44.33149" lon="2.6449">
        <ele>674.9829102</ele>
        <time>2014-06-15T07:09:31Z</time>
      </trkpt>
      <trkpt lat="44.33143" lon="2.64504">
        <ele>674.5021973</ele>
        <time>2014-06-15T07:09:36Z</time>
      </trkpt>
      <trkpt lat="44.33138" lon="2.64519">
        <ele>675.4633789</ele>
        <time>2014-06-15T07:09:41Z</time>
      </trkpt>
      <trkpt lat="44.33133" lon="2.64531">
        <ele>675.9440918</ele>
        <time>2014-06-15T07:09:46Z</time>
      </trkpt>
      <trkpt lat="44.33125" lon="2.64554">
        <ele>676.4248047</ele>
        <time>2014-06-15T07:09:53Z</time>
      </trkpt>
      <trkpt lat="44.33117" lon="2.64572">
        <ele>676.9055176</ele>
        <time>2014-06-15T07:09:59Z</time>
      </trkpt>
      <trkpt lat="44.33109" lon="2.64595">
        <ele>677.8666992</ele>
        <time>2014-06-15T07:10:06Z</time>
      </trkpt>
      <trkpt lat="44.33108" lon="2.6461">
        <ele>677.3862305</ele>
        <time>2014-06-15T07:10:10Z</time>
      </trkpt>
      <trkpt lat="44.33107" lon="2.64624">
        <ele>676.4248047</ele>
        <time>2014-06-15T07:10:14Z</time>
      </trkpt>
      <trkpt lat="44.33103" lon="2.64644">
        <ele>674.9829102</ele>
        <time>2014-06-15T07:10:20Z</time>
      </trkpt>
      <trkpt lat="44.33099" lon="2.64668">
        <ele>674.9829102</ele>
        <time>2014-06-15T07:10:27Z</time>
      </trkpt>
      <trkpt lat="44.33096" lon="2.6469">
        <ele>674.9829102</ele>
        <time>2014-06-15T07:10:34Z</time>
      </trkpt>
      <trkpt lat="44.33092" lon="2.64708">
        <ele>674.9829102</ele>
        <time>2014-06-15T07:10:39Z</time>
      </trkpt>
      <trkpt lat="44.33087" lon="2.64727">
        <ele>674.0214844</ele>
        <time>2014-06-15T07:10:45Z</time>
      </trkpt>
      <trkpt lat="44.33082" lon="2.64745">
        <ele>672.5795898</ele>
        <time>2014-06-15T07:10:50Z</time>
      </trkpt>
      <trkpt lat="44.33078" lon="2.6476">
        <ele>671.6181641</ele>
        <time>2014-06-15T07:10:54Z</time>
      </trkpt>
      <trkpt lat="44.33075" lon="2.64781">
        <ele>671.1376953</ele>
        <time>2014-06-15T07:11:00Z</time>
      </trkpt>
      <trkpt lat="44.33075" lon="2.64802">
        <ele>669.2150879</ele>
        <time>2014-06-15T07:11:06Z</time>
      </trkpt>
      <trkpt lat="44.33072" lon="2.64819">
        <ele>669.2150879</ele>
        <time>2014-06-15T07:11:11Z</time>
      </trkpt>
      <trkpt lat="44.33071" lon="2.64826">
        <ele>668.2536621</ele>
        <time>2014-06-15T07:11:16Z</time>
      </trkpt>
      <trkpt lat="44.3307" lon="2.64825">
        <ele>666.3308105</ele>
        <time>2014-06-15T07:11:28Z</time>
      </trkpt>
      <trkpt lat="44.3307" lon="2.64826">
        <ele>665.8503418</ele>
        <time>2014-06-15T07:11:33Z</time>
      </trkpt>
      <trkpt lat="44.33069" lon="2.64835">
        <ele>664.888916</ele>
        <time>2014-06-15T07:11:37Z</time>
      </trkpt>
      <trkpt lat="44.33065" lon="2.64851">
        <ele>662.005127</ele>
        <time>2014-06-15T07:11:42Z</time>
      </trkpt>
      <trkpt lat="44.33061" lon="2.64866">
        <ele>659.6018066</ele>
        <time>2014-06-15T07:11:47Z</time>
      </trkpt>
      <trkpt lat="44.33058" lon="2.64878">
        <ele>657.6791992</ele>
        <time>2014-06-15T07:11:50Z</time>
      </trkpt>
      <trkpt lat="44.33055" lon="2.64896">
        <ele>654.3146973</ele>
        <time>2014-06-15T07:11:55Z</time>
      </trkpt>
      <trkpt lat="44.33055" lon="2.64912">
        <ele>651.4304199</ele>
        <time>2014-06-15T07:11:59Z</time>
      </trkpt>
      <trkpt lat="44.33053" lon="2.64934">
        <ele>649.9885254</ele>
        <time>2014-06-15T07:12:05Z</time>
      </trkpt>
      <trkpt lat="44.3305" lon="2.64954">
        <ele>649.5078125</ele>
        <time>2014-06-15T07:12:10Z</time>
      </trkpt>
      <trkpt lat="44.33049" lon="2.64968">
        <ele>649.0270996</ele>
        <time>2014-06-15T07:12:14Z</time>
      </trkpt>
      <trkpt lat="44.33048" lon="2.64988">
        <ele>649.0270996</ele>
        <time>2014-06-15T07:12:20Z</time>
      </trkpt>
      <trkpt lat="44.33048" lon="2.64994">
        <ele>649.0270996</ele>
        <time>2014-06-15T07:12:22Z</time>
      </trkpt>
      <trkpt lat="44.33044" lon="2.65015">
        <ele>649.0270996</ele>
        <time>2014-06-15T07:12:28Z</time>
      </trkpt>
      <trkpt lat="44.33042" lon="2.65024">
        <ele>649.0270996</ele>
        <time>2014-06-15T07:12:31Z</time>
      </trkpt>
      <trkpt lat="44.33037" lon="2.65046">
        <ele>647.1044922</ele>
        <time>2014-06-15T07:12:38Z</time>
      </trkpt>
      <trkpt lat="44.33031" lon="2.6506">
        <ele>647.5852051</ele>
        <time>2014-06-15T07:12:43Z</time>
      </trkpt>
      <trkpt lat="44.33024" lon="2.65069">
        <ele>647.1044922</ele>
        <time>2014-06-15T07:12:48Z</time>
      </trkpt>
      <trkpt lat="44.33016" lon="2.65085">
        <ele>647.5852051</ele>
        <time>2014-06-15T07:12:54Z</time>
      </trkpt>
      <trkpt lat="44.33014" lon="2.65086">
        <ele>647.5852051</ele>
        <time>2014-06-15T07:12:55Z</time>
      </trkpt>
      <trkpt lat="44.33002" lon="2.65091">
        <ele>649.0270996</ele>
        <time>2014-06-15T07:13:02Z</time>
      </trkpt>
      <trkpt lat="44.32996" lon="2.65098">
        <ele>648.065918</ele>
        <time>2014-06-15T07:13:06Z</time>
      </trkpt>
      <trkpt lat="44.32987" lon="2.65107">
        <ele>648.5463867</ele>
        <time>2014-06-15T07:13:11Z</time>
      </trkpt>
      <trkpt lat="44.32979" lon="2.6512">
        <ele>649.5078125</ele>
        <time>2014-06-15T07:13:17Z</time>
      </trkpt>
      <trkpt lat="44.3297" lon="2.6513">
        <ele>649.5078125</ele>
        <time>2014-06-15T07:13:23Z</time>
      </trkpt>
      <trkpt lat="44.32962" lon="2.65143">
        <ele>650.949707</ele>
        <time>2014-06-15T07:13:28Z</time>
      </trkpt>
      <trkpt lat="44.32955" lon="2.65154">
        <ele>652.3918457</ele>
        <time>2014-06-15T07:13:33Z</time>
      </trkpt>
      <trkpt lat="44.32945" lon="2.65158">
        <ele>652.3918457</ele>
        <time>2014-06-15T07:13:38Z</time>
      </trkpt>
      <trkpt lat="44.32937" lon="2.6516">
        <ele>651.4304199</ele>
        <time>2014-06-15T07:13:43Z</time>
      </trkpt>
      <trkpt lat="44.32928" lon="2.65178">
        <ele>655.2758789</ele>
        <time>2014-06-15T07:13:49Z</time>
      </trkpt>
      <trkpt lat="44.32921" lon="2.65189">
        <ele>654.795166</ele>
        <time>2014-06-15T07:13:54Z</time>
      </trkpt>
      <trkpt lat="44.32914" lon="2.65206">
        <ele>655.2758789</ele>
        <time>2014-06-15T07:14:01Z</time>
      </trkpt>
      <trkpt lat="44.32907" lon="2.65217">
        <ele>656.7177734</ele>
        <time>2014-06-15T07:14:06Z</time>
      </trkpt>
      <trkpt lat="44.329" lon="2.65234">
        <ele>658.6403809</ele>
        <time>2014-06-15T07:14:13Z</time>
      </trkpt>
      <trkpt lat="44.32894" lon="2.65254">
        <ele>660.5629883</ele>
        <time>2014-06-15T07:14:20Z</time>
      </trkpt>
      <trkpt lat="44.32891" lon="2.65269">
        <ele>662.4855957</ele>
        <time>2014-06-15T07:14:25Z</time>
      </trkpt>
      <trkpt lat="44.3289" lon="2.65285">
        <ele>665.8503418</ele>
        <time>2014-06-15T07:14:30Z</time>
      </trkpt>
      <trkpt lat="44.32889" lon="2.65303">
        <ele>667.2922363</ele>
        <time>2014-06-15T07:14:36Z</time>
      </trkpt>
      <trkpt lat="44.32887" lon="2.65319">
        <ele>668.2536621</ele>
        <time>2014-06-15T07:14:41Z</time>
      </trkpt>
      <trkpt lat="44.32885" lon="2.65337">
        <ele>669.2150879</ele>
        <time>2014-06-15T07:14:47Z</time>
      </trkpt>
      <trkpt lat="44.32884" lon="2.65345">
        <ele>669.2150879</ele>
        <time>2014-06-15T07:14:50Z</time>
      </trkpt>
      <trkpt lat="44.32883" lon="2.65363">
        <ele>668.734375</ele>
        <time>2014-06-15T07:14:56Z</time>
      </trkpt>
      <trkpt lat="44.32882" lon="2.65383">
        <ele>668.734375</ele>
        <time>2014-06-15T07:15:02Z</time>
      </trkpt>
      <trkpt lat="44.32882" lon="2.65386">
        <ele>668.734375</ele>
        <time>2014-06-15T07:15:03Z</time>
      </trkpt>
      <trkpt lat="44.32883" lon="2.65405">
        <ele>669.2150879</ele>
        <time>2014-06-15T07:15:09Z</time>
      </trkpt>
      <trkpt lat="44.32886" lon="2.65425">
        <ele>670.6569824</ele>
        <time>2014-06-15T07:15:15Z</time>
      </trkpt>
      <trkpt lat="44.32889" lon="2.6544">
        <ele>670.6569824</ele>
        <time>2014-06-15T07:15:20Z</time>
      </trkpt>
      <trkpt lat="44.32894" lon="2.6545">
        <ele>670.6569824</ele>
        <time>2014-06-15T07:15:24Z</time>
      </trkpt>
      <trkpt lat="44.32903" lon="2.65457">
        <ele>670.6569824</ele>
        <time>2014-06-15T07:15:29Z</time>
      </trkpt>
      <trkpt lat="44.32909" lon="2.65463">
        <ele>671.1376953</ele>
        <time>2014-06-15T07:15:32Z</time>
      </trkpt>
      <trkpt lat="44.32918" lon="2.65477">
        <ele>671.1376953</ele>
        <time>2014-06-15T07:15:38Z</time>
      </trkpt>
      <trkpt lat="44.32921" lon="2.65485">
        <ele>671.6181641</ele>
        <time>2014-06-15T07:15:41Z</time>
      </trkpt>
      <trkpt lat="44.32926" lon="2.65503">
        <ele>672.098877</ele>
        <time>2014-06-15T07:15:47Z</time>
      </trkpt>
      <trkpt lat="44.32924" lon="2.65511">
        <ele>672.5795898</ele>
        <time>2014-06-15T07:15:50Z</time>
      </trkpt>
      <trkpt lat="44.32923" lon="2.65515">
        <ele>672.5795898</ele>
        <time>2014-06-15T07:15:51Z</time>
      </trkpt>
      <trkpt lat="44.32922" lon="2.65531">
        <ele>673.0603027</ele>
        <time>2014-06-15T07:15:57Z</time>
      </trkpt>
      <trkpt lat="44.32921" lon="2.65534">
        <ele>673.0603027</ele>
        <time>2014-06-15T07:15:58Z</time>
      </trkpt>
      <trkpt lat="44.32917" lon="2.65552">
        <ele>673.5410156</ele>
        <time>2014-06-15T07:16:05Z</time>
      </trkpt>
      <trkpt lat="44.32913" lon="2.65568">
        <ele>673.5410156</ele>
        <time>2014-06-15T07:16:11Z</time>
      </trkpt>
      <trkpt lat="44.32908" lon="2.65587">
        <ele>674.9829102</ele>
        <time>2014-06-15T07:16:18Z</time>
      </trkpt>
      <trkpt lat="44.32903" lon="2.65598">
        <ele>677.3862305</ele>
        <time>2014-06-15T07:16:22Z</time>
      </trkpt>
      <trkpt lat="44.32893" lon="2.65612">
        <ele>678.3474121</ele>
        <time>2014-06-15T07:16:28Z</time>
      </trkpt>
      <trkpt lat="44.3289" lon="2.65623">
        <ele>679.3085938</ele>
        <time>2014-06-15T07:16:32Z</time>
      </trkpt>
      <trkpt lat="44.32891" lon="2.65632">
        <ele>681.2314453</ele>
        <time>2014-06-15T07:16:35Z</time>
      </trkpt>
      <trkpt lat="44.32898" lon="2.6565">
        <ele>682.192627</ele>
        <time>2014-06-15T07:16:42Z</time>
      </trkpt>
      <trkpt lat="44.32901" lon="2.65674">
        <ele>684.5961914</ele>
        <time>2014-06-15T07:16:51Z</time>
      </trkpt>
      <trkpt lat="44.32904" lon="2.65685">
        <ele>686.5187988</ele>
        <time>2014-06-15T07:16:55Z</time>
      </trkpt>
      <trkpt lat="44.32908" lon="2.65695">
        <ele>687.4799805</ele>
        <time>2014-06-15T07:16:59Z</time>
      </trkpt>
      <trkpt lat="44.32916" lon="2.6571">
        <ele>686.9992676</ele>
        <time>2014-06-15T07:17:06Z</time>
      </trkpt>
      <trkpt lat="44.32926" lon="2.6572">
        <ele>689.4025879</ele>
        <time>2014-06-15T07:17:12Z</time>
      </trkpt>
      <trkpt lat="44.32932" lon="2.65725">
        <ele>688.9221191</ele>
        <time>2014-06-15T07:17:15Z</time>
      </trkpt>
      <trkpt lat="44.32936" lon="2.65729">
        <ele>689.8833008</ele>
        <time>2014-06-15T07:17:19Z</time>
      </trkpt>
      <trkpt lat="44.32945" lon="2.65734">
        <ele>690.3640137</ele>
        <time>2014-06-15T07:17:25Z</time>
      </trkpt>
      <trkpt lat="44.32958" lon="2.65738">
        <ele>691.3251953</ele>
        <time>2014-06-15T07:17:31Z</time>
      </trkpt>
      <trkpt lat="44.32969" lon="2.65744">
        <ele>692.2866211</ele>
        <time>2014-06-15T07:17:36Z</time>
      </trkpt>
      <trkpt lat="44.32979" lon="2.6575">
        <ele>691.8059082</ele>
        <time>2014-06-15T07:17:41Z</time>
      </trkpt>
      <trkpt lat="44.32992" lon="2.65759">
        <ele>691.3251953</ele>
        <time>2014-06-15T07:17:47Z</time>
      </trkpt>
      <trkpt lat="44.33005" lon="2.65767">
        <ele>690.8444824</ele>
        <time>2014-06-15T07:17:53Z</time>
      </trkpt>
      <trkpt lat="44.33013" lon="2.65771">
        <ele>689.8833008</ele>
        <time>2014-06-15T07:17:57Z</time>
      </trkpt>
      <trkpt lat="44.3302" lon="2.65776">
        <ele>688.9221191</ele>
        <time>2014-06-15T07:18:00Z</time>
      </trkpt>
      <trkpt lat="44.33027" lon="2.65777">
        <ele>688.4414063</ele>
        <time>2014-06-15T07:18:03Z</time>
      </trkpt>
      <trkpt lat="44.33039" lon="2.65785">
        <ele>688.4414063</ele>
        <time>2014-06-15T07:18:08Z</time>
      </trkpt>
      <trkpt lat="44.33045" lon="2.65792">
        <ele>688.9221191</ele>
        <time>2014-06-15T07:18:11Z</time>
      </trkpt>
      <trkpt lat="44.33047" lon="2.65804">
        <ele>690.8444824</ele>
        <time>2014-06-15T07:18:16Z</time>
      </trkpt>
      <trkpt lat="44.33048" lon="2.65809">
        <ele>691.8059082</ele>
        <time>2014-06-15T07:18:18Z</time>
      </trkpt>
      <trkpt lat="44.33054" lon="2.65826">
        <ele>693.7285156</ele>
        <time>2014-06-15T07:18:25Z</time>
      </trkpt>
      <trkpt lat="44.3306" lon="2.65836">
        <ele>695.1704102</ele>
        <time>2014-06-15T07:18:30Z</time>
      </trkpt>
      <trkpt lat="44.33066" lon="2.65848">
        <ele>697.0930176</ele>
        <time>2014-06-15T07:18:36Z</time>
      </trkpt>
      <trkpt lat="44.3307" lon="2.65856">
        <ele>698.5349121</ele>
        <time>2014-06-15T07:18:41Z</time>
      </trkpt>
      <trkpt lat="44.33072" lon="2.65858">
        <ele>698.5349121</ele>
        <time>2014-06-15T07:18:43Z</time>
      </trkpt>
      <trkpt lat="44.33074" lon="2.65865">
        <ele>699.4963379</ele>
        <time>2014-06-15T07:18:47Z</time>
      </trkpt>
      <trkpt lat="44.33076" lon="2.65879">
        <ele>706.7062988</ele>
        <time>2014-06-15T07:18:55Z</time>
      </trkpt>
      <trkpt lat="44.33076" lon="2.65886">
        <ele>706.2255859</ele>
        <time>2014-06-15T07:18:59Z</time>
      </trkpt>
      <trkpt lat="44.33077" lon="2.65899">
        <ele>710.5515137</ele>
        <time>2014-06-15T07:19:05Z</time>
      </trkpt>
      <trkpt lat="44.33077" lon="2.65901">
        <ele>711.5129395</ele>
        <time>2014-06-15T07:19:06Z</time>
      </trkpt>
      <trkpt lat="44.33079" lon="2.65916">
        <ele>715.3581543</ele>
        <time>2014-06-15T07:19:14Z</time>
      </trkpt>
      <trkpt lat="44.33082" lon="2.65927">
        <ele>713.9160156</ele>
        <time>2014-06-15T07:19:20Z</time>
      </trkpt>
      <trkpt lat="44.33083" lon="2.65929">
        <ele>713.9160156</ele>
        <time>2014-06-15T07:19:21Z</time>
      </trkpt>
      <trkpt lat="44.3309" lon="2.65937">
        <ele>712.954834</ele>
        <time>2014-06-15T07:19:27Z</time>
      </trkpt>
      <trkpt lat="44.33097" lon="2.65942">
        <ele>714.3967285</ele>
        <time>2014-06-15T07:19:34Z</time>
      </trkpt>
      <trkpt lat="44.33103" lon="2.65943">
        <ele>713.9160156</ele>
        <time>2014-06-15T07:19:40Z</time>
      </trkpt>
      <trkpt lat="44.33109" lon="2.65944">
        <ele>710.5515137</ele>
        <time>2014-06-15T07:19:45Z</time>
      </trkpt>
      <trkpt lat="44.33118" lon="2.65946">
        <ele>708.6289063</ele>
        <time>2014-06-15T07:19:53Z</time>
      </trkpt>
      <trkpt lat="44.33123" lon="2.65947">
        <ele>708.6289063</ele>
        <time>2014-06-15T07:19:56Z</time>
      </trkpt>
      <trkpt lat="44.33125" lon="2.65949">
        <ele>709.1096191</ele>
        <time>2014-06-15T07:19:58Z</time>
      </trkpt>
      <trkpt lat="44.33136" lon="2.6595">
        <ele>711.0322266</ele>
        <time>2014-06-15T07:20:04Z</time>
      </trkpt>
      <trkpt lat="44.33148" lon="2.65959">
        <ele>709.1096191</ele>
        <time>2014-06-15T07:20:13Z</time>
      </trkpt>
      <trkpt lat="44.33149" lon="2.65961">
        <ele>709.1096191</ele>
        <time>2014-06-15T07:20:14Z</time>
      </trkpt>
      <trkpt lat="44.33152" lon="2.65969">
        <ele>710.5515137</ele>
        <time>2014-06-15T07:20:19Z</time>
      </trkpt>
      <trkpt lat="44.33157" lon="2.65972">
        <ele>711.0322266</ele>
        <time>2014-06-15T07:20:23Z</time>
      </trkpt>
      <trkpt lat="44.33161" lon="2.65973">
        <ele>712.4741211</ele>
        <time>2014-06-15T07:20:32Z</time>
      </trkpt>
      <trkpt lat="44.33162" lon="2.65975">
        <ele>712.954834</ele>
        <time>2014-06-15T07:20:33Z</time>
      </trkpt>
      <trkpt lat="44.33164" lon="2.65987">
        <ele>716.800293</ele>
        <time>2014-06-15T07:20:39Z</time>
      </trkpt>
      <trkpt lat="44.3316" lon="2.65992">
        <ele>718.7229004</ele>
        <time>2014-06-15T07:20:43Z</time>
      </trkpt>
      <trkpt lat="44.33149" lon="2.65998">
        <ele>721.1262207</ele>
        <time>2014-06-15T07:20:52Z</time>
      </trkpt>
      <trkpt lat="44.33148" lon="2.65999">
        <ele>721.1262207</ele>
        <time>2014-06-15T07:20:53Z</time>
      </trkpt>
      <trkpt lat="44.33143" lon="2.66008">
        <ele>723.529541</ele>
        <time>2014-06-15T07:20:59Z</time>
      </trkpt>
      <trkpt lat="44.33137" lon="2.66014">
        <ele>724.0100098</ele>
        <time>2014-06-15T07:21:03Z</time>
      </trkpt>
      <trkpt lat="44.33129" lon="2.66027">
        <ele>722.5681152</ele>
        <time>2014-06-15T07:21:09Z</time>
      </trkpt>
      <trkpt lat="44.33121" lon="2.66032">
        <ele>720.1647949</ele>
        <time>2014-06-15T07:21:14Z</time>
      </trkpt>
      <trkpt lat="44.33109" lon="2.66037">
        <ele>717.7614746</ele>
        <time>2014-06-15T07:21:20Z</time>
      </trkpt>
      <trkpt lat="44.33097" lon="2.66045">
        <ele>716.800293</ele>
        <time>2014-06-15T07:21:26Z</time>
      </trkpt>
      <trkpt lat="44.33088" lon="2.66052">
        <ele>717.2810059</ele>
        <time>2014-06-15T07:21:31Z</time>
      </trkpt>
      <trkpt lat="44.33079" lon="2.66057">
        <ele>718.2421875</ele>
        <time>2014-06-15T07:21:36Z</time>
      </trkpt>
      <trkpt lat="44.33069" lon="2.66068">
        <ele>719.2036133</ele>
        <time>2014-06-15T07:21:42Z</time>
      </trkpt>
      <trkpt lat="44.33062" lon="2.66074">
        <ele>718.7229004</ele>
        <time>2014-06-15T07:21:46Z</time>
      </trkpt>
      <trkpt lat="44.33049" lon="2.66084">
        <ele>716.800293</ele>
        <time>2014-06-15T07:21:53Z</time>
      </trkpt>
      <trkpt lat="44.33042" lon="2.6609">
        <ele>717.2810059</ele>
        <time>2014-06-15T07:21:57Z</time>
      </trkpt>
      <trkpt lat="44.33032" lon="2.66098">
        <ele>718.2421875</ele>
        <time>2014-06-15T07:22:02Z</time>
      </trkpt>
      <trkpt lat="44.33024" lon="2.66103">
        <ele>719.6843262</ele>
        <time>2014-06-15T07:22:06Z</time>
      </trkpt>
      <trkpt lat="44.33014" lon="2.66108">
        <ele>718.2421875</ele>
        <time>2014-06-15T07:22:11Z</time>
      </trkpt>
      <trkpt lat="44.33002" lon="2.66109">
        <ele>719.2036133</ele>
        <time>2014-06-15T07:22:16Z</time>
      </trkpt>
      <trkpt lat="44.32992" lon="2.66105">
        <ele>719.6843262</ele>
        <time>2014-06-15T07:22:21Z</time>
      </trkpt>
      <trkpt lat="44.32987" lon="2.66105">
        <ele>718.7229004</ele>
        <time>2014-06-15T07:22:23Z</time>
      </trkpt>
      <trkpt lat="44.32972" lon="2.66106">
        <ele>721.1262207</ele>
        <time>2014-06-15T07:22:29Z</time>
      </trkpt>
      <trkpt lat="44.32968" lon="2.66106">
        <ele>721.1262207</ele>
        <time>2014-06-15T07:22:31Z</time>
      </trkpt>
      <trkpt lat="44.32954" lon="2.66107">
        <ele>723.529541</ele>
        <time>2014-06-15T07:22:37Z</time>
      </trkpt>
      <trkpt lat="44.32941" lon="2.66109">
        <ele>724.4907227</ele>
        <time>2014-06-15T07:22:43Z</time>
      </trkpt>
      <trkpt lat="44.32936" lon="2.6611">
        <ele>725.9326172</ele>
        <time>2014-06-15T07:22:46Z</time>
      </trkpt>
      <trkpt lat="44.32924" lon="2.66115">
        <ele>729.2971191</ele>
        <time>2014-06-15T07:22:53Z</time>
      </trkpt>
      <trkpt lat="44.32914" lon="2.66118">
        <ele>730.2585449</ele>
        <time>2014-06-15T07:22:58Z</time>
      </trkpt>
      <trkpt lat="44.32905" lon="2.66122">
        <ele>730.2585449</ele>
        <time>2014-06-15T07:23:03Z</time>
      </trkpt>
      <trkpt lat="44.32894" lon="2.66124">
        <ele>730.2585449</ele>
        <time>2014-06-15T07:23:08Z</time>
      </trkpt>
      <trkpt lat="44.32885" lon="2.66126">
        <ele>729.2971191</ele>
        <time>2014-06-15T07:23:12Z</time>
      </trkpt>
      <trkpt lat="44.32879" lon="2.66127">
        <ele>729.777832</ele>
        <time>2014-06-15T07:23:15Z</time>
      </trkpt>
      <trkpt lat="44.32872" lon="2.6613">
        <ele>729.777832</ele>
        <time>2014-06-15T07:23:19Z</time>
      </trkpt>
      <trkpt lat="44.32864" lon="2.66134">
        <ele>729.777832</ele>
        <time>2014-06-15T07:23:23Z</time>
      </trkpt>
      <trkpt lat="44.32851" lon="2.66142">
        <ele>730.2585449</ele>
        <time>2014-06-15T07:23:29Z</time>
      </trkpt>
      <trkpt lat="44.32838" lon="2.66151">
        <ele>731.7004395</ele>
        <time>2014-06-15T07:23:36Z</time>
      </trkpt>
      <trkpt lat="44.32829" lon="2.66164">
        <ele>733.1425781</ele>
        <time>2014-06-15T07:23:42Z</time>
      </trkpt>
      <trkpt lat="44.32817" lon="2.66179">
        <ele>733.1425781</ele>
        <time>2014-06-15T07:23:48Z</time>
      </trkpt>
      <trkpt lat="44.3281" lon="2.66195">
        <ele>737.4685059</ele>
        <time>2014-06-15T07:23:53Z</time>
      </trkpt>
      <trkpt lat="44.32809" lon="2.66202">
        <ele>739.3911133</ele>
        <time>2014-06-15T07:23:55Z</time>
      </trkpt>
      <trkpt lat="44.32803" lon="2.66224">
        <ele>741.3137207</ele>
        <time>2014-06-15T07:24:01Z</time>
      </trkpt>
      <trkpt lat="44.32797" lon="2.66241">
        <ele>741.7944336</ele>
        <time>2014-06-15T07:24:06Z</time>
      </trkpt>
      <trkpt lat="44.32794" lon="2.66259">
        <ele>740.8330078</ele>
        <time>2014-06-15T07:24:12Z</time>
      </trkpt>
      <trkpt lat="44.32797" lon="2.66278">
        <ele>741.7944336</ele>
        <time>2014-06-15T07:24:19Z</time>
      </trkpt>
      <trkpt lat="44.32798" lon="2.66283">
        <ele>742.2751465</ele>
        <time>2014-06-15T07:24:21Z</time>
      </trkpt>
      <trkpt lat="44.32811" lon="2.66295">
        <ele>743.717041</ele>
        <time>2014-06-15T07:24:29Z</time>
      </trkpt>
      <trkpt lat="44.32821" lon="2.66294">
        <ele>743.717041</ele>
        <time>2014-06-15T07:24:34Z</time>
      </trkpt>
      <trkpt lat="44.32834" lon="2.66287">
        <ele>744.1977539</ele>
        <time>2014-06-15T07:24:41Z</time>
      </trkpt>
      <trkpt lat="44.32835" lon="2.66286">
        <ele>744.6782227</ele>
        <time>2014-06-15T07:24:42Z</time>
      </trkpt>
      <trkpt lat="44.32847" lon="2.66285">
        <ele>746.6010742</ele>
        <time>2014-06-15T07:24:48Z</time>
      </trkpt>
      <trkpt lat="44.32858" lon="2.66293">
        <ele>748.0432129</ele>
        <time>2014-06-15T07:24:54Z</time>
      </trkpt>
      <trkpt lat="44.32867" lon="2.66301">
        <ele>747.5622559</ele>
        <time>2014-06-15T07:24:59Z</time>
      </trkpt>
      <trkpt lat="44.32876" lon="2.6631">
        <ele>748.0432129</ele>
        <time>2014-06-15T07:25:04Z</time>
      </trkpt>
      <trkpt lat="44.32886" lon="2.66321">
        <ele>749.0043945</ele>
        <time>2014-06-15T07:25:10Z</time>
      </trkpt>
      <trkpt lat="44.32893" lon="2.66328">
        <ele>750.927002</ele>
        <time>2014-06-15T07:25:14Z</time>
      </trkpt>
      <trkpt lat="44.329" lon="2.66334">
        <ele>751.4077148</ele>
        <time>2014-06-15T07:25:18Z</time>
      </trkpt>
      <trkpt lat="44.32915" lon="2.66342">
        <ele>752.3688965</ele>
        <time>2014-06-15T07:25:26Z</time>
      </trkpt>
      <trkpt lat="44.32923" lon="2.66346">
        <ele>752.8496094</ele>
        <time>2014-06-15T07:25:30Z</time>
      </trkpt>
      <trkpt lat="44.32933" lon="2.66357">
        <ele>751.8884277</ele>
        <time>2014-06-15T07:25:36Z</time>
      </trkpt>
      <trkpt lat="44.32935" lon="2.66362">
        <ele>751.8884277</ele>
        <time>2014-06-15T07:25:38Z</time>
      </trkpt>
      <trkpt lat="44.32933" lon="2.6638">
        <ele>752.3688965</ele>
        <time>2014-06-15T07:25:44Z</time>
      </trkpt>
      <trkpt lat="44.32927" lon="2.66394">
        <ele>753.8110352</ele>
        <time>2014-06-15T07:25:50Z</time>
      </trkpt>
      <trkpt lat="44.32921" lon="2.66408">
        <ele>756.6948242</ele>
        <time>2014-06-15T07:25:56Z</time>
      </trkpt>
      <trkpt lat="44.32916" lon="2.6642">
        <ele>758.1369629</ele>
        <time>2014-06-15T07:26:01Z</time>
      </trkpt>
      <trkpt lat="44.32906" lon="2.66432">
        <ele>759.0981445</ele>
        <time>2014-06-15T07:26:07Z</time>
      </trkpt>
      <trkpt lat="44.32897" lon="2.66438">
        <ele>758.1369629</ele>
        <time>2014-06-15T07:26:12Z</time>
      </trkpt>
      <trkpt lat="44.32883" lon="2.66443">
        <ele>757.1755371</ele>
        <time>2014-06-15T07:26:18Z</time>
      </trkpt>
      <trkpt lat="44.32874" lon="2.66445">
        <ele>755.7336426</ele>
        <time>2014-06-15T07:26:22Z</time>
      </trkpt>
      <trkpt lat="44.32861" lon="2.66443">
        <ele>752.8496094</ele>
        <time>2014-06-15T07:26:29Z</time>
      </trkpt>
      <trkpt lat="44.32854" lon="2.66444">
        <ele>753.3303223</ele>
        <time>2014-06-15T07:26:33Z</time>
      </trkpt>
      <trkpt lat="44.32845" lon="2.66451">
        <ele>754.291748</ele>
        <time>2014-06-15T07:26:38Z</time>
      </trkpt>
      <trkpt lat="44.32843" lon="2.66453">
        <ele>754.7722168</ele>
        <time>2014-06-15T07:26:39Z</time>
      </trkpt>
      <trkpt lat="44.32828" lon="2.66459">
        <ele>754.7722168</ele>
        <time>2014-06-15T07:26:47Z</time>
      </trkpt>
      <trkpt lat="44.32819" lon="2.66464">
        <ele>754.7722168</ele>
        <time>2014-06-15T07:26:52Z</time>
      </trkpt>
      <trkpt lat="44.3281" lon="2.6647">
        <ele>755.7336426</ele>
        <time>2014-06-15T07:26:57Z</time>
      </trkpt>
      <trkpt lat="44.32807" lon="2.66473">
        <ele>756.2141113</ele>
        <time>2014-06-15T07:26:59Z</time>
      </trkpt>
      <trkpt lat="44.32799" lon="2.66478">
        <ele>758.1369629</ele>
        <time>2014-06-15T07:27:04Z</time>
      </trkpt>
      <trkpt lat="44.32797" lon="2.66479">
        <ele>758.6174316</ele>
        <time>2014-06-15T07:27:05Z</time>
      </trkpt>
      <trkpt lat="44.32784" lon="2.66485">
        <ele>761.020752</ele>
        <time>2014-06-15T07:27:11Z</time>
      </trkpt>
      <trkpt lat="44.32773" lon="2.66491">
        <ele>761.5014648</ele>
        <time>2014-06-15T07:27:16Z</time>
      </trkpt>
      <trkpt lat="44.32758" lon="2.66502">
        <ele>762.4626465</ele>
        <time>2014-06-15T07:27:22Z</time>
      </trkpt>
      <trkpt lat="44.32748" lon="2.66509">
        <ele>762.9433594</ele>
        <time>2014-06-15T07:27:27Z</time>
      </trkpt>
      <trkpt lat="44.32733" lon="2.6652">
        <ele>761.9821777</ele>
        <time>2014-06-15T07:27:34Z</time>
      </trkpt>
      <trkpt lat="44.32718" lon="2.6653">
        <ele>761.020752</ele>
        <time>2014-06-15T07:27:41Z</time>
      </trkpt>
      <trkpt lat="44.32705" lon="2.66538">
        <ele>760.5400391</ele>
        <time>2014-06-15T07:27:47Z</time>
      </trkpt>
      <trkpt lat="44.32695" lon="2.66546">
        <ele>761.5014648</ele>
        <time>2014-06-15T07:27:52Z</time>
      </trkpt>
      <trkpt lat="44.32683" lon="2.66554">
        <ele>762.9433594</ele>
        <time>2014-06-15T07:27:58Z</time>
      </trkpt>
      <trkpt lat="44.32674" lon="2.66565">
        <ele>765.3469238</ele>
        <time>2014-06-15T07:28:04Z</time>
      </trkpt>
      <trkpt lat="44.32666" lon="2.6658">
        <ele>767.75</ele>
        <time>2014-06-15T07:28:10Z</time>
      </trkpt>
      <trkpt lat="44.32662" lon="2.66596">
        <ele>771.5952148</ele>
        <time>2014-06-15T07:28:15Z</time>
      </trkpt>
      <trkpt lat="44.32656" lon="2.66611">
        <ele>773.0373535</ele>
        <time>2014-06-15T07:28:20Z</time>
      </trkpt>
      <trkpt lat="44.32652" lon="2.66626">
        <ele>774.479248</ele>
        <time>2014-06-15T07:28:25Z</time>
      </trkpt>
      <trkpt lat="44.32649" lon="2.66638">
        <ele>775.4404297</ele>
        <time>2014-06-15T07:28:29Z</time>
      </trkpt>
      <trkpt lat="44.32645" lon="2.66655">
        <ele>776.4018555</ele>
        <time>2014-06-15T07:28:34Z</time>
      </trkpt>
      <trkpt lat="44.32645" lon="2.66669">
        <ele>777.3632813</ele>
        <time>2014-06-15T07:28:38Z</time>
      </trkpt>
      <trkpt lat="44.32644" lon="2.66672">
        <ele>777.84375</ele>
        <time>2014-06-15T07:28:39Z</time>
      </trkpt>
      <trkpt lat="44.32643" lon="2.66684">
        <ele>777.84375</ele>
        <time>2014-06-15T07:28:43Z</time>
      </trkpt>
      <trkpt lat="44.32639" lon="2.66703">
        <ele>778.8051758</ele>
        <time>2014-06-15T07:28:49Z</time>
      </trkpt>
      <trkpt lat="44.32635" lon="2.66719">
        <ele>779.7663574</ele>
        <time>2014-06-15T07:28:54Z</time>
      </trkpt>
      <trkpt lat="44.32633" lon="2.66735">
        <ele>781.2087402</ele>
        <time>2014-06-15T07:28:59Z</time>
      </trkpt>
      <trkpt lat="44.32632" lon="2.66754">
        <ele>782.6506348</ele>
        <time>2014-06-15T07:29:05Z</time>
      </trkpt>
      <trkpt lat="44.3263" lon="2.66768">
        <ele>784.0925293</ele>
        <time>2014-06-15T07:29:10Z</time>
      </trkpt>
      <trkpt lat="44.32629" lon="2.6677">
        <ele>784.5732422</ele>
        <time>2014-06-15T07:29:11Z</time>
      </trkpt>
      <trkpt lat="44.32629" lon="2.66788">
        <ele>786.4958496</ele>
        <time>2014-06-15T07:29:18Z</time>
      </trkpt>
      <trkpt lat="44.32633" lon="2.66799">
        <ele>787.9377441</ele>
        <time>2014-06-15T07:29:24Z</time>
      </trkpt>
      <trkpt lat="44.32634" lon="2.66802">
        <ele>788.418457</ele>
        <time>2014-06-15T07:29:26Z</time>
      </trkpt>
      <trkpt lat="44.32637" lon="2.6681">
        <ele>788.8991699</ele>
        <time>2014-06-15T07:29:30Z</time>
      </trkpt>
      <trkpt lat="44.32644" lon="2.66823">
        <ele>790.8215332</ele>
        <time>2014-06-15T07:29:38Z</time>
      </trkpt>
      <trkpt lat="44.32647" lon="2.66826">
        <ele>790.8215332</ele>
        <time>2014-06-15T07:29:41Z</time>
      </trkpt>
      <trkpt lat="44.32652" lon="2.66833">
        <ele>790.8215332</ele>
        <time>2014-06-15T07:29:47Z</time>
      </trkpt>
      <trkpt lat="44.32658" lon="2.66836">
        <ele>789.8603516</ele>
        <time>2014-06-15T07:29:51Z</time>
      </trkpt>
      <trkpt lat="44.3266" lon="2.66836">
        <ele>789.8603516</ele>
        <time>2014-06-15T07:29:52Z</time>
      </trkpt>
      <trkpt lat="44.32671" lon="2.66837">
        <ele>788.418457</ele>
        <time>2014-06-15T07:29:57Z</time>
      </trkpt>
      <trkpt lat="44.32685" lon="2.66839">
        <ele>786.9763184</ele>
        <time>2014-06-15T07:30:03Z</time>
      </trkpt>
      <trkpt lat="44.32697" lon="2.66839">
        <ele>786.4958496</ele>
        <time>2014-06-15T07:30:08Z</time>
      </trkpt>
      <trkpt lat="44.32712" lon="2.6684">
        <ele>786.9763184</ele>
        <time>2014-06-15T07:30:14Z</time>
      </trkpt>
      <trkpt lat="44.32727" lon="2.66844">
        <ele>786.9763184</ele>
        <time>2014-06-15T07:30:20Z</time>
      </trkpt>
      <trkpt lat="44.32741" lon="2.66846">
        <ele>786.9763184</ele>
        <time>2014-06-15T07:30:26Z</time>
      </trkpt>
      <trkpt lat="44.32753" lon="2.66846">
        <ele>787.9377441</ele>
        <time>2014-06-15T07:30:31Z</time>
      </trkpt>
      <trkpt lat="44.32757" lon="2.66846">
        <ele>786.9763184</ele>
        <time>2014-06-15T07:30:36Z</time>
      </trkpt>
      <trkpt lat="44.32764" lon="2.66846">
        <ele>785.0539551</ele>
        <time>2014-06-15T07:30:42Z</time>
      </trkpt>
      <trkpt lat="44.32773" lon="2.66845">
        <ele>783.6118164</ele>
        <time>2014-06-15T07:30:46Z</time>
      </trkpt>
      <trkpt lat="44.3278" lon="2.66843">
        <ele>783.1311035</ele>
        <time>2014-06-15T07:30:49Z</time>
      </trkpt>
      <trkpt lat="44.32798" lon="2.66838">
        <ele>783.6118164</ele>
        <time>2014-06-15T07:30:56Z</time>
      </trkpt>
      <trkpt lat="44.3281" lon="2.66836">
        <ele>783.1311035</ele>
        <time>2014-06-15T07:31:01Z</time>
      </trkpt>
      <trkpt lat="44.32823" lon="2.66835">
        <ele>780.7280273</ele>
        <time>2014-06-15T07:31:07Z</time>
      </trkpt>
      <trkpt lat="44.32837" lon="2.66834">
        <ele>779.7663574</ele>
        <time>2014-06-15T07:31:12Z</time>
      </trkpt>
      <trkpt lat="44.32849" lon="2.66838">
        <ele>778.8051758</ele>
        <time>2014-06-15T07:31:17Z</time>
      </trkpt>
      <trkpt lat="44.32854" lon="2.66839">
        <ele>778.3244629</ele>
        <time>2014-06-15T07:31:19Z</time>
      </trkpt>
      <trkpt lat="44.32871" lon="2.6684">
        <ele>776.8825684</ele>
        <time>2014-06-15T07:31:26Z</time>
      </trkpt>
      <trkpt lat="44.32883" lon="2.66841">
        <ele>776.8825684</ele>
        <time>2014-06-15T07:31:31Z</time>
      </trkpt>
      <trkpt lat="44.32896" lon="2.66841">
        <ele>779.2856445</ele>
        <time>2014-06-15T07:31:36Z</time>
      </trkpt>
      <trkpt lat="44.32908" lon="2.6684">
        <ele>780.2473145</ele>
        <time>2014-06-15T07:31:41Z</time>
      </trkpt>
      <trkpt lat="44.32919" lon="2.66841">
        <ele>780.2473145</ele>
        <time>2014-06-15T07:31:46Z</time>
      </trkpt>
      <trkpt lat="44.32931" lon="2.66835">
        <ele>779.7663574</ele>
        <time>2014-06-15T07:31:51Z</time>
      </trkpt>
      <trkpt lat="44.32943" lon="2.66828">
        <ele>777.84375</ele>
        <time>2014-06-15T07:31:56Z</time>
      </trkpt>
      <trkpt lat="44.32953" lon="2.66821">
        <ele>774.479248</ele>
        <time>2014-06-15T07:32:01Z</time>
      </trkpt>
      <trkpt lat="44.32964" lon="2.66813">
        <ele>769.6728516</ele>
        <time>2014-06-15T07:32:05Z</time>
      </trkpt>
      <trkpt lat="44.32974" lon="2.66808">
        <ele>766.7888184</ele>
        <time>2014-06-15T07:32:09Z</time>
      </trkpt>
      <trkpt lat="44.32988" lon="2.66799">
        <ele>760.5400391</ele>
        <time>2014-06-15T07:32:15Z</time>
      </trkpt>
      <trkpt lat="44.33001" lon="2.66799">
        <ele>756.6948242</ele>
        <time>2014-06-15T07:32:19Z</time>
      </trkpt>
      <trkpt lat="44.33002" lon="2.66799">
        <ele>756.2141113</ele>
        <time>2014-06-15T07:32:20Z</time>
      </trkpt>
      <trkpt lat="44.33017" lon="2.66798">
        <ele>755.7336426</ele>
        <time>2014-06-15T07:32:26Z</time>
      </trkpt>
      <trkpt lat="44.3303" lon="2.66793">
        <ele>755.7336426</ele>
        <time>2014-06-15T07:32:30Z</time>
      </trkpt>
      <trkpt lat="44.33042" lon="2.66783">
        <ele>755.7336426</ele>
        <time>2014-06-15T07:32:35Z</time>
      </trkpt>
      <trkpt lat="44.3305" lon="2.66775">
        <ele>753.3303223</ele>
        <time>2014-06-15T07:32:39Z</time>
      </trkpt>
      <trkpt lat="44.33063" lon="2.66767">
        <ele>752.3688965</ele>
        <time>2014-06-15T07:32:44Z</time>
      </trkpt>
      <trkpt lat="44.33065" lon="2.66765">
        <ele>752.3688965</ele>
        <time>2014-06-15T07:32:45Z</time>
      </trkpt>
      <trkpt lat="44.33077" lon="2.66764">
        <ele>751.8884277</ele>
        <time>2014-06-15T07:32:49Z</time>
      </trkpt>
      <trkpt lat="44.3309" lon="2.66769">
        <ele>750.4465332</ele>
        <time>2014-06-15T07:32:54Z</time>
      </trkpt>
      <trkpt lat="44.33102" lon="2.6677">
        <ele>752.3688965</ele>
        <time>2014-06-15T07:32:59Z</time>
      </trkpt>
      <trkpt lat="44.33117" lon="2.66765">
        <ele>754.291748</ele>
        <time>2014-06-15T07:33:05Z</time>
      </trkpt>
      <trkpt lat="44.33128" lon="2.66759">
        <ele>755.2529297</ele>
        <time>2014-06-15T07:33:10Z</time>
      </trkpt>
      <trkpt lat="44.33133" lon="2.66757">
        <ele>756.2141113</ele>
        <time>2014-06-15T07:33:12Z</time>
      </trkpt>
      <trkpt lat="44.33145" lon="2.66761">
        <ele>750.927002</ele>
        <time>2014-06-15T07:33:17Z</time>
      </trkpt>
      <trkpt lat="44.33152" lon="2.66773">
        <ele>746.1203613</ele>
        <time>2014-06-15T07:33:21Z</time>
      </trkpt>
      <trkpt lat="44.33153" lon="2.66776">
        <ele>745.6396484</ele>
        <time>2014-06-15T07:33:22Z</time>
      </trkpt>
      <trkpt lat="44.33162" lon="2.66796">
        <ele>744.1977539</ele>
        <time>2014-06-15T07:33:28Z</time>
      </trkpt>
      <trkpt lat="44.33169" lon="2.66812">
        <ele>745.1589355</ele>
        <time>2014-06-15T07:33:33Z</time>
      </trkpt>
      <trkpt lat="44.33174" lon="2.66819">
        <ele>744.1977539</ele>
        <time>2014-06-15T07:33:35Z</time>
      </trkpt>
      <trkpt lat="44.33181" lon="2.66835">
        <ele>741.7944336</ele>
        <time>2014-06-15T07:33:40Z</time>
      </trkpt>
      <trkpt lat="44.33187" lon="2.66843">
        <ele>741.7944336</ele>
        <time>2014-06-15T07:33:44Z</time>
      </trkpt>
      <trkpt lat="44.33191" lon="2.66848">
        <ele>741.7944336</ele>
        <time>2014-06-15T07:33:46Z</time>
      </trkpt>
      <trkpt lat="44.33192" lon="2.6686">
        <ele>742.2751465</ele>
        <time>2014-06-15T07:33:50Z</time>
      </trkpt>
      <trkpt lat="44.33199" lon="2.6687">
        <ele>739.3911133</ele>
        <time>2014-06-15T07:33:56Z</time>
      </trkpt>
      <trkpt lat="44.33201" lon="2.66871">
        <ele>738.4299316</ele>
        <time>2014-06-15T07:33:59Z</time>
      </trkpt>
      <trkpt lat="44.33215" lon="2.66877">
        <ele>733.623291</ele>
        <time>2014-06-15T07:34:06Z</time>
      </trkpt>
      <trkpt lat="44.33217" lon="2.66879">
        <ele>732.6621094</ele>
        <time>2014-06-15T07:34:07Z</time>
      </trkpt>
      <trkpt lat="44.33225" lon="2.66885">
        <ele>729.2971191</ele>
        <time>2014-06-15T07:34:12Z</time>
      </trkpt>
      <trkpt lat="44.33228" lon="2.66888">
        <ele>727.3747559</ele>
        <time>2014-06-15T07:34:14Z</time>
      </trkpt>
      <trkpt lat="44.33239" lon="2.6689">
        <ele>720.1647949</ele>
        <time>2014-06-15T07:34:20Z</time>
      </trkpt>
      <trkpt lat="44.3324" lon="2.66891">
        <ele>719.2036133</ele>
        <time>2014-06-15T07:34:21Z</time>
      </trkpt>
      <trkpt lat="44.33253" lon="2.66894">
        <ele>714.8774414</ele>
        <time>2014-06-15T07:34:27Z</time>
      </trkpt>
      <trkpt lat="44.33254" lon="2.66894">
        <ele>713.9160156</ele>
        <time>2014-06-15T07:34:28Z</time>
      </trkpt>
      <trkpt lat="44.33264" lon="2.66896">
        <ele>711.0322266</ele>
        <time>2014-06-15T07:34:33Z</time>
      </trkpt>
      <trkpt lat="44.33268" lon="2.66899">
        <ele>711.0322266</ele>
        <time>2014-06-15T07:34:37Z</time>
      </trkpt>
      <trkpt lat="44.33275" lon="2.669">
        <ele>708.1484375</ele>
        <time>2014-06-15T07:34:44Z</time>
      </trkpt>
      <trkpt lat="44.33278" lon="2.66901">
        <ele>706.7062988</ele>
        <time>2014-06-15T07:34:48Z</time>
      </trkpt>
      <trkpt lat="44.33282" lon="2.66902">
        <ele>703.3417969</ele>
        <time>2014-06-15T07:34:54Z</time>
      </trkpt>
      <trkpt lat="44.33286" lon="2.66903">
        <ele>699.4963379</ele>
        <time>2014-06-15T07:35:01Z</time>
      </trkpt>
      <trkpt lat="44.33292" lon="2.66906">
        <ele>698.5349121</ele>
        <time>2014-06-15T07:35:08Z</time>
      </trkpt>
      <trkpt lat="44.33294" lon="2.66907">
        <ele>698.0544434</ele>
        <time>2014-06-15T07:35:10Z</time>
      </trkpt>
      <trkpt lat="44.33296" lon="2.66908">
        <ele>696.6125488</ele>
        <time>2014-06-15T07:35:12Z</time>
      </trkpt>
      <trkpt lat="44.33299" lon="2.66914">
        <ele>692.2866211</ele>
        <time>2014-06-15T07:35:19Z</time>
      </trkpt>
      <trkpt lat="44.33305" lon="2.66918">
        <ele>691.8059082</ele>
        <time>2014-06-15T07:35:25Z</time>
      </trkpt>
      <trkpt lat="44.33307" lon="2.66915">
        <ele>689.8833008</ele>
        <time>2014-06-15T07:35:30Z</time>
      </trkpt>
      <trkpt lat="44.33309" lon="2.6691">
        <ele>686.9992676</ele>
        <time>2014-06-15T07:35:35Z</time>
      </trkpt>
      <trkpt lat="44.33316" lon="2.6691">
        <ele>682.192627</ele>
        <time>2014-06-15T07:35:42Z</time>
      </trkpt>
      <trkpt lat="44.33319" lon="2.66911">
        <ele>678.828125</ele>
        <time>2014-06-15T07:35:45Z</time>
      </trkpt>
      <trkpt lat="44.33326" lon="2.66913">
        <ele>675.4633789</ele>
        <time>2014-06-15T07:35:49Z</time>
      </trkpt>
      <trkpt lat="44.33328" lon="2.66914">
        <ele>675.4633789</ele>
        <time>2014-06-15T07:35:50Z</time>
      </trkpt>
      <trkpt lat="44.33331" lon="2.66917">
        <ele>674.5021973</ele>
        <time>2014-06-15T07:35:53Z</time>
      </trkpt>
      <trkpt lat="44.33333" lon="2.66921">
        <ele>673.5410156</ele>
        <time>2014-06-15T07:35:56Z</time>
      </trkpt>
      <trkpt lat="44.33334" lon="2.66928">
        <ele>670.6569824</ele>
        <time>2014-06-15T07:36:01Z</time>
      </trkpt>
      <trkpt lat="44.33336" lon="2.66935">
        <ele>669.6958008</ele>
        <time>2014-06-15T07:36:04Z</time>
      </trkpt>
      <trkpt lat="44.33346" lon="2.66949">
        <ele>668.734375</ele>
        <time>2014-06-15T07:36:10Z</time>
      </trkpt>
      <trkpt lat="44.33347" lon="2.66954">
        <ele>667.7727051</ele>
        <time>2014-06-15T07:36:12Z</time>
      </trkpt>
      <trkpt lat="44.33348" lon="2.66962">
        <ele>665.8503418</ele>
        <time>2014-06-15T07:36:15Z</time>
      </trkpt>
      <trkpt lat="44.3335" lon="2.66972">
        <ele>664.4082031</ele>
        <time>2014-06-15T07:36:19Z</time>
      </trkpt>
      <trkpt lat="44.33352" lon="2.66985">
        <ele>661.5244141</ele>
        <time>2014-06-15T07:36:25Z</time>
      </trkpt>
      <trkpt lat="44.33353" lon="2.66999">
        <ele>660.0822754</ele>
        <time>2014-06-15T07:36:30Z</time>
      </trkpt>
      <trkpt lat="44.33353" lon="2.67008">
        <ele>659.6018066</ele>
        <time>2014-06-15T07:36:34Z</time>
      </trkpt>
      <trkpt lat="44.33356" lon="2.67017">
        <ele>656.7177734</ele>
        <time>2014-06-15T07:36:40Z</time>
      </trkpt>
      <trkpt lat="44.33363" lon="2.67028">
        <ele>662.4855957</ele>
        <time>2014-06-15T07:36:44Z</time>
      </trkpt>
      <trkpt lat="44.33362" lon="2.67038">
        <ele>660.5629883</ele>
        <time>2014-06-15T07:36:49Z</time>
      </trkpt>
      <trkpt lat="44.33363" lon="2.67052">
        <ele>657.1984863</ele>
        <time>2014-06-15T07:36:56Z</time>
      </trkpt>
      <trkpt lat="44.33364" lon="2.67055">
        <ele>656.7177734</ele>
        <time>2014-06-15T07:36:57Z</time>
      </trkpt>
      <trkpt lat="44.33361" lon="2.67063">
        <ele>649.0270996</ele>
        <time>2014-06-15T07:37:01Z</time>
      </trkpt>
      <trkpt lat="44.33359" lon="2.67068">
        <ele>642.7788086</ele>
        <time>2014-06-15T07:37:04Z</time>
      </trkpt>
      <trkpt lat="44.3335" lon="2.67078">
        <ele>639.8947754</ele>
        <time>2014-06-15T07:37:10Z</time>
      </trkpt>
      <trkpt lat="44.33344" lon="2.67083">
        <ele>636.5302734</ele>
        <time>2014-06-15T07:37:14Z</time>
      </trkpt>
      <trkpt lat="44.33333" lon="2.67087">
        <ele>630.2814941</ele>
        <time>2014-06-15T07:37:22Z</time>
      </trkpt>
      <trkpt lat="44.33332" lon="2.67087">
        <ele>629.8007813</ele>
        <time>2014-06-15T07:37:23Z</time>
      </trkpt>
      <trkpt lat="44.3333" lon="2.67096">
        <ele>631.7233887</ele>
        <time>2014-06-15T07:37:28Z</time>
      </trkpt>
      <trkpt lat="44.33332" lon="2.67098">
        <ele>632.6848145</ele>
        <time>2014-06-15T07:37:32Z</time>
      </trkpt>
      <trkpt lat="44.33341" lon="2.671">
        <ele>634.6074219</ele>
        <time>2014-06-15T07:37:37Z</time>
      </trkpt>
      <trkpt lat="44.33347" lon="2.67098">
        <ele>637.0107422</ele>
        <time>2014-06-15T07:37:40Z</time>
      </trkpt>
      <trkpt lat="44.33359" lon="2.67094">
        <ele>644.2207031</ele>
        <time>2014-06-15T07:37:46Z</time>
      </trkpt>
      <trkpt lat="44.3337" lon="2.67097">
        <ele>646.1433105</ele>
        <time>2014-06-15T07:37:51Z</time>
      </trkpt>
      <trkpt lat="44.33381" lon="2.6711">
        <ele>640.855957</ele>
        <time>2014-06-15T07:37:56Z</time>
      </trkpt>
      <trkpt lat="44.33393" lon="2.67126">
        <ele>635.5686035</ele>
        <time>2014-06-15T07:38:02Z</time>
      </trkpt>
      <trkpt lat="44.33401" lon="2.67134">
        <ele>636.5302734</ele>
        <time>2014-06-15T07:38:07Z</time>
      </trkpt>
      <trkpt lat="44.33406" lon="2.67134">
        <ele>637.4914551</ele>
        <time>2014-06-15T07:38:10Z</time>
      </trkpt>
      <trkpt lat="44.33414" lon="2.67139">
        <ele>630.2814941</ele>
        <time>2014-06-15T07:38:17Z</time>
      </trkpt>
      <trkpt lat="44.33417" lon="2.67142">
        <ele>631.2429199</ele>
        <time>2014-06-15T07:38:20Z</time>
      </trkpt>
      <trkpt lat="44.33423" lon="2.67151">
        <ele>637.972168</ele>
        <time>2014-06-15T07:38:27Z</time>
      </trkpt>
      <trkpt lat="44.33426" lon="2.67155">
        <ele>637.4914551</ele>
        <time>2014-06-15T07:38:32Z</time>
      </trkpt>
      <trkpt lat="44.33431" lon="2.67158">
        <ele>642.2980957</ele>
        <time>2014-06-15T07:38:37Z</time>
      </trkpt>
      <trkpt lat="44.33435" lon="2.67161">
        <ele>645.1818848</ele>
        <time>2014-06-15T07:38:44Z</time>
      </trkpt>
      <trkpt lat="44.3344" lon="2.67169">
        <ele>646.6240234</ele>
        <time>2014-06-15T07:38:50Z</time>
      </trkpt>
      <trkpt lat="44.33443" lon="2.67177">
        <ele>648.065918</ele>
        <time>2014-06-15T07:38:55Z</time>
      </trkpt>
      <trkpt lat="44.33443" lon="2.67183">
        <ele>647.5852051</ele>
        <time>2014-06-15T07:38:58Z</time>
      </trkpt>
      <trkpt lat="44.33435" lon="2.67197">
        <ele>648.5463867</ele>
        <time>2014-06-15T07:39:06Z</time>
      </trkpt>
      <trkpt lat="44.33424" lon="2.67202">
        <ele>647.5852051</ele>
        <time>2014-06-15T07:39:13Z</time>
      </trkpt>
      <trkpt lat="44.33415" lon="2.67201">
        <ele>648.5463867</ele>
        <time>2014-06-15T07:39:19Z</time>
      </trkpt>
      <trkpt lat="44.33403" lon="2.67192">
        <ele>651.9111328</ele>
        <time>2014-06-15T07:39:27Z</time>
      </trkpt>
      <trkpt lat="44.33393" lon="2.67184">
        <ele>650.4692383</ele>
        <time>2014-06-15T07:39:33Z</time>
      </trkpt>
      <trkpt lat="44.33385" lon="2.67178">
        <ele>646.6240234</ele>
        <time>2014-06-15T07:39:37Z</time>
      </trkpt>
      <trkpt lat="44.33372" lon="2.67173">
        <ele>643.7399902</ele>
        <time>2014-06-15T07:39:43Z</time>
      </trkpt>
      <trkpt lat="44.33359" lon="2.67171">
        <ele>644.7011719</ele>
        <time>2014-06-15T07:39:49Z</time>
      </trkpt>
      <trkpt lat="44.33351" lon="2.67172">
        <ele>644.7011719</ele>
        <time>2014-06-15T07:39:54Z</time>
      </trkpt>
      <trkpt lat="44.33344" lon="2.6718">
        <ele>651.9111328</ele>
        <time>2014-06-15T07:39:58Z</time>
      </trkpt>
      <trkpt lat="44.33338" lon="2.67189">
        <ele>658.6403809</ele>
        <time>2014-06-15T07:40:04Z</time>
      </trkpt>
      <trkpt lat="44.33339" lon="2.67192">
        <ele>659.6018066</ele>
        <time>2014-06-15T07:40:07Z</time>
      </trkpt>
      <trkpt lat="44.33345" lon="2.67194">
        <ele>660.5629883</ele>
        <time>2014-06-15T07:40:13Z</time>
      </trkpt>
      <trkpt lat="44.33346" lon="2.67195">
        <ele>661.0437012</ele>
        <time>2014-06-15T07:40:14Z</time>
      </trkpt>
      <trkpt lat="44.33351" lon="2.67198">
        <ele>664.4082031</ele>
        <time>2014-06-15T07:40:18Z</time>
      </trkpt>
      <trkpt lat="44.33353" lon="2.67199">
        <ele>666.3308105</ele>
        <time>2014-06-15T07:40:20Z</time>
      </trkpt>
      <trkpt lat="44.3335" lon="2.67204">
        <ele>669.6958008</ele>
        <time>2014-06-15T07:40:25Z</time>
      </trkpt>
      <trkpt lat="44.33352" lon="2.67211">
        <ele>670.1762695</ele>
        <time>2014-06-15T07:40:31Z</time>
      </trkpt>
      <trkpt lat="44.33356" lon="2.67215">
        <ele>670.1762695</ele>
        <time>2014-06-15T07:40:38Z</time>
      </trkpt>
      <trkpt lat="44.33358" lon="2.67218">
        <ele>668.734375</ele>
        <time>2014-06-15T07:40:43Z</time>
      </trkpt>
      <trkpt lat="44.33359" lon="2.67225">
        <ele>670.1762695</ele>
        <time>2014-06-15T07:40:49Z</time>
      </trkpt>
      <trkpt lat="44.3336" lon="2.67232">
        <ele>670.6569824</ele>
        <time>2014-06-15T07:40:59Z</time>
      </trkpt>
      <trkpt lat="44.33362" lon="2.67239">
        <ele>670.1762695</ele>
        <time>2014-06-15T07:41:06Z</time>
      </trkpt>
      <trkpt lat="44.33359" lon="2.67243">
        <ele>672.098877</ele>
        <time>2014-06-15T07:41:11Z</time>
      </trkpt>
      <trkpt lat="44.33353" lon="2.67246">
        <ele>672.098877</ele>
        <time>2014-06-15T07:41:17Z</time>
      </trkpt>
      <trkpt lat="44.3335" lon="2.67249">
        <ele>677.3862305</ele>
        <time>2014-06-15T07:41:20Z</time>
      </trkpt>
      <trkpt lat="44.33349" lon="2.6725">
        <ele>679.3085938</ele>
        <time>2014-06-15T07:41:22Z</time>
      </trkpt>
      <trkpt lat="44.33344" lon="2.67253">
        <ele>688.4414063</ele>
        <time>2014-06-15T07:41:27Z</time>
      </trkpt>
      <trkpt lat="44.33341" lon="2.67253">
        <ele>692.2866211</ele>
        <time>2014-06-15T07:41:33Z</time>
      </trkpt>
      <trkpt lat="44.33336" lon="2.67252">
        <ele>688.9221191</ele>
        <time>2014-06-15T07:41:38Z</time>
      </trkpt>
      <trkpt lat="44.33332" lon="2.67252">
        <ele>686.0380859</ele>
        <time>2014-06-15T07:41:42Z</time>
      </trkpt>
      <trkpt lat="44.33329" lon="2.67255">
        <ele>689.4025879</ele>
        <time>2014-06-15T07:41:48Z</time>
      </trkpt>
      <trkpt lat="44.33322" lon="2.67256">
        <ele>693.7285156</ele>
        <time>2014-06-15T07:41:55Z</time>
      </trkpt>
      <trkpt lat="44.33315" lon="2.67257">
        <ele>700.9384766</ele>
        <time>2014-06-15T07:42:03Z</time>
      </trkpt>
      <trkpt lat="44.33313" lon="2.67258">
        <ele>702.3803711</ele>
        <time>2014-06-15T07:42:07Z</time>
      </trkpt>
      <trkpt lat="44.3331" lon="2.67259">
        <ele>702.861084</ele>
        <time>2014-06-15T07:42:12Z</time>
      </trkpt>
      <trkpt lat="44.33309" lon="2.67262">
        <ele>704.7836914</ele>
        <time>2014-06-15T07:42:15Z</time>
      </trkpt>
      <trkpt lat="44.33315" lon="2.67271">
        <ele>694.2092285</ele>
        <time>2014-06-15T07:42:23Z</time>
      </trkpt>
      <trkpt lat="44.33318" lon="2.67276">
        <ele>694.6896973</ele>
        <time>2014-06-15T07:42:29Z</time>
      </trkpt>
      <trkpt lat="44.33322" lon="2.67282">
        <ele>696.1318359</ele>
        <time>2014-06-15T07:42:34Z</time>
      </trkpt>
      <trkpt lat="44.33324" lon="2.67286">
        <ele>698.5349121</ele>
        <time>2014-06-15T07:42:37Z</time>
      </trkpt>
      <trkpt lat="44.33324" lon="2.67293">
        <ele>700.4580078</ele>
        <time>2014-06-15T07:42:43Z</time>
      </trkpt>
      <trkpt lat="44.33328" lon="2.67298">
        <ele>701.4191895</ele>
        <time>2014-06-15T07:42:50Z</time>
      </trkpt>
      <trkpt lat="44.33329" lon="2.67302">
        <ele>701.8999023</ele>
        <time>2014-06-15T07:42:55Z</time>
      </trkpt>
      <trkpt lat="44.3333" lon="2.67306">
        <ele>701.4191895</ele>
        <time>2014-06-15T07:42:59Z</time>
      </trkpt>
      <trkpt lat="44.33333" lon="2.67313">
        <ele>704.7836914</ele>
        <time>2014-06-15T07:43:05Z</time>
      </trkpt>
      <trkpt lat="44.33333" lon="2.67319">
        <ele>708.1484375</ele>
        <time>2014-06-15T07:43:09Z</time>
      </trkpt>
      <trkpt lat="44.33333" lon="2.67323">
        <ele>708.6289063</ele>
        <time>2014-06-15T07:43:13Z</time>
      </trkpt>
      <trkpt lat="44.33334" lon="2.67327">
        <ele>711.0322266</ele>
        <time>2014-06-15T07:43:16Z</time>
      </trkpt>
      <trkpt lat="44.33333" lon="2.67335">
        <ele>709.1096191</ele>
        <time>2014-06-15T07:43:23Z</time>
      </trkpt>
      <trkpt lat="44.33333" lon="2.67339">
        <ele>711.9936523</ele>
        <time>2014-06-15T07:43:28Z</time>
      </trkpt>
      <trkpt lat="44.33329" lon="2.67344">
        <ele>712.4741211</ele>
        <time>2014-06-15T07:43:33Z</time>
      </trkpt>
      <trkpt lat="44.33326" lon="2.67348">
        <ele>714.8774414</ele>
        <time>2014-06-15T07:43:38Z</time>
      </trkpt>
      <trkpt lat="44.33326" lon="2.67354">
        <ele>715.8388672</ele>
        <time>2014-06-15T07:43:43Z</time>
      </trkpt>
      <trkpt lat="44.33327" lon="2.6736">
        <ele>717.7614746</ele>
        <time>2014-06-15T07:43:48Z</time>
      </trkpt>
      <trkpt lat="44.33328" lon="2.67364">
        <ele>720.1647949</ele>
        <time>2014-06-15T07:43:53Z</time>
      </trkpt>
      <trkpt lat="44.33326" lon="2.6737">
        <ele>721.1262207</ele>
        <time>2014-06-15T07:43:58Z</time>
      </trkpt>
      <trkpt lat="44.33318" lon="2.67374">
        <ele>718.7229004</ele>
        <time>2014-06-15T07:44:05Z</time>
      </trkpt>
      <trkpt lat="44.33316" lon="2.67379">
        <ele>722.5681152</ele>
        <time>2014-06-15T07:44:11Z</time>
      </trkpt>
      <trkpt lat="44.33314" lon="2.67384">
        <ele>725.4519043</ele>
        <time>2014-06-15T07:44:15Z</time>
      </trkpt>
      <trkpt lat="44.33311" lon="2.6739">
        <ele>726.4133301</ele>
        <time>2014-06-15T07:44:21Z</time>
      </trkpt>
      <trkpt lat="44.33309" lon="2.67395">
        <ele>728.3359375</ele>
        <time>2014-06-15T07:44:25Z</time>
      </trkpt>
      <trkpt lat="44.33304" lon="2.67399">
        <ele>730.2585449</ele>
        <time>2014-06-15T07:44:29Z</time>
      </trkpt>
      <trkpt lat="44.33301" lon="2.67403">
        <ele>733.1425781</ele>
        <time>2014-06-15T07:44:35Z</time>
      </trkpt>
      <trkpt lat="44.3329" lon="2.67418">
        <ele>736.0266113</ele>
        <time>2014-06-15T07:44:47Z</time>
      </trkpt>
      <trkpt lat="44.33286" lon="2.67421">
        <ele>737.4685059</ele>
        <time>2014-06-15T07:44:52Z</time>
      </trkpt>
      <trkpt lat="44.3328" lon="2.67424">
        <ele>735.5458984</ele>
        <time>2014-06-15T07:44:59Z</time>
      </trkpt>
      <trkpt lat="44.33276" lon="2.67429">
        <ele>741.3137207</ele>
        <time>2014-06-15T07:45:05Z</time>
      </trkpt>
      <trkpt lat="44.33277" lon="2.67435">
        <ele>746.6010742</ele>
        <time>2014-06-15T07:45:11Z</time>
      </trkpt>
      <trkpt lat="44.33278" lon="2.67441">
        <ele>747.081543</ele>
        <time>2014-06-15T07:45:16Z</time>
      </trkpt>
      <trkpt lat="44.33281" lon="2.67454">
        <ele>750.4465332</ele>
        <time>2014-06-15T07:45:24Z</time>
      </trkpt>
      <trkpt lat="44.33281" lon="2.67465">
        <ele>752.3688965</ele>
        <time>2014-06-15T07:45:31Z</time>
      </trkpt>
      <trkpt lat="44.33281" lon="2.67468">
        <ele>752.3688965</ele>
        <time>2014-06-15T07:45:33Z</time>
      </trkpt>
      <trkpt lat="44.33278" lon="2.67477">
        <ele>751.8884277</ele>
        <time>2014-06-15T07:45:40Z</time>
      </trkpt>
      <trkpt lat="44.33268" lon="2.67476">
        <ele>749.4851074</ele>
        <time>2014-06-15T07:45:47Z</time>
      </trkpt>
      <trkpt lat="44.33264" lon="2.67475">
        <ele>750.4465332</ele>
        <time>2014-06-15T07:45:50Z</time>
      </trkpt>
      <trkpt lat="44.33259" lon="2.67473">
        <ele>749.9658203</ele>
        <time>2014-06-15T07:45:54Z</time>
      </trkpt>
      <trkpt lat="44.33251" lon="2.67473">
        <ele>751.4077148</ele>
        <time>2014-06-15T07:45:59Z</time>
      </trkpt>
      <trkpt lat="44.3325" lon="2.67474">
        <ele>751.8884277</ele>
        <time>2014-06-15T07:46:00Z</time>
      </trkpt>
      <trkpt lat="44.33239" lon="2.67487">
        <ele>753.8110352</ele>
        <time>2014-06-15T07:46:07Z</time>
      </trkpt>
      <trkpt lat="44.33236" lon="2.67493">
        <ele>754.291748</ele>
        <time>2014-06-15T07:46:10Z</time>
      </trkpt>
      <trkpt lat="44.3323" lon="2.67503">
        <ele>754.7722168</ele>
        <time>2014-06-15T07:46:15Z</time>
      </trkpt>
      <trkpt lat="44.3322" lon="2.67514">
        <ele>756.6948242</ele>
        <time>2014-06-15T07:46:22Z</time>
      </trkpt>
      <trkpt lat="44.33212" lon="2.67521">
        <ele>758.1369629</ele>
        <time>2014-06-15T07:46:26Z</time>
      </trkpt>
      <trkpt lat="44.33205" lon="2.67528">
        <ele>759.0981445</ele>
        <time>2014-06-15T07:46:30Z</time>
      </trkpt>
      <trkpt lat="44.332" lon="2.67535">
        <ele>761.020752</ele>
        <time>2014-06-15T07:46:34Z</time>
      </trkpt>
      <trkpt lat="44.33195" lon="2.67544">
        <ele>762.9433594</ele>
        <time>2014-06-15T07:46:41Z</time>
      </trkpt>
      <trkpt lat="44.33189" lon="2.67551">
        <ele>765.8276367</ele>
        <time>2014-06-15T07:46:47Z</time>
      </trkpt>
      <trkpt lat="44.33184" lon="2.67558">
        <ele>768.2307129</ele>
        <time>2014-06-15T07:46:52Z</time>
      </trkpt>
      <trkpt lat="44.33182" lon="2.67562">
        <ele>770.6340332</ele>
        <time>2014-06-15T07:46:55Z</time>
      </trkpt>
      <trkpt lat="44.33177" lon="2.67567">
        <ele>774.479248</ele>
        <time>2014-06-15T07:47:00Z</time>
      </trkpt>
      <trkpt lat="44.3317" lon="2.67569">
        <ele>774.479248</ele>
        <time>2014-06-15T07:47:05Z</time>
      </trkpt>
      <trkpt lat="44.33164" lon="2.67569">
        <ele>770.1533203</ele>
        <time>2014-06-15T07:47:09Z</time>
      </trkpt>
      <trkpt lat="44.33157" lon="2.67571">
        <ele>768.2307129</ele>
        <time>2014-06-15T07:47:15Z</time>
      </trkpt>
      <trkpt lat="44.3315" lon="2.67573">
        <ele>765.8276367</ele>
        <time>2014-06-15T07:47:20Z</time>
      </trkpt>
      <trkpt lat="44.33145" lon="2.67574">
        <ele>764.8662109</ele>
        <time>2014-06-15T07:47:25Z</time>
      </trkpt>
      <trkpt lat="44.33138" lon="2.6758">
        <ele>763.904541</ele>
        <time>2014-06-15T07:47:30Z</time>
      </trkpt>
      <trkpt lat="44.3313" lon="2.67588">
        <ele>765.8276367</ele>
        <time>2014-06-15T07:47:35Z</time>
      </trkpt>
      <trkpt lat="44.33123" lon="2.67595">
        <ele>768.7114258</ele>
        <time>2014-06-15T07:47:41Z</time>
      </trkpt>
      <trkpt lat="44.33117" lon="2.676">
        <ele>771.1147461</ele>
        <time>2014-06-15T07:47:46Z</time>
      </trkpt>
      <trkpt lat="44.3311" lon="2.67609">
        <ele>774.479248</ele>
        <time>2014-06-15T07:47:53Z</time>
      </trkpt>
      <trkpt lat="44.33105" lon="2.67612">
        <ele>775.9211426</ele>
        <time>2014-06-15T07:47:58Z</time>
      </trkpt>
      <trkpt lat="44.33095" lon="2.6762">
        <ele>775.4404297</ele>
        <time>2014-06-15T07:48:05Z</time>
      </trkpt>
      <trkpt lat="44.33086" lon="2.67626">
        <ele>774.9599609</ele>
        <time>2014-06-15T07:48:11Z</time>
      </trkpt>
      <trkpt lat="44.3308" lon="2.67631">
        <ele>775.4404297</ele>
        <time>2014-06-15T07:48:16Z</time>
      </trkpt>
      <trkpt lat="44.33073" lon="2.67637">
        <ele>776.8825684</ele>
        <time>2014-06-15T07:48:22Z</time>
      </trkpt>
      <trkpt lat="44.33069" lon="2.67645">
        <ele>779.2856445</ele>
        <time>2014-06-15T07:48:29Z</time>
      </trkpt>
      <trkpt lat="44.33065" lon="2.67652">
        <ele>781.2087402</ele>
        <time>2014-06-15T07:48:35Z</time>
      </trkpt>
      <trkpt lat="44.33059" lon="2.67662">
        <ele>781.2087402</ele>
        <time>2014-06-15T07:48:43Z</time>
      </trkpt>
      <trkpt lat="44.33058" lon="2.67663">
        <ele>781.689209</ele>
        <time>2014-06-15T07:48:44Z</time>
      </trkpt>
      <trkpt lat="44.33056" lon="2.6767">
        <ele>782.6506348</ele>
        <time>2014-06-15T07:48:48Z</time>
      </trkpt>
      <trkpt lat="44.33055" lon="2.67683">
        <ele>785.0539551</ele>
        <time>2014-06-15T07:48:56Z</time>
      </trkpt>
      <trkpt lat="44.33053" lon="2.67694">
        <ele>786.4958496</ele>
        <time>2014-06-15T07:49:01Z</time>
      </trkpt>
      <trkpt lat="44.33049" lon="2.67705">
        <ele>788.418457</ele>
        <time>2014-06-15T07:49:05Z</time>
      </trkpt>
      <trkpt lat="44.33042" lon="2.67711">
        <ele>789.3796387</ele>
        <time>2014-06-15T07:49:09Z</time>
      </trkpt>
      <trkpt lat="44.33031" lon="2.6772">
        <ele>790.8215332</ele>
        <time>2014-06-15T07:49:15Z</time>
      </trkpt>
      <trkpt lat="44.3302" lon="2.67727">
        <ele>789.8603516</ele>
        <time>2014-06-15T07:49:21Z</time>
      </trkpt>
      <trkpt lat="44.33013" lon="2.67734">
        <ele>788.8991699</ele>
        <time>2014-06-15T07:49:25Z</time>
      </trkpt>
      <trkpt lat="44.33003" lon="2.67751">
        <ele>790.3410645</ele>
        <time>2014-06-15T07:49:32Z</time>
      </trkpt>
      <trkpt lat="44.32998" lon="2.67765">
        <ele>792.7443848</ele>
        <time>2014-06-15T07:49:37Z</time>
      </trkpt>
      <trkpt lat="44.32996" lon="2.6778">
        <ele>793.7055664</ele>
        <time>2014-06-15T07:49:42Z</time>
      </trkpt>
      <trkpt lat="44.32995" lon="2.67783">
        <ele>792.7443848</ele>
        <time>2014-06-15T07:49:48Z</time>
      </trkpt>
      <trkpt lat="44.32997" lon="2.67787">
        <ele>795.1474609</ele>
        <time>2014-06-15T07:49:56Z</time>
      </trkpt>
      <trkpt lat="44.32996" lon="2.67791">
        <ele>794.1862793</ele>
        <time>2014-06-15T07:50:01Z</time>
      </trkpt>
      <trkpt lat="44.32998" lon="2.67806">
        <ele>794.1862793</ele>
        <time>2014-06-15T07:50:08Z</time>
      </trkpt>
      <trkpt lat="44.32999" lon="2.67818">
        <ele>795.1474609</ele>
        <time>2014-06-15T07:50:12Z</time>
      </trkpt>
      <trkpt lat="44.33002" lon="2.6783">
        <ele>796.1091309</ele>
        <time>2014-06-15T07:50:16Z</time>
      </trkpt>
      <trkpt lat="44.33006" lon="2.67841">
        <ele>796.1091309</ele>
        <time>2014-06-15T07:50:20Z</time>
      </trkpt>
      <trkpt lat="44.33007" lon="2.67844">
        <ele>796.1091309</ele>
        <time>2014-06-15T07:50:21Z</time>
      </trkpt>
      <trkpt lat="44.33013" lon="2.6786">
        <ele>797.0703125</ele>
        <time>2014-06-15T07:50:27Z</time>
      </trkpt>
      <trkpt lat="44.33016" lon="2.67865">
        <ele>796.5898438</ele>
        <time>2014-06-15T07:50:29Z</time>
      </trkpt>
      <trkpt lat="44.33017" lon="2.67874">
        <ele>797.5510254</ele>
        <time>2014-06-15T07:50:36Z</time>
      </trkpt>
      <trkpt lat="44.33017" lon="2.67875">
        <ele>797.0703125</ele>
        <time>2014-06-15T07:50:37Z</time>
      </trkpt>
      <trkpt lat="44.33016" lon="2.67886">
        <ele>797.5510254</ele>
        <time>2014-06-15T07:50:46Z</time>
      </trkpt>
      <trkpt lat="44.33015" lon="2.67895">
        <ele>797.5510254</ele>
        <time>2014-06-15T07:50:52Z</time>
      </trkpt>
      <trkpt lat="44.33015" lon="2.67899">
        <ele>797.5510254</ele>
        <time>2014-06-15T07:50:56Z</time>
      </trkpt>
      <trkpt lat="44.33012" lon="2.67913">
        <ele>798.512207</ele>
        <time>2014-06-15T07:51:04Z</time>
      </trkpt>
      <trkpt lat="44.33011" lon="2.67923">
        <ele>798.0317383</ele>
        <time>2014-06-15T07:51:11Z</time>
      </trkpt>
      <trkpt lat="44.33011" lon="2.67935">
        <ele>797.0703125</ele>
        <time>2014-06-15T07:51:18Z</time>
      </trkpt>
      <trkpt lat="44.3301" lon="2.6794">
        <ele>797.0703125</ele>
        <time>2014-06-15T07:51:21Z</time>
      </trkpt>
      <trkpt lat="44.33011" lon="2.67947">
        <ele>796.5898438</ele>
        <time>2014-06-15T07:51:25Z</time>
      </trkpt>
      <trkpt lat="44.33011" lon="2.67955">
        <ele>797.5510254</ele>
        <time>2014-06-15T07:51:33Z</time>
      </trkpt>
      <trkpt lat="44.3301" lon="2.67959">
        <ele>800.4350586</ele>
        <time>2014-06-15T07:51:41Z</time>
      </trkpt>
      <trkpt lat="44.33011" lon="2.67964">
        <ele>800.9155273</ele>
        <time>2014-06-15T07:51:44Z</time>
      </trkpt>
      <trkpt lat="44.33012" lon="2.67973">
        <ele>802.3574219</ele>
        <time>2014-06-15T07:51:49Z</time>
      </trkpt>
      <trkpt lat="44.33014" lon="2.6798">
        <ele>801.8769531</ele>
        <time>2014-06-15T07:51:54Z</time>
      </trkpt>
      <trkpt lat="44.33016" lon="2.67984">
        <ele>801.3962402</ele>
        <time>2014-06-15T07:51:57Z</time>
      </trkpt>
      <trkpt lat="44.3302" lon="2.67999">
        <ele>799.4736328</ele>
        <time>2014-06-15T07:52:03Z</time>
      </trkpt>
      <trkpt lat="44.33025" lon="2.68009">
        <ele>798.9929199</ele>
        <time>2014-06-15T07:52:07Z</time>
      </trkpt>
      <trkpt lat="44.3303" lon="2.68025">
        <ele>797.0703125</ele>
        <time>2014-06-15T07:52:12Z</time>
      </trkpt>
      <trkpt lat="44.33036" lon="2.68039">
        <ele>795.6281738</ele>
        <time>2014-06-15T07:52:17Z</time>
      </trkpt>
      <trkpt lat="44.33043" lon="2.68052">
        <ele>792.7443848</ele>
        <time>2014-06-15T07:52:22Z</time>
      </trkpt>
      <trkpt lat="44.33046" lon="2.68068">
        <ele>790.8215332</ele>
        <time>2014-06-15T07:52:27Z</time>
      </trkpt>
      <trkpt lat="44.33053" lon="2.68088">
        <ele>790.8215332</ele>
        <time>2014-06-15T07:52:33Z</time>
      </trkpt>
      <trkpt lat="44.33058" lon="2.68106">
        <ele>789.3796387</ele>
        <time>2014-06-15T07:52:39Z</time>
      </trkpt>
      <trkpt lat="44.33063" lon="2.68122">
        <ele>787.4570313</ele>
        <time>2014-06-15T07:52:44Z</time>
      </trkpt>
      <trkpt lat="44.33066" lon="2.6813">
        <ele>786.4958496</ele>
        <time>2014-06-15T07:52:47Z</time>
      </trkpt>
      <trkpt lat="44.33067" lon="2.68137">
        <ele>786.4958496</ele>
        <time>2014-06-15T07:52:49Z</time>
      </trkpt>
      <trkpt lat="44.33073" lon="2.68154">
        <ele>786.0151367</ele>
        <time>2014-06-15T07:52:54Z</time>
      </trkpt>
      <trkpt lat="44.33076" lon="2.68164">
        <ele>785.0539551</ele>
        <time>2014-06-15T07:52:57Z</time>
      </trkpt>
      <trkpt lat="44.3308" lon="2.68173">
        <ele>785.5344238</ele>
        <time>2014-06-15T07:53:00Z</time>
      </trkpt>
      <trkpt lat="44.33089" lon="2.68189">
        <ele>788.8991699</ele>
        <time>2014-06-15T07:53:05Z</time>
      </trkpt>
      <trkpt lat="44.33094" lon="2.6821">
        <ele>795.1474609</ele>
        <time>2014-06-15T07:53:11Z</time>
      </trkpt>
      <trkpt lat="44.33094" lon="2.68226">
        <ele>798.512207</ele>
        <time>2014-06-15T07:53:16Z</time>
      </trkpt>
      <trkpt lat="44.33087" lon="2.68235">
        <ele>798.512207</ele>
        <time>2014-06-15T07:53:20Z</time>
      </trkpt>
      <trkpt lat="44.33078" lon="2.68239">
        <ele>798.0317383</ele>
        <time>2014-06-15T07:53:24Z</time>
      </trkpt>
      <trkpt lat="44.33065" lon="2.68247">
        <ele>797.0703125</ele>
        <time>2014-06-15T07:53:30Z</time>
      </trkpt>
      <trkpt lat="44.33059" lon="2.68257">
        <ele>795.6281738</ele>
        <time>2014-06-15T07:53:34Z</time>
      </trkpt>
      <trkpt lat="44.33055" lon="2.68269">
        <ele>795.6281738</ele>
        <time>2014-06-15T07:53:38Z</time>
      </trkpt>
      <trkpt lat="44.33051" lon="2.6828">
        <ele>796.1091309</ele>
        <time>2014-06-15T07:53:42Z</time>
      </trkpt>
      <trkpt lat="44.3305" lon="2.68295">
        <ele>798.512207</ele>
        <time>2014-06-15T07:53:47Z</time>
      </trkpt>
      <trkpt lat="44.33052" lon="2.68309">
        <ele>798.9929199</ele>
        <time>2014-06-15T07:53:52Z</time>
      </trkpt>
      <trkpt lat="44.33055" lon="2.68324">
        <ele>800.4350586</ele>
        <time>2014-06-15T07:53:57Z</time>
      </trkpt>
      <trkpt lat="44.33058" lon="2.68336">
        <ele>801.3962402</ele>
        <time>2014-06-15T07:54:01Z</time>
      </trkpt>
      <trkpt lat="44.33062" lon="2.68343">
        <ele>799.9543457</ele>
        <time>2014-06-15T07:54:05Z</time>
      </trkpt>
      <trkpt lat="44.33064" lon="2.6835">
        <ele>799.4736328</ele>
        <time>2014-06-15T07:54:11Z</time>
      </trkpt>
      <trkpt lat="44.33068" lon="2.68361">
        <ele>798.512207</ele>
        <time>2014-06-15T07:54:19Z</time>
      </trkpt>
      <trkpt lat="44.3307" lon="2.68364">
        <ele>798.0317383</ele>
        <time>2014-06-15T07:54:22Z</time>
      </trkpt>
      <trkpt lat="44.33073" lon="2.6837">
        <ele>798.512207</ele>
        <time>2014-06-15T07:54:31Z</time>
      </trkpt>
      <trkpt lat="44.33073" lon="2.68371">
        <ele>799.4736328</ele>
        <time>2014-06-15T07:54:42Z</time>
      </trkpt>
      <trkpt lat="44.33072" lon="2.68371">
        <ele>798.9929199</ele>
        <time>2014-06-15T07:55:01Z</time>
      </trkpt>
      <trkpt lat="44.33072" lon="2.68369">
        <ele>796.5898438</ele>
        <time>2014-06-15T07:55:27Z</time>
      </trkpt>
      <trkpt lat="44.33074" lon="2.68375">
        <ele>797.0703125</ele>
        <time>2014-06-15T07:55:31Z</time>
      </trkpt>
      <trkpt lat="44.3308" lon="2.68384">
        <ele>798.512207</ele>
        <time>2014-06-15T07:55:39Z</time>
      </trkpt>
      <trkpt lat="44.33083" lon="2.68389">
        <ele>799.4736328</ele>
        <time>2014-06-15T07:55:45Z</time>
      </trkpt>
      <trkpt lat="44.33087" lon="2.68391">
        <ele>801.3962402</ele>
        <time>2014-06-15T07:55:52Z</time>
      </trkpt>
      <trkpt lat="44.33087" lon="2.68395">
        <ele>803.3188477</ele>
        <time>2014-06-15T07:56:00Z</time>
      </trkpt>
      <trkpt lat="44.33089" lon="2.68402">
        <ele>802.8381348</ele>
        <time>2014-06-15T07:56:08Z</time>
      </trkpt>
      <trkpt lat="44.33092" lon="2.68409">
        <ele>800.9155273</ele>
        <time>2014-06-15T07:56:15Z</time>
      </trkpt>
      <trkpt lat="44.33096" lon="2.68414">
        <ele>801.8769531</ele>
        <time>2014-06-15T07:56:20Z</time>
      </trkpt>
      <trkpt lat="44.33099" lon="2.6842">
        <ele>800.9155273</ele>
        <time>2014-06-15T07:56:24Z</time>
      </trkpt>
      <trkpt lat="44.33108" lon="2.68432">
        <ele>800.4350586</ele>
        <time>2014-06-15T07:56:34Z</time>
      </trkpt>
      <trkpt lat="44.3312" lon="2.68444">
        <ele>799.9543457</ele>
        <time>2014-06-15T07:56:40Z</time>
      </trkpt>
      <trkpt lat="44.3313" lon="2.68456">
        <ele>799.4736328</ele>
        <time>2014-06-15T07:56:46Z</time>
      </trkpt>
      <trkpt lat="44.33142" lon="2.68468">
        <ele>798.9929199</ele>
        <time>2014-06-15T07:56:53Z</time>
      </trkpt>
      <trkpt lat="44.3315" lon="2.68475">
        <ele>798.9929199</ele>
        <time>2014-06-15T07:56:57Z</time>
      </trkpt>
      <trkpt lat="44.33158" lon="2.68485">
        <ele>799.4736328</ele>
        <time>2014-06-15T07:57:02Z</time>
      </trkpt>
      <trkpt lat="44.33167" lon="2.68498">
        <ele>799.4736328</ele>
        <time>2014-06-15T07:57:08Z</time>
      </trkpt>
      <trkpt lat="44.33176" lon="2.68508">
        <ele>800.4350586</ele>
        <time>2014-06-15T07:57:13Z</time>
      </trkpt>
      <trkpt lat="44.33183" lon="2.68519">
        <ele>799.9543457</ele>
        <time>2014-06-15T07:57:18Z</time>
      </trkpt>
      <trkpt lat="44.33192" lon="2.6853">
        <ele>800.9155273</ele>
        <time>2014-06-15T07:57:23Z</time>
      </trkpt>
      <trkpt lat="44.332" lon="2.6854">
        <ele>800.4350586</ele>
        <time>2014-06-15T07:57:28Z</time>
      </trkpt>
      <trkpt lat="44.33207" lon="2.68551">
        <ele>800.9155273</ele>
        <time>2014-06-15T07:57:33Z</time>
      </trkpt>
      <trkpt lat="44.33217" lon="2.68561">
        <ele>802.8381348</ele>
        <time>2014-06-15T07:57:38Z</time>
      </trkpt>
      <trkpt lat="44.33224" lon="2.6857">
        <ele>803.3188477</ele>
        <time>2014-06-15T07:57:43Z</time>
      </trkpt>
      <trkpt lat="44.33234" lon="2.6858">
        <ele>804.2802734</ele>
        <time>2014-06-15T07:57:49Z</time>
      </trkpt>
      <trkpt lat="44.33237" lon="2.68583">
        <ele>805.2414551</ele>
        <time>2014-06-15T07:57:51Z</time>
      </trkpt>
      <trkpt lat="44.33248" lon="2.68593">
        <ele>807.6447754</ele>
        <time>2014-06-15T07:57:57Z</time>
      </trkpt>
      <trkpt lat="44.33256" lon="2.68604">
        <ele>807.6447754</ele>
        <time>2014-06-15T07:58:03Z</time>
      </trkpt>
      <trkpt lat="44.33268" lon="2.68618">
        <ele>810.5285645</ele>
        <time>2014-06-15T07:58:09Z</time>
      </trkpt>
      <trkpt lat="44.33279" lon="2.68631">
        <ele>812.9321289</ele>
        <time>2014-06-15T07:58:15Z</time>
      </trkpt>
      <trkpt lat="44.33288" lon="2.68647">
        <ele>814.3740234</ele>
        <time>2014-06-15T07:58:21Z</time>
      </trkpt>
      <trkpt lat="44.33293" lon="2.68657">
        <ele>813.8933105</ele>
        <time>2014-06-15T07:58:25Z</time>
      </trkpt>
      <trkpt lat="44.33303" lon="2.68671">
        <ele>812.9321289</ele>
        <time>2014-06-15T07:58:31Z</time>
      </trkpt>
      <trkpt lat="44.33312" lon="2.68685">
        <ele>813.4128418</ele>
        <time>2014-06-15T07:58:37Z</time>
      </trkpt>
      <trkpt lat="44.33318" lon="2.68698">
        <ele>812.451416</ele>
        <time>2014-06-15T07:58:42Z</time>
      </trkpt>
      <trkpt lat="44.33322" lon="2.68709">
        <ele>811.0092773</ele>
        <time>2014-06-15T07:58:46Z</time>
      </trkpt>
      <trkpt lat="44.33328" lon="2.68723">
        <ele>810.0478516</ele>
        <time>2014-06-15T07:58:51Z</time>
      </trkpt>
      <trkpt lat="44.3333" lon="2.68726">
        <ele>809.5673828</ele>
        <time>2014-06-15T07:58:52Z</time>
      </trkpt>
      <trkpt lat="44.33332" lon="2.68733">
        <ele>809.5673828</ele>
        <time>2014-06-15T07:58:54Z</time>
      </trkpt>
      <trkpt lat="44.33341" lon="2.68749">
        <ele>807.6447754</ele>
        <time>2014-06-15T07:59:00Z</time>
      </trkpt>
      <trkpt lat="44.33346" lon="2.6876">
        <ele>806.6833496</ele>
        <time>2014-06-15T07:59:04Z</time>
      </trkpt>
      <trkpt lat="44.3335" lon="2.68766">
        <ele>807.6447754</ele>
        <time>2014-06-15T07:59:06Z</time>
      </trkpt>
      <trkpt lat="44.33354" lon="2.68775">
        <ele>807.6447754</ele>
        <time>2014-06-15T07:59:09Z</time>
      </trkpt>
      <trkpt lat="44.33362" lon="2.6879">
        <ele>808.1254883</ele>
        <time>2014-06-15T07:59:14Z</time>
      </trkpt>
      <trkpt lat="44.33365" lon="2.68798">
        <ele>809.0866699</ele>
        <time>2014-06-15T07:59:16Z</time>
      </trkpt>
      <trkpt lat="44.33369" lon="2.68812">
        <ele>811.0092773</ele>
        <time>2014-06-15T07:59:21Z</time>
      </trkpt>
      <trkpt lat="44.33375" lon="2.68826">
        <ele>811.0092773</ele>
        <time>2014-06-15T07:59:26Z</time>
      </trkpt>
      <trkpt lat="44.3338" lon="2.68837">
        <ele>811.9707031</ele>
        <time>2014-06-15T07:59:30Z</time>
      </trkpt>
      <trkpt lat="44.33389" lon="2.68858">
        <ele>813.8933105</ele>
        <time>2014-06-15T07:59:37Z</time>
      </trkpt>
      <trkpt lat="44.33396" lon="2.68876">
        <ele>812.9321289</ele>
        <time>2014-06-15T07:59:43Z</time>
      </trkpt>
      <trkpt lat="44.33401" lon="2.68885">
        <ele>812.451416</ele>
        <time>2014-06-15T07:59:47Z</time>
      </trkpt>
      <trkpt lat="44.33407" lon="2.68899">
        <ele>811.9707031</ele>
        <time>2014-06-15T07:59:52Z</time>
      </trkpt>
      <trkpt lat="44.33411" lon="2.68907">
        <ele>811.4899902</ele>
        <time>2014-06-15T07:59:55Z</time>
      </trkpt>
      <trkpt lat="44.33417" lon="2.68918">
        <ele>811.4899902</ele>
        <time>2014-06-15T07:59:59Z</time>
      </trkpt>
      <trkpt lat="44.33422" lon="2.68926">
        <ele>811.9707031</ele>
        <time>2014-06-15T08:00:02Z</time>
      </trkpt>
      <trkpt lat="44.3343" lon="2.68942">
        <ele>811.9707031</ele>
        <time>2014-06-15T08:00:08Z</time>
      </trkpt>
      <trkpt lat="44.33436" lon="2.68957">
        <ele>810.5285645</ele>
        <time>2014-06-15T08:00:13Z</time>
      </trkpt>
      <trkpt lat="44.33439" lon="2.68963">
        <ele>810.5285645</ele>
        <time>2014-06-15T08:00:15Z</time>
      </trkpt>
      <trkpt lat="44.33448" lon="2.6898">
        <ele>811.0092773</ele>
        <time>2014-06-15T08:00:21Z</time>
      </trkpt>
      <trkpt lat="44.33455" lon="2.68995">
        <ele>811.4899902</ele>
        <time>2014-06-15T08:00:26Z</time>
      </trkpt>
      <trkpt lat="44.33461" lon="2.6901">
        <ele>812.451416</ele>
        <time>2014-06-15T08:00:31Z</time>
      </trkpt>
      <trkpt lat="44.33467" lon="2.69024">
        <ele>814.3740234</ele>
        <time>2014-06-15T08:00:35Z</time>
      </trkpt>
      <trkpt lat="44.33475" lon="2.69041">
        <ele>815.8161621</ele>
        <time>2014-06-15T08:00:40Z</time>
      </trkpt>
      <trkpt lat="44.33475" lon="2.69045">
        <ele>815.8161621</ele>
        <time>2014-06-15T08:00:41Z</time>
      </trkpt>
      <trkpt lat="44.33482" lon="2.69064">
        <ele>818.6999512</ele>
        <time>2014-06-15T08:00:47Z</time>
      </trkpt>
      <trkpt lat="44.33485" lon="2.69076">
        <ele>820.1418457</ele>
        <time>2014-06-15T08:00:51Z</time>
      </trkpt>
      <trkpt lat="44.33488" lon="2.69101">
        <ele>820.6225586</ele>
        <time>2014-06-15T08:00:59Z</time>
      </trkpt>
      <trkpt lat="44.33489" lon="2.69121">
        <ele>821.1032715</ele>
        <time>2014-06-15T08:01:05Z</time>
      </trkpt>
      <trkpt lat="44.33489" lon="2.69124">
        <ele>821.1032715</ele>
        <time>2014-06-15T08:01:06Z</time>
      </trkpt>
      <trkpt lat="44.33494" lon="2.69143">
        <ele>822.545166</ele>
        <time>2014-06-15T08:01:12Z</time>
      </trkpt>
      <trkpt lat="44.33497" lon="2.69159">
        <ele>823.9870605</ele>
        <time>2014-06-15T08:01:17Z</time>
      </trkpt>
      <trkpt lat="44.33498" lon="2.69176">
        <ele>824.9484863</ele>
        <time>2014-06-15T08:01:22Z</time>
      </trkpt>
      <trkpt lat="44.33502" lon="2.69198">
        <ele>826.8710938</ele>
        <time>2014-06-15T08:01:29Z</time>
      </trkpt>
      <trkpt lat="44.33505" lon="2.69219">
        <ele>826.8710938</ele>
        <time>2014-06-15T08:01:35Z</time>
      </trkpt>
      <trkpt lat="44.33505" lon="2.69237">
        <ele>827.8322754</ele>
        <time>2014-06-15T08:01:40Z</time>
      </trkpt>
      <trkpt lat="44.33507" lon="2.69256">
        <ele>829.2744141</ele>
        <time>2014-06-15T08:01:45Z</time>
      </trkpt>
      <trkpt lat="44.33506" lon="2.69273">
        <ele>827.8322754</ele>
        <time>2014-06-15T08:01:50Z</time>
      </trkpt>
      <trkpt lat="44.33507" lon="2.6929">
        <ele>826.8710938</ele>
        <time>2014-06-15T08:01:55Z</time>
      </trkpt>
      <trkpt lat="44.33507" lon="2.69304">
        <ele>825.909668</ele>
        <time>2014-06-15T08:01:59Z</time>
      </trkpt>
      <trkpt lat="44.33507" lon="2.69322">
        <ele>824.9484863</ele>
        <time>2014-06-15T08:02:04Z</time>
      </trkpt>
      <trkpt lat="44.33506" lon="2.69336">
        <ele>823.9870605</ele>
        <time>2014-06-15T08:02:08Z</time>
      </trkpt>
      <trkpt lat="44.33506" lon="2.6935">
        <ele>823.9870605</ele>
        <time>2014-06-15T08:02:12Z</time>
      </trkpt>
      <trkpt lat="44.33507" lon="2.69372">
        <ele>822.545166</ele>
        <time>2014-06-15T08:02:18Z</time>
      </trkpt>
      <trkpt lat="44.33507" lon="2.69385">
        <ele>822.0644531</ele>
        <time>2014-06-15T08:02:22Z</time>
      </trkpt>
      <trkpt lat="44.33508" lon="2.694">
        <ele>821.1032715</ele>
        <time>2014-06-15T08:02:26Z</time>
      </trkpt>
      <trkpt lat="44.33506" lon="2.69407">
        <ele>821.1032715</ele>
        <time>2014-06-15T08:02:28Z</time>
      </trkpt>
      <trkpt lat="44.33505" lon="2.69429">
        <ele>821.1032715</ele>
        <time>2014-06-15T08:02:33Z</time>
      </trkpt>
      <trkpt lat="44.33504" lon="2.69443">
        <ele>819.1806641</ele>
        <time>2014-06-15T08:02:37Z</time>
      </trkpt>
      <trkpt lat="44.33501" lon="2.69462">
        <ele>815.8161621</ele>
        <time>2014-06-15T08:02:42Z</time>
      </trkpt>
      <trkpt lat="44.335" lon="2.69478">
        <ele>814.8547363</ele>
        <time>2014-06-15T08:02:47Z</time>
      </trkpt>
      <trkpt lat="44.33494" lon="2.69495">
        <ele>814.3740234</ele>
        <time>2014-06-15T08:02:52Z</time>
      </trkpt>
      <trkpt lat="44.33486" lon="2.69511">
        <ele>811.9707031</ele>
        <time>2014-06-15T08:02:58Z</time>
      </trkpt>
      <trkpt lat="44.33485" lon="2.69515">
        <ele>811.9707031</ele>
        <time>2014-06-15T08:02:59Z</time>
      </trkpt>
      <trkpt lat="44.33488" lon="2.69521">
        <ele>811.0092773</ele>
        <time>2014-06-15T08:03:01Z</time>
      </trkpt>
      <trkpt lat="44.33497" lon="2.69528">
        <ele>811.9707031</ele>
        <time>2014-06-15T08:03:05Z</time>
      </trkpt>
      <trkpt lat="44.3351" lon="2.69537">
        <ele>811.9707031</ele>
        <time>2014-06-15T08:03:10Z</time>
      </trkpt>
      <trkpt lat="44.33522" lon="2.69548">
        <ele>811.9707031</ele>
        <time>2014-06-15T08:03:16Z</time>
      </trkpt>
      <trkpt lat="44.33532" lon="2.69556">
        <ele>813.4128418</ele>
        <time>2014-06-15T08:03:21Z</time>
      </trkpt>
      <trkpt lat="44.33538" lon="2.69562">
        <ele>813.4128418</ele>
        <time>2014-06-15T08:03:24Z</time>
      </trkpt>
      <trkpt lat="44.33546" lon="2.6957">
        <ele>813.8933105</ele>
        <time>2014-06-15T08:03:28Z</time>
      </trkpt>
      <trkpt lat="44.33562" lon="2.69574">
        <ele>815.8161621</ele>
        <time>2014-06-15T08:03:34Z</time>
      </trkpt>
      <trkpt lat="44.33574" lon="2.69569">
        <ele>818.2192383</ele>
        <time>2014-06-15T08:03:39Z</time>
      </trkpt>
      <trkpt lat="44.33585" lon="2.69563">
        <ele>818.6999512</ele>
        <time>2014-06-15T08:03:44Z</time>
      </trkpt>
      <trkpt lat="44.33601" lon="2.69555">
        <ele>820.1418457</ele>
        <time>2014-06-15T08:03:49Z</time>
      </trkpt>
      <trkpt lat="44.33609" lon="2.69551">
        <ele>821.1032715</ele>
        <time>2014-06-15T08:03:52Z</time>
      </trkpt>
      <trkpt lat="44.33628" lon="2.69552">
        <ele>826.8710938</ele>
        <time>2014-06-15T08:03:59Z</time>
      </trkpt>
      <trkpt lat="44.33644" lon="2.69563">
        <ele>816.2966309</ele>
        <time>2014-06-15T08:04:05Z</time>
      </trkpt>
      <trkpt lat="44.33652" lon="2.69572">
        <ele>814.3740234</ele>
        <time>2014-06-15T08:04:09Z</time>
      </trkpt>
      <trkpt lat="44.33665" lon="2.69581">
        <ele>810.0478516</ele>
        <time>2014-06-15T08:04:14Z</time>
      </trkpt>
      <trkpt lat="44.3367" lon="2.69582">
        <ele>810.0478516</ele>
        <time>2014-06-15T08:04:16Z</time>
      </trkpt>
      <trkpt lat="44.33692" lon="2.69578">
        <ele>808.1254883</ele>
        <time>2014-06-15T08:04:23Z</time>
      </trkpt>
      <trkpt lat="44.33702" lon="2.69573">
        <ele>808.1254883</ele>
        <time>2014-06-15T08:04:27Z</time>
      </trkpt>
      <trkpt lat="44.33717" lon="2.69565">
        <ele>808.1254883</ele>
        <time>2014-06-15T08:04:34Z</time>
      </trkpt>
      <trkpt lat="44.33734" lon="2.69562">
        <ele>809.0866699</ele>
        <time>2014-06-15T08:04:39Z</time>
      </trkpt>
      <trkpt lat="44.33752" lon="2.69561">
        <ele>805.722168</ele>
        <time>2014-06-15T08:04:44Z</time>
      </trkpt>
      <trkpt lat="44.33767" lon="2.6956">
        <ele>802.8381348</ele>
        <time>2014-06-15T08:04:49Z</time>
      </trkpt>
      <trkpt lat="44.33783" lon="2.69558">
        <ele>801.8769531</ele>
        <time>2014-06-15T08:04:54Z</time>
      </trkpt>
      <trkpt lat="44.33796" lon="2.69558">
        <ele>801.3962402</ele>
        <time>2014-06-15T08:04:59Z</time>
      </trkpt>
      <trkpt lat="44.33816" lon="2.69571">
        <ele>797.5510254</ele>
        <time>2014-06-15T08:05:05Z</time>
      </trkpt>
      <trkpt lat="44.33828" lon="2.69583">
        <ele>793.7055664</ele>
        <time>2014-06-15T08:05:10Z</time>
      </trkpt>
      <trkpt lat="44.33834" lon="2.69588">
        <ele>792.2636719</ele>
        <time>2014-06-15T08:05:13Z</time>
      </trkpt>
      <trkpt lat="44.33848" lon="2.69594">
        <ele>789.8603516</ele>
        <time>2014-06-15T08:05:19Z</time>
      </trkpt>
      <trkpt lat="44.33859" lon="2.69596">
        <ele>788.8991699</ele>
        <time>2014-06-15T08:05:24Z</time>
      </trkpt>
      <trkpt lat="44.33872" lon="2.69597">
        <ele>789.8603516</ele>
        <time>2014-06-15T08:05:29Z</time>
      </trkpt>
      <trkpt lat="44.3389" lon="2.69595">
        <ele>788.418457</ele>
        <time>2014-06-15T08:05:35Z</time>
      </trkpt>
      <trkpt lat="44.33903" lon="2.69586">
        <ele>783.6118164</ele>
        <time>2014-06-15T08:05:40Z</time>
      </trkpt>
      <trkpt lat="44.33908" lon="2.69574">
        <ele>778.8051758</ele>
        <time>2014-06-15T08:05:44Z</time>
      </trkpt>
      <trkpt lat="44.33911" lon="2.6956">
        <ele>774.479248</ele>
        <time>2014-06-15T08:05:48Z</time>
      </trkpt>
      <trkpt lat="44.33916" lon="2.69546">
        <ele>771.5952148</ele>
        <time>2014-06-15T08:05:52Z</time>
      </trkpt>
      <trkpt lat="44.33921" lon="2.6953">
        <ele>768.2307129</ele>
        <time>2014-06-15T08:05:56Z</time>
      </trkpt>
      <trkpt lat="44.33925" lon="2.69513">
        <ele>764.385498</ele>
        <time>2014-06-15T08:06:01Z</time>
      </trkpt>
      <trkpt lat="44.33923" lon="2.69499">
        <ele>761.5014648</ele>
        <time>2014-06-15T08:06:05Z</time>
      </trkpt>
      <trkpt lat="44.33921" lon="2.69483">
        <ele>760.0593262</ele>
        <time>2014-06-15T08:06:10Z</time>
      </trkpt>
      <trkpt lat="44.33917" lon="2.69464">
        <ele>758.6174316</ele>
        <time>2014-06-15T08:06:15Z</time>
      </trkpt>
      <trkpt lat="44.33915" lon="2.69457">
        <ele>759.0981445</ele>
        <time>2014-06-15T08:06:17Z</time>
      </trkpt>
      <trkpt lat="44.33913" lon="2.6944">
        <ele>757.65625</ele>
        <time>2014-06-15T08:06:21Z</time>
      </trkpt>
      <trkpt lat="44.33905" lon="2.69415">
        <ele>753.8110352</ele>
        <time>2014-06-15T08:06:27Z</time>
      </trkpt>
      <trkpt lat="44.33905" lon="2.69407">
        <ele>753.3303223</ele>
        <time>2014-06-15T08:06:29Z</time>
      </trkpt>
      <trkpt lat="44.33919" lon="2.69391">
        <ele>752.8496094</ele>
        <time>2014-06-15T08:06:35Z</time>
      </trkpt>
      <trkpt lat="44.33922" lon="2.69389">
        <ele>753.8110352</ele>
        <time>2014-06-15T08:06:36Z</time>
      </trkpt>
      <trkpt lat="44.33941" lon="2.69381">
        <ele>757.1755371</ele>
        <time>2014-06-15T08:06:43Z</time>
      </trkpt>
      <trkpt lat="44.33952" lon="2.69379">
        <ele>758.1369629</ele>
        <time>2014-06-15T08:06:47Z</time>
      </trkpt>
      <trkpt lat="44.33957" lon="2.69379">
        <ele>759.0981445</ele>
        <time>2014-06-15T08:06:49Z</time>
      </trkpt>
      <trkpt lat="44.33974" lon="2.69378">
        <ele>762.4626465</ele>
        <time>2014-06-15T08:06:55Z</time>
      </trkpt>
      <trkpt lat="44.33988" lon="2.69376">
        <ele>763.904541</ele>
        <time>2014-06-15T08:06:58Z</time>
      </trkpt>
      <trkpt lat="44.34005" lon="2.69369">
        <ele>759.0981445</ele>
        <time>2014-06-15T08:07:03Z</time>
      </trkpt>
      <trkpt lat="44.34017" lon="2.6936">
        <ele>750.4465332</ele>
        <time>2014-06-15T08:07:08Z</time>
      </trkpt>
      <trkpt lat="44.34015" lon="2.69361">
        <ele>744.6782227</ele>
        <time>2014-06-15T08:07:13Z</time>
      </trkpt>
      <trkpt lat="44.34015" lon="2.69361">
        <ele>743.2363281</ele>
        <time>2014-06-15T08:07:19Z</time>
      </trkpt>
      <trkpt lat="44.34012" lon="2.69358">
        <ele>742.2751465</ele>
        <time>2014-06-15T08:07:29Z</time>
      </trkpt>
      <trkpt lat="44.34008" lon="2.69351">
        <ele>744.1977539</ele>
        <time>2014-06-15T08:07:37Z</time>
      </trkpt>
      <trkpt lat="44.34007" lon="2.69353">
        <ele>745.6396484</ele>
        <time>2014-06-15T08:07:43Z</time>
      </trkpt>
      <trkpt lat="44.34007" lon="2.69357">
        <ele>746.6010742</ele>
        <time>2014-06-15T08:07:56Z</time>
      </trkpt>
      <trkpt lat="44.34006" lon="2.69357">
        <ele>746.1203613</ele>
        <time>2014-06-15T08:07:57Z</time>
      </trkpt>
      <trkpt lat="44.34005" lon="2.69358">
        <ele>745.6396484</ele>
        <time>2014-06-15T08:08:03Z</time>
      </trkpt>
      <trkpt lat="44.34004" lon="2.6936">
        <ele>746.1203613</ele>
        <time>2014-06-15T08:08:11Z</time>
      </trkpt>
      <trkpt lat="44.34002" lon="2.6936">
        <ele>745.6396484</ele>
        <time>2014-06-15T08:08:13Z</time>
      </trkpt>
      <trkpt lat="44.34" lon="2.69359">
        <ele>746.6010742</ele>
        <time>2014-06-15T08:08:24Z</time>
      </trkpt>
      <trkpt lat="44.34004" lon="2.69357">
        <ele>755.7336426</ele>
        <time>2014-06-15T08:08:42Z</time>
      </trkpt>
      <trkpt lat="44.34006" lon="2.69357">
        <ele>760.0593262</ele>
        <time>2014-06-15T08:08:50Z</time>
      </trkpt>
      <trkpt lat="44.34008" lon="2.69356">
        <ele>757.65625</ele>
        <time>2014-06-15T08:09:01Z</time>
      </trkpt>
      <trkpt lat="44.34013" lon="2.69357">
        <ele>759.0981445</ele>
        <time>2014-06-15T08:09:19Z</time>
      </trkpt>
      <trkpt lat="44.3401" lon="2.69353">
        <ele>753.3303223</ele>
        <time>2014-06-15T08:09:28Z</time>
      </trkpt>
      <trkpt lat="44.3401" lon="2.69353">
        <ele>750.927002</ele>
        <time>2014-06-15T08:09:34Z</time>
      </trkpt>
      <trkpt lat="44.34006" lon="2.69355">
        <ele>749.0043945</ele>
        <time>2014-06-15T08:09:42Z</time>
      </trkpt>
      <trkpt lat="44.3401" lon="2.69358">
        <ele>752.3688965</ele>
        <time>2014-06-15T08:09:51Z</time>
      </trkpt>
      <trkpt lat="44.34011" lon="2.69359">
        <ele>756.2141113</ele>
        <time>2014-06-15T08:10:03Z</time>
      </trkpt>
      <trkpt lat="44.3401" lon="2.69359">
        <ele>755.7336426</ele>
        <time>2014-06-15T08:10:05Z</time>
      </trkpt>
      <trkpt lat="44.34011" lon="2.69357">
        <ele>755.2529297</ele>
        <time>2014-06-15T08:10:11Z</time>
      </trkpt>
      <trkpt lat="44.34014" lon="2.69356">
        <ele>755.7336426</ele>
        <time>2014-06-15T08:10:21Z</time>
      </trkpt>
      <trkpt lat="44.34012" lon="2.69356">
        <ele>754.291748</ele>
        <time>2014-06-15T08:10:28Z</time>
      </trkpt>
      <trkpt lat="44.34012" lon="2.69356">
        <ele>753.3303223</ele>
        <time>2014-06-15T08:10:36Z</time>
      </trkpt>
      <trkpt lat="44.34009" lon="2.69358">
        <ele>750.927002</ele>
        <time>2014-06-15T08:10:43Z</time>
      </trkpt>
      <trkpt lat="44.34007" lon="2.69356">
        <ele>747.5622559</ele>
        <time>2014-06-15T08:10:52Z</time>
      </trkpt>
      <trkpt lat="44.34004" lon="2.69357">
        <ele>748.0432129</ele>
        <time>2014-06-15T08:11:08Z</time>
      </trkpt>
      <trkpt lat="44.34001" lon="2.6936">
        <ele>748.0432129</ele>
        <time>2014-06-15T08:11:13Z</time>
      </trkpt>
      <trkpt lat="44.34008" lon="2.69352">
        <ele>753.8110352</ele>
        <time>2014-06-15T08:11:26Z</time>
      </trkpt>
      <trkpt lat="44.34005" lon="2.69357">
        <ele>754.291748</ele>
        <time>2014-06-15T08:11:40Z</time>
      </trkpt>
      <trkpt lat="44.34006" lon="2.69357">
        <ele>753.3303223</ele>
        <time>2014-06-15T08:11:49Z</time>
      </trkpt>
      <trkpt lat="44.34005" lon="2.69358">
        <ele>752.3688965</ele>
        <time>2014-06-15T08:11:52Z</time>
      </trkpt>
      <trkpt lat="44.34008" lon="2.69357">
        <ele>752.3688965</ele>
        <time>2014-06-15T08:12:02Z</time>
      </trkpt>
      <trkpt lat="44.34014" lon="2.69362">
        <ele>750.927002</ele>
        <time>2014-06-15T08:12:08Z</time>
      </trkpt>
      <trkpt lat="44.34019" lon="2.69362">
        <ele>742.7558594</ele>
        <time>2014-06-15T08:12:21Z</time>
      </trkpt>
      <trkpt lat="44.34028" lon="2.69347">
        <ele>739.8718262</ele>
        <time>2014-06-15T08:12:28Z</time>
      </trkpt>
      <trkpt lat="44.3403" lon="2.69344">
        <ele>739.3911133</ele>
        <time>2014-06-15T08:12:29Z</time>
      </trkpt>
      <trkpt lat="44.34037" lon="2.69332">
        <ele>736.987793</ele>
        <time>2014-06-15T08:12:34Z</time>
      </trkpt>
      <trkpt lat="44.34044" lon="2.69322">
        <ele>735.0654297</ele>
        <time>2014-06-15T08:12:38Z</time>
      </trkpt>
      <trkpt lat="44.34049" lon="2.69308">
        <ele>731.7004395</ele>
        <time>2014-06-15T08:12:43Z</time>
      </trkpt>
      <trkpt lat="44.34055" lon="2.69292">
        <ele>729.777832</ele>
        <time>2014-06-15T08:12:48Z</time>
      </trkpt>
      <trkpt lat="44.34061" lon="2.69273">
        <ele>730.7392578</ele>
        <time>2014-06-15T08:12:54Z</time>
      </trkpt>
      <trkpt lat="44.34065" lon="2.69258">
        <ele>729.777832</ele>
        <time>2014-06-15T08:12:58Z</time>
      </trkpt>
      <trkpt lat="44.34071" lon="2.69244">
        <ele>730.7392578</ele>
        <time>2014-06-15T08:13:02Z</time>
      </trkpt>
      <trkpt lat="44.34072" lon="2.69223">
        <ele>731.2199707</ele>
        <time>2014-06-15T08:13:08Z</time>
      </trkpt>
      <trkpt lat="44.34073" lon="2.69205">
        <ele>732.1813965</ele>
        <time>2014-06-15T08:13:13Z</time>
      </trkpt>
      <trkpt lat="44.34072" lon="2.69188">
        <ele>733.623291</ele>
        <time>2014-06-15T08:13:18Z</time>
      </trkpt>
      <trkpt lat="44.34071" lon="2.69169">
        <ele>734.5847168</ele>
        <time>2014-06-15T08:13:24Z</time>
      </trkpt>
      <trkpt lat="44.34073" lon="2.69164">
        <ele>734.1040039</ele>
        <time>2014-06-15T08:13:26Z</time>
      </trkpt>
      <trkpt lat="44.34081" lon="2.69167">
        <ele>733.623291</ele>
        <time>2014-06-15T08:13:30Z</time>
      </trkpt>
      <trkpt lat="44.34087" lon="2.69185">
        <ele>729.2971191</ele>
        <time>2014-06-15T08:13:35Z</time>
      </trkpt>
      <trkpt lat="44.34087" lon="2.69207">
        <ele>718.7229004</ele>
        <time>2014-06-15T08:13:41Z</time>
      </trkpt>
      <trkpt lat="44.34083" lon="2.69226">
        <ele>711.5129395</ele>
        <time>2014-06-15T08:13:46Z</time>
      </trkpt>
      <trkpt lat="44.34082" lon="2.69229">
        <ele>710.5515137</ele>
        <time>2014-06-15T08:13:47Z</time>
      </trkpt>
      <trkpt lat="44.34076" lon="2.69243">
        <ele>704.3032227</ele>
        <time>2014-06-15T08:13:52Z</time>
      </trkpt>
      <trkpt lat="44.34076" lon="2.69246">
        <ele>702.861084</ele>
        <time>2014-06-15T08:13:53Z</time>
      </trkpt>
      <trkpt lat="44.34071" lon="2.69266">
        <ele>698.5349121</ele>
        <time>2014-06-15T08:13:58Z</time>
      </trkpt>
      <trkpt lat="44.34064" lon="2.69284">
        <ele>690.8444824</ele>
        <time>2014-06-15T08:14:03Z</time>
      </trkpt>
      <trkpt lat="44.34056" lon="2.69301">
        <ele>683.1538086</ele>
        <time>2014-06-15T08:14:08Z</time>
      </trkpt>
      <trkpt lat="44.34051" lon="2.69324">
        <ele>677.3862305</ele>
        <time>2014-06-15T08:14:14Z</time>
      </trkpt>
      <trkpt lat="44.34046" lon="2.69346">
        <ele>671.1376953</ele>
        <time>2014-06-15T08:14:20Z</time>
      </trkpt>
      <trkpt lat="44.34043" lon="2.69367">
        <ele>665.3696289</ele>
        <time>2014-06-15T08:14:26Z</time>
      </trkpt>
      <trkpt lat="44.34044" lon="2.69387">
        <ele>659.6018066</ele>
        <time>2014-06-15T08:14:31Z</time>
      </trkpt>
      <trkpt lat="44.34046" lon="2.69401">
        <ele>655.7565918</ele>
        <time>2014-06-15T08:14:35Z</time>
      </trkpt>
      <trkpt lat="44.34054" lon="2.69417">
        <ele>652.8725586</ele>
        <time>2014-06-15T08:14:41Z</time>
      </trkpt>
      <trkpt lat="44.34063" lon="2.69427">
        <ele>659.1210938</ele>
        <time>2014-06-15T08:14:44Z</time>
      </trkpt>
      <trkpt lat="44.34078" lon="2.69434">
        <ele>675.9440918</ele>
        <time>2014-06-15T08:14:49Z</time>
      </trkpt>
      <trkpt lat="44.34077" lon="2.69436">
        <ele>678.3474121</ele>
        <time>2014-06-15T08:14:51Z</time>
      </trkpt>
      <trkpt lat="44.34087" lon="2.69453">
        <ele>690.8444824</ele>
        <time>2014-06-15T08:14:56Z</time>
      </trkpt>
      <trkpt lat="44.34086" lon="2.69473">
        <ele>694.2092285</ele>
        <time>2014-06-15T08:15:01Z</time>
      </trkpt>
      <trkpt lat="44.34086" lon="2.69488">
        <ele>695.1704102</ele>
        <time>2014-06-15T08:15:05Z</time>
      </trkpt>
      <trkpt lat="44.34088" lon="2.69507">
        <ele>696.1318359</ele>
        <time>2014-06-15T08:15:10Z</time>
      </trkpt>
      <trkpt lat="44.34096" lon="2.69529">
        <ele>695.1704102</ele>
        <time>2014-06-15T08:15:16Z</time>
      </trkpt>
      <trkpt lat="44.34109" lon="2.6955">
        <ele>694.6896973</ele>
        <time>2014-06-15T08:15:22Z</time>
      </trkpt>
      <trkpt lat="44.34112" lon="2.69568">
        <ele>692.2866211</ele>
        <time>2014-06-15T08:15:27Z</time>
      </trkpt>
      <trkpt lat="44.34119" lon="2.69585">
        <ele>688.9221191</ele>
        <time>2014-06-15T08:15:32Z</time>
      </trkpt>
      <trkpt lat="44.34126" lon="2.69607">
        <ele>682.192627</ele>
        <time>2014-06-15T08:15:39Z</time>
      </trkpt>
      <trkpt lat="44.34131" lon="2.69628">
        <ele>677.3862305</ele>
        <time>2014-06-15T08:15:45Z</time>
      </trkpt>
      <trkpt lat="44.3413" lon="2.69647">
        <ele>674.0214844</ele>
        <time>2014-06-15T08:15:50Z</time>
      </trkpt>
      <trkpt lat="44.34128" lon="2.69665">
        <ele>669.6958008</ele>
        <time>2014-06-15T08:15:54Z</time>
      </trkpt>
      <trkpt lat="44.34124" lon="2.69689">
        <ele>663.9274902</ele>
        <time>2014-06-15T08:15:59Z</time>
      </trkpt>
      <trkpt lat="44.34123" lon="2.69701">
        <ele>663.9274902</ele>
        <time>2014-06-15T08:16:03Z</time>
      </trkpt>
      <trkpt lat="44.34117" lon="2.69716">
        <ele>666.3308105</ele>
        <time>2014-06-15T08:16:08Z</time>
      </trkpt>
      <trkpt lat="44.34111" lon="2.69724">
        <ele>665.3696289</ele>
        <time>2014-06-15T08:16:13Z</time>
      </trkpt>
      <trkpt lat="44.34101" lon="2.69741">
        <ele>666.8115234</ele>
        <time>2014-06-15T08:16:18Z</time>
      </trkpt>
      <trkpt lat="44.34092" lon="2.6976">
        <ele>668.2536621</ele>
        <time>2014-06-15T08:16:23Z</time>
      </trkpt>
      <trkpt lat="44.34087" lon="2.69774">
        <ele>668.2536621</ele>
        <time>2014-06-15T08:16:27Z</time>
      </trkpt>
      <trkpt lat="44.34086" lon="2.69787">
        <ele>667.7727051</ele>
        <time>2014-06-15T08:16:30Z</time>
      </trkpt>
      <trkpt lat="44.3408" lon="2.69806">
        <ele>666.3308105</ele>
        <time>2014-06-15T08:16:35Z</time>
      </trkpt>
      <trkpt lat="44.34088" lon="2.69824">
        <ele>674.5021973</ele>
        <time>2014-06-15T08:16:40Z</time>
      </trkpt>
      <trkpt lat="44.34083" lon="2.6984">
        <ele>673.0603027</ele>
        <time>2014-06-15T08:16:44Z</time>
      </trkpt>
      <trkpt lat="44.34076" lon="2.69856">
        <ele>674.0214844</ele>
        <time>2014-06-15T08:16:49Z</time>
      </trkpt>
      <trkpt lat="44.34069" lon="2.69871">
        <ele>676.9055176</ele>
        <time>2014-06-15T08:16:54Z</time>
      </trkpt>
      <trkpt lat="44.34065" lon="2.69879">
        <ele>678.828125</ele>
        <time>2014-06-15T08:16:58Z</time>
      </trkpt>
      <trkpt lat="44.34063" lon="2.69882">
        <ele>678.3474121</ele>
        <time>2014-06-15T08:16:59Z</time>
      </trkpt>
      <trkpt lat="44.34051" lon="2.69897">
        <ele>676.4248047</ele>
        <time>2014-06-15T08:17:04Z</time>
      </trkpt>
      <trkpt lat="44.34042" lon="2.69905">
        <ele>674.9829102</ele>
        <time>2014-06-15T08:17:08Z</time>
      </trkpt>
      <trkpt lat="44.34029" lon="2.69909">
        <ele>674.9829102</ele>
        <time>2014-06-15T08:17:14Z</time>
      </trkpt>
      <trkpt lat="44.34015" lon="2.69907">
        <ele>675.4633789</ele>
        <time>2014-06-15T08:17:20Z</time>
      </trkpt>
      <trkpt lat="44.34001" lon="2.69905">
        <ele>675.9440918</ele>
        <time>2014-06-15T08:17:26Z</time>
      </trkpt>
      <trkpt lat="44.33992" lon="2.69901">
        <ele>676.4248047</ele>
        <time>2014-06-15T08:17:30Z</time>
      </trkpt>
      <trkpt lat="44.33981" lon="2.69898">
        <ele>676.9055176</ele>
        <time>2014-06-15T08:17:35Z</time>
      </trkpt>
      <trkpt lat="44.3398" lon="2.69897">
        <ele>676.9055176</ele>
        <time>2014-06-15T08:17:36Z</time>
      </trkpt>
      <trkpt lat="44.33972" lon="2.69902">
        <ele>679.7893066</ele>
        <time>2014-06-15T08:17:41Z</time>
      </trkpt>
      <trkpt lat="44.33971" lon="2.69904">
        <ele>680.2700195</ele>
        <time>2014-06-15T08:17:43Z</time>
      </trkpt>
      <trkpt lat="44.33965" lon="2.69906">
        <ele>683.6345215</ele>
        <time>2014-06-15T08:17:50Z</time>
      </trkpt>
      <trkpt lat="44.33964" lon="2.69908">
        <ele>683.1538086</ele>
        <time>2014-06-15T08:17:59Z</time>
      </trkpt>
      <trkpt lat="44.33958" lon="2.69903">
        <ele>690.3640137</ele>
        <time>2014-06-15T08:18:06Z</time>
      </trkpt>
      <trkpt lat="44.33949" lon="2.69898">
        <ele>689.4025879</ele>
        <time>2014-06-15T08:18:11Z</time>
      </trkpt>
      <trkpt lat="44.33939" lon="2.69887">
        <ele>689.4025879</ele>
        <time>2014-06-15T08:18:17Z</time>
      </trkpt>
      <trkpt lat="44.33933" lon="2.69878">
        <ele>689.4025879</ele>
        <time>2014-06-15T08:18:21Z</time>
      </trkpt>
      <trkpt lat="44.3393" lon="2.69873">
        <ele>689.4025879</ele>
        <time>2014-06-15T08:18:24Z</time>
      </trkpt>
      <trkpt lat="44.33934" lon="2.69872">
        <ele>690.8444824</ele>
        <time>2014-06-15T08:18:29Z</time>
      </trkpt>
      <trkpt lat="44.33937" lon="2.69872">
        <ele>692.2866211</ele>
        <time>2014-06-15T08:18:32Z</time>
      </trkpt>
      <trkpt lat="44.3394" lon="2.69875">
        <ele>701.4191895</ele>
        <time>2014-06-15T08:18:38Z</time>
      </trkpt>
      <trkpt lat="44.33947" lon="2.69863">
        <ele>701.8999023</ele>
        <time>2014-06-15T08:18:44Z</time>
      </trkpt>
      <trkpt lat="44.33945" lon="2.69858">
        <ele>699.4963379</ele>
        <time>2014-06-15T08:18:46Z</time>
      </trkpt>
      <trkpt lat="44.33947" lon="2.69854">
        <ele>697.5737305</ele>
        <time>2014-06-15T08:18:50Z</time>
      </trkpt>
      <trkpt lat="44.33947" lon="2.69848">
        <ele>696.6125488</ele>
        <time>2014-06-15T08:18:55Z</time>
      </trkpt>
      <trkpt lat="44.33943" lon="2.69844">
        <ele>698.0544434</ele>
        <time>2014-06-15T08:19:01Z</time>
      </trkpt>
      <trkpt lat="44.33935" lon="2.69839">
        <ele>698.0544434</ele>
        <time>2014-06-15T08:19:04Z</time>
      </trkpt>
      <trkpt lat="44.33929" lon="2.69839">
        <ele>695.651123</ele>
        <time>2014-06-15T08:19:10Z</time>
      </trkpt>
      <trkpt lat="44.33926" lon="2.69835">
        <ele>697.5737305</ele>
        <time>2014-06-15T08:19:16Z</time>
      </trkpt>
      <trkpt lat="44.3393" lon="2.69835">
        <ele>698.0544434</ele>
        <time>2014-06-15T08:19:18Z</time>
      </trkpt>
      <trkpt lat="44.33929" lon="2.69829">
        <ele>696.1318359</ele>
        <time>2014-06-15T08:19:23Z</time>
      </trkpt>
      <trkpt lat="44.33923" lon="2.69824">
        <ele>694.6896973</ele>
        <time>2014-06-15T08:19:27Z</time>
      </trkpt>
      <trkpt lat="44.33915" lon="2.69811">
        <ele>685.557373</ele>
        <time>2014-06-15T08:19:34Z</time>
      </trkpt>
      <trkpt lat="44.33912" lon="2.69808">
        <ele>686.0380859</ele>
        <time>2014-06-15T08:19:37Z</time>
      </trkpt>
      <trkpt lat="44.33907" lon="2.69804">
        <ele>685.557373</ele>
        <time>2014-06-15T08:19:42Z</time>
      </trkpt>
      <trkpt lat="44.33905" lon="2.69794">
        <ele>683.6345215</ele>
        <time>2014-06-15T08:19:47Z</time>
      </trkpt>
      <trkpt lat="44.33902" lon="2.69785">
        <ele>682.192627</ele>
        <time>2014-06-15T08:19:53Z</time>
      </trkpt>
      <trkpt lat="44.33895" lon="2.69771">
        <ele>687.9606934</ele>
        <time>2014-06-15T08:20:05Z</time>
      </trkpt>
      <trkpt lat="44.33896" lon="2.69763">
        <ele>691.3251953</ele>
        <time>2014-06-15T08:20:09Z</time>
      </trkpt>
      <trkpt lat="44.33895" lon="2.69756">
        <ele>690.8444824</ele>
        <time>2014-06-15T08:20:14Z</time>
      </trkpt>
      <trkpt lat="44.33896" lon="2.69746">
        <ele>691.3251953</ele>
        <time>2014-06-15T08:20:21Z</time>
      </trkpt>
      <trkpt lat="44.33899" lon="2.69732">
        <ele>690.8444824</ele>
        <time>2014-06-15T08:20:34Z</time>
      </trkpt>
      <trkpt lat="44.33896" lon="2.69711">
        <ele>715.3581543</ele>
        <time>2014-06-15T08:21:07Z</time>
      </trkpt>
      <trkpt lat="44.33899" lon="2.69695">
        <ele>726.4133301</ele>
        <time>2014-06-15T08:21:33Z</time>
      </trkpt>
      <trkpt lat="44.339" lon="2.69691">
        <ele>730.2585449</ele>
        <time>2014-06-15T08:21:43Z</time>
      </trkpt>
      <trkpt lat="44.339" lon="2.69689">
        <ele>734.5847168</ele>
        <time>2014-06-15T08:21:53Z</time>
      </trkpt>
      <trkpt lat="44.33899" lon="2.69683">
        <ele>730.7392578</ele>
        <time>2014-06-15T08:22:01Z</time>
      </trkpt>
      <trkpt lat="44.33898" lon="2.69681">
        <ele>731.7004395</ele>
        <time>2014-06-15T08:22:05Z</time>
      </trkpt>
      <trkpt lat="44.33891" lon="2.69678">
        <ele>739.8718262</ele>
        <time>2014-06-15T08:22:19Z</time>
      </trkpt>
      <trkpt lat="44.33889" lon="2.69674">
        <ele>739.3911133</ele>
        <time>2014-06-15T08:22:24Z</time>
      </trkpt>
      <trkpt lat="44.33889" lon="2.69666">
        <ele>744.1977539</ele>
        <time>2014-06-15T08:22:43Z</time>
      </trkpt>
      <trkpt lat="44.33885" lon="2.69662">
        <ele>751.8884277</ele>
        <time>2014-06-15T08:22:49Z</time>
      </trkpt>
      <trkpt lat="44.33887" lon="2.69657">
        <ele>755.2529297</ele>
        <time>2014-06-15T08:22:54Z</time>
      </trkpt>
      <trkpt lat="44.33894" lon="2.69655">
        <ele>756.2141113</ele>
        <time>2014-06-15T08:23:01Z</time>
      </trkpt>
      <trkpt lat="44.33898" lon="2.69654">
        <ele>758.6174316</ele>
        <time>2014-06-15T08:23:04Z</time>
      </trkpt>
      <trkpt lat="44.33901" lon="2.69647">
        <ele>757.1755371</ele>
        <time>2014-06-15T08:23:10Z</time>
      </trkpt>
      <trkpt lat="44.33899" lon="2.69643">
        <ele>756.6948242</ele>
        <time>2014-06-15T08:23:15Z</time>
      </trkpt>
      <trkpt lat="44.33897" lon="2.69635">
        <ele>758.6174316</ele>
        <time>2014-06-15T08:23:25Z</time>
      </trkpt>
      <trkpt lat="44.33901" lon="2.69624">
        <ele>764.385498</ele>
        <time>2014-06-15T08:23:38Z</time>
      </trkpt>
      <trkpt lat="44.33898" lon="2.69621">
        <ele>764.385498</ele>
        <time>2014-06-15T08:23:43Z</time>
      </trkpt>
      <trkpt lat="44.33896" lon="2.69617">
        <ele>764.8662109</ele>
        <time>2014-06-15T08:23:49Z</time>
      </trkpt>
      <trkpt lat="44.33892" lon="2.69613">
        <ele>765.3469238</ele>
        <time>2014-06-15T08:23:55Z</time>
      </trkpt>
      <trkpt lat="44.33891" lon="2.69608">
        <ele>766.3081055</ele>
        <time>2014-06-15T08:24:01Z</time>
      </trkpt>
      <trkpt lat="44.33892" lon="2.69602">
        <ele>770.6340332</ele>
        <time>2014-06-15T08:24:11Z</time>
      </trkpt>
      <trkpt lat="44.3389" lon="2.69599">
        <ele>771.5952148</ele>
        <time>2014-06-15T08:24:17Z</time>
      </trkpt>
      <trkpt lat="44.33883" lon="2.69601">
        <ele>771.1147461</ele>
        <time>2014-06-15T08:24:24Z</time>
      </trkpt>
      <trkpt lat="44.33876" lon="2.69606">
        <ele>775.4404297</ele>
        <time>2014-06-15T08:24:34Z</time>
      </trkpt>
      <trkpt lat="44.33872" lon="2.69605">
        <ele>774.479248</ele>
        <time>2014-06-15T08:24:37Z</time>
      </trkpt>
      <trkpt lat="44.33869" lon="2.69601">
        <ele>773.0373535</ele>
        <time>2014-06-15T08:24:41Z</time>
      </trkpt>
      <trkpt lat="44.33865" lon="2.696">
        <ele>770.6340332</ele>
        <time>2014-06-15T08:24:44Z</time>
      </trkpt>
      <trkpt lat="44.33858" lon="2.696">
        <ele>769.6728516</ele>
        <time>2014-06-15T08:24:50Z</time>
      </trkpt>
      <trkpt lat="44.33857" lon="2.696">
        <ele>769.6728516</ele>
        <time>2014-06-15T08:24:51Z</time>
      </trkpt>
      <trkpt lat="44.33852" lon="2.696">
        <ele>770.6340332</ele>
        <time>2014-06-15T08:24:54Z</time>
      </trkpt>
      <trkpt lat="44.33844" lon="2.69597">
        <ele>769.1921387</ele>
        <time>2014-06-15T08:25:01Z</time>
      </trkpt>
      <trkpt lat="44.33836" lon="2.69593">
        <ele>767.2695313</ele>
        <time>2014-06-15T08:25:07Z</time>
      </trkpt>
      <trkpt lat="44.33832" lon="2.69588">
        <ele>767.75</ele>
        <time>2014-06-15T08:25:11Z</time>
      </trkpt>
      <trkpt lat="44.33824" lon="2.69581">
        <ele>770.1533203</ele>
        <time>2014-06-15T08:25:17Z</time>
      </trkpt>
      <trkpt lat="44.33817" lon="2.69575">
        <ele>772.5566406</ele>
        <time>2014-06-15T08:25:22Z</time>
      </trkpt>
      <trkpt lat="44.33815" lon="2.69572">
        <ele>772.5566406</ele>
        <time>2014-06-15T08:25:24Z</time>
      </trkpt>
      <trkpt lat="44.3381" lon="2.69567">
        <ele>773.5180664</ele>
        <time>2014-06-15T08:25:27Z</time>
      </trkpt>
      <trkpt lat="44.33803" lon="2.69564">
        <ele>773.9985352</ele>
        <time>2014-06-15T08:25:31Z</time>
      </trkpt>
      <trkpt lat="44.33791" lon="2.69562">
        <ele>777.3632813</ele>
        <time>2014-06-15T08:25:38Z</time>
      </trkpt>
      <trkpt lat="44.33787" lon="2.69562">
        <ele>778.3244629</ele>
        <time>2014-06-15T08:25:40Z</time>
      </trkpt>
      <trkpt lat="44.33776" lon="2.69561">
        <ele>779.7663574</ele>
        <time>2014-06-15T08:25:46Z</time>
      </trkpt>
      <trkpt lat="44.33772" lon="2.69559">
        <ele>782.1699219</ele>
        <time>2014-06-15T08:25:50Z</time>
      </trkpt>
      <trkpt lat="44.33763" lon="2.69559">
        <ele>781.689209</ele>
        <time>2014-06-15T08:25:55Z</time>
      </trkpt>
      <trkpt lat="44.33758" lon="2.6956">
        <ele>783.1311035</ele>
        <time>2014-06-15T08:25:58Z</time>
      </trkpt>
      <trkpt lat="44.33752" lon="2.69562">
        <ele>786.0151367</ele>
        <time>2014-06-15T08:26:04Z</time>
      </trkpt>
      <trkpt lat="44.33749" lon="2.69563">
        <ele>786.9763184</ele>
        <time>2014-06-15T08:26:06Z</time>
      </trkpt>
      <trkpt lat="44.33737" lon="2.69566">
        <ele>789.3796387</ele>
        <time>2014-06-15T08:26:13Z</time>
      </trkpt>
      <trkpt lat="44.33733" lon="2.69566">
        <ele>788.8991699</ele>
        <time>2014-06-15T08:26:15Z</time>
      </trkpt>
      <trkpt lat="44.33727" lon="2.69569">
        <ele>788.418457</ele>
        <time>2014-06-15T08:26:19Z</time>
      </trkpt>
      <trkpt lat="44.33719" lon="2.69573">
        <ele>788.8991699</ele>
        <time>2014-06-15T08:26:24Z</time>
      </trkpt>
      <trkpt lat="44.33704" lon="2.69577">
        <ele>787.9377441</ele>
        <time>2014-06-15T08:26:31Z</time>
      </trkpt>
      <trkpt lat="44.33692" lon="2.6958">
        <ele>790.3410645</ele>
        <time>2014-06-15T08:26:37Z</time>
      </trkpt>
      <trkpt lat="44.33686" lon="2.69582">
        <ele>791.3022461</ele>
        <time>2014-06-15T08:26:40Z</time>
      </trkpt>
      <trkpt lat="44.33672" lon="2.69583">
        <ele>792.7443848</ele>
        <time>2014-06-15T08:26:45Z</time>
      </trkpt>
      <trkpt lat="44.33664" lon="2.6958">
        <ele>793.2248535</ele>
        <time>2014-06-15T08:26:50Z</time>
      </trkpt>
      <trkpt lat="44.33654" lon="2.69571">
        <ele>793.7055664</ele>
        <time>2014-06-15T08:26:56Z</time>
      </trkpt>
      <trkpt lat="44.33648" lon="2.69569">
        <ele>793.2248535</ele>
        <time>2014-06-15T08:26:59Z</time>
      </trkpt>
      <trkpt lat="44.33645" lon="2.69568">
        <ele>793.2248535</ele>
        <time>2014-06-15T08:27:01Z</time>
      </trkpt>
      <trkpt lat="44.33634" lon="2.69565">
        <ele>797.0703125</ele>
        <time>2014-06-15T08:27:07Z</time>
      </trkpt>
      <trkpt lat="44.33633" lon="2.69564">
        <ele>797.0703125</ele>
        <time>2014-06-15T08:27:08Z</time>
      </trkpt>
      <trkpt lat="44.33622" lon="2.6956">
        <ele>797.0703125</ele>
        <time>2014-06-15T08:27:14Z</time>
      </trkpt>
      <trkpt lat="44.33618" lon="2.6956">
        <ele>797.5510254</ele>
        <time>2014-06-15T08:27:16Z</time>
      </trkpt>
      <trkpt lat="44.33608" lon="2.69563">
        <ele>798.9929199</ele>
        <time>2014-06-15T08:27:21Z</time>
      </trkpt>
      <trkpt lat="44.33606" lon="2.69564">
        <ele>799.4736328</ele>
        <time>2014-06-15T08:27:22Z</time>
      </trkpt>
      <trkpt lat="44.33597" lon="2.69568">
        <ele>799.9543457</ele>
        <time>2014-06-15T08:27:28Z</time>
      </trkpt>
      <trkpt lat="44.33593" lon="2.69568">
        <ele>799.4736328</ele>
        <time>2014-06-15T08:27:30Z</time>
      </trkpt>
      <trkpt lat="44.33584" lon="2.69573">
        <ele>801.8769531</ele>
        <time>2014-06-15T08:27:36Z</time>
      </trkpt>
      <trkpt lat="44.33572" lon="2.69576">
        <ele>801.8769531</ele>
        <time>2014-06-15T08:27:43Z</time>
      </trkpt>
      <trkpt lat="44.3356" lon="2.69576">
        <ele>802.3574219</ele>
        <time>2014-06-15T08:27:49Z</time>
      </trkpt>
      <trkpt lat="44.3355" lon="2.69571">
        <ele>802.3574219</ele>
        <time>2014-06-15T08:27:54Z</time>
      </trkpt>
      <trkpt lat="44.33542" lon="2.69566">
        <ele>801.3962402</ele>
        <time>2014-06-15T08:27:59Z</time>
      </trkpt>
      <trkpt lat="44.33534" lon="2.69558">
        <ele>799.4736328</ele>
        <time>2014-06-15T08:28:04Z</time>
      </trkpt>
      <trkpt lat="44.3353" lon="2.69555">
        <ele>798.512207</ele>
        <time>2014-06-15T08:28:07Z</time>
      </trkpt>
      <trkpt lat="44.33521" lon="2.69547">
        <ele>798.9929199</ele>
        <time>2014-06-15T08:28:12Z</time>
      </trkpt>
      <trkpt lat="44.33512" lon="2.6954">
        <ele>800.9155273</ele>
        <time>2014-06-15T08:28:16Z</time>
      </trkpt>
      <trkpt lat="44.33499" lon="2.6953">
        <ele>801.3962402</ele>
        <time>2014-06-15T08:28:22Z</time>
      </trkpt>
      <trkpt lat="44.33486" lon="2.69517">
        <ele>804.2802734</ele>
        <time>2014-06-15T08:28:29Z</time>
      </trkpt>
      <trkpt lat="44.33477" lon="2.69512">
        <ele>807.6447754</ele>
        <time>2014-06-15T08:28:33Z</time>
      </trkpt>
      <trkpt lat="44.33466" lon="2.69508">
        <ele>808.605957</ele>
        <time>2014-06-15T08:28:37Z</time>
      </trkpt>
      <trkpt lat="44.33455" lon="2.69506">
        <ele>810.0478516</ele>
        <time>2014-06-15T08:28:42Z</time>
      </trkpt>
      <trkpt lat="44.33452" lon="2.69505">
        <ele>811.0092773</ele>
        <time>2014-06-15T08:28:43Z</time>
      </trkpt>
      <trkpt lat="44.33437" lon="2.69507">
        <ele>810.0478516</ele>
        <time>2014-06-15T08:28:48Z</time>
      </trkpt>
      <trkpt lat="44.33425" lon="2.69506">
        <ele>810.5285645</ele>
        <time>2014-06-15T08:28:52Z</time>
      </trkpt>
      <trkpt lat="44.33422" lon="2.69506">
        <ele>810.0478516</ele>
        <time>2014-06-15T08:28:53Z</time>
      </trkpt>
      <trkpt lat="44.33408" lon="2.69508">
        <ele>810.0478516</ele>
        <time>2014-06-15T08:28:58Z</time>
      </trkpt>
      <trkpt lat="44.334" lon="2.69508">
        <ele>809.0866699</ele>
        <time>2014-06-15T08:29:01Z</time>
      </trkpt>
      <trkpt lat="44.33386" lon="2.69501">
        <ele>808.1254883</ele>
        <time>2014-06-15T08:29:07Z</time>
      </trkpt>
      <trkpt lat="44.33376" lon="2.69498">
        <ele>807.1640625</ele>
        <time>2014-06-15T08:29:12Z</time>
      </trkpt>
      <trkpt lat="44.33369" lon="2.69499">
        <ele>806.2026367</ele>
        <time>2014-06-15T08:29:15Z</time>
      </trkpt>
      <trkpt lat="44.33355" lon="2.69495">
        <ele>805.2414551</ele>
        <time>2014-06-15T08:29:21Z</time>
      </trkpt>
      <trkpt lat="44.33347" lon="2.69493">
        <ele>805.2414551</ele>
        <time>2014-06-15T08:29:24Z</time>
      </trkpt>
      <trkpt lat="44.33344" lon="2.69493">
        <ele>805.2414551</ele>
        <time>2014-06-15T08:29:25Z</time>
      </trkpt>
      <trkpt lat="44.3333" lon="2.69495">
        <ele>807.1640625</ele>
        <time>2014-06-15T08:29:32Z</time>
      </trkpt>
      <trkpt lat="44.3332" lon="2.69494">
        <ele>808.605957</ele>
        <time>2014-06-15T08:29:37Z</time>
      </trkpt>
      <trkpt lat="44.33307" lon="2.69493">
        <ele>807.6447754</ele>
        <time>2014-06-15T08:29:42Z</time>
      </trkpt>
      <trkpt lat="44.33289" lon="2.69491">
        <ele>807.1640625</ele>
        <time>2014-06-15T08:29:49Z</time>
      </trkpt>
      <trkpt lat="44.33276" lon="2.69491">
        <ele>808.1254883</ele>
        <time>2014-06-15T08:29:53Z</time>
      </trkpt>
      <trkpt lat="44.33268" lon="2.69493">
        <ele>808.1254883</ele>
        <time>2014-06-15T08:29:56Z</time>
      </trkpt>
      <trkpt lat="44.33255" lon="2.69493">
        <ele>807.1640625</ele>
        <time>2014-06-15T08:30:01Z</time>
      </trkpt>
      <trkpt lat="44.33239" lon="2.69495">
        <ele>805.2414551</ele>
        <time>2014-06-15T08:30:07Z</time>
      </trkpt>
      <trkpt lat="44.33227" lon="2.69496">
        <ele>803.3188477</ele>
        <time>2014-06-15T08:30:12Z</time>
      </trkpt>
      <trkpt lat="44.33217" lon="2.69497">
        <ele>802.8381348</ele>
        <time>2014-06-15T08:30:16Z</time>
      </trkpt>
      <trkpt lat="44.33205" lon="2.69498">
        <ele>802.8381348</ele>
        <time>2014-06-15T08:30:21Z</time>
      </trkpt>
      <trkpt lat="44.33193" lon="2.69501">
        <ele>804.2802734</ele>
        <time>2014-06-15T08:30:26Z</time>
      </trkpt>
      <trkpt lat="44.3318" lon="2.69504">
        <ele>804.7607422</ele>
        <time>2014-06-15T08:30:30Z</time>
      </trkpt>
      <trkpt lat="44.33168" lon="2.69511">
        <ele>805.722168</ele>
        <time>2014-06-15T08:30:35Z</time>
      </trkpt>
      <trkpt lat="44.33157" lon="2.69516">
        <ele>805.722168</ele>
        <time>2014-06-15T08:30:39Z</time>
      </trkpt>
      <trkpt lat="44.33145" lon="2.69522">
        <ele>806.2026367</ele>
        <time>2014-06-15T08:30:44Z</time>
      </trkpt>
      <trkpt lat="44.33138" lon="2.69525">
        <ele>807.6447754</ele>
        <time>2014-06-15T08:30:47Z</time>
      </trkpt>
      <trkpt lat="44.33123" lon="2.69533">
        <ele>809.0866699</ele>
        <time>2014-06-15T08:30:53Z</time>
      </trkpt>
      <trkpt lat="44.33112" lon="2.69539">
        <ele>808.1254883</ele>
        <time>2014-06-15T08:30:58Z</time>
      </trkpt>
      <trkpt lat="44.33104" lon="2.69543">
        <ele>808.605957</ele>
        <time>2014-06-15T08:31:01Z</time>
      </trkpt>
      <trkpt lat="44.33091" lon="2.69555">
        <ele>806.6833496</ele>
        <time>2014-06-15T08:31:07Z</time>
      </trkpt>
      <trkpt lat="44.33079" lon="2.69563">
        <ele>805.722168</ele>
        <time>2014-06-15T08:31:12Z</time>
      </trkpt>
      <trkpt lat="44.33068" lon="2.69572">
        <ele>803.7995605</ele>
        <time>2014-06-15T08:31:17Z</time>
      </trkpt>
      <trkpt lat="44.33064" lon="2.69576">
        <ele>803.3188477</ele>
        <time>2014-06-15T08:31:19Z</time>
      </trkpt>
      <trkpt lat="44.33057" lon="2.69587">
        <ele>802.8381348</ele>
        <time>2014-06-15T08:31:23Z</time>
      </trkpt>
      <trkpt lat="44.33047" lon="2.69601">
        <ele>801.8769531</ele>
        <time>2014-06-15T08:31:28Z</time>
      </trkpt>
      <trkpt lat="44.33038" lon="2.69611">
        <ele>803.3188477</ele>
        <time>2014-06-15T08:31:32Z</time>
      </trkpt>
      <trkpt lat="44.33028" lon="2.69628">
        <ele>804.7607422</ele>
        <time>2014-06-15T08:31:38Z</time>
      </trkpt>
      <trkpt lat="44.33018" lon="2.69645">
        <ele>804.7607422</ele>
        <time>2014-06-15T08:31:44Z</time>
      </trkpt>
      <trkpt lat="44.33011" lon="2.69661">
        <ele>801.8769531</ele>
        <time>2014-06-15T08:31:49Z</time>
      </trkpt>
      <trkpt lat="44.33002" lon="2.69677">
        <ele>799.9543457</ele>
        <time>2014-06-15T08:31:54Z</time>
      </trkpt>
      <trkpt lat="44.32996" lon="2.69692">
        <ele>798.0317383</ele>
        <time>2014-06-15T08:31:59Z</time>
      </trkpt>
      <trkpt lat="44.32988" lon="2.69709">
        <ele>796.1091309</ele>
        <time>2014-06-15T08:32:04Z</time>
      </trkpt>
      <trkpt lat="44.32984" lon="2.69724">
        <ele>796.1091309</ele>
        <time>2014-06-15T08:32:08Z</time>
      </trkpt>
      <trkpt lat="44.32977" lon="2.69739">
        <ele>796.1091309</ele>
        <time>2014-06-15T08:32:13Z</time>
      </trkpt>
      <trkpt lat="44.32966" lon="2.69758">
        <ele>798.9929199</ele>
        <time>2014-06-15T08:32:20Z</time>
      </trkpt>
      <trkpt lat="44.32957" lon="2.69775">
        <ele>800.4350586</ele>
        <time>2014-06-15T08:32:26Z</time>
      </trkpt>
      <trkpt lat="44.32948" lon="2.69788">
        <ele>799.9543457</ele>
        <time>2014-06-15T08:32:32Z</time>
      </trkpt>
      <trkpt lat="44.32938" lon="2.69797">
        <ele>799.4736328</ele>
        <time>2014-06-15T08:32:38Z</time>
      </trkpt>
      <trkpt lat="44.32927" lon="2.69809">
        <ele>800.9155273</ele>
        <time>2014-06-15T08:32:44Z</time>
      </trkpt>
      <trkpt lat="44.32917" lon="2.69814">
        <ele>800.9155273</ele>
        <time>2014-06-15T08:32:49Z</time>
      </trkpt>
      <trkpt lat="44.32911" lon="2.69812">
        <ele>799.9543457</ele>
        <time>2014-06-15T08:32:54Z</time>
      </trkpt>
      <trkpt lat="44.32903" lon="2.69813">
        <ele>799.4736328</ele>
        <time>2014-06-15T08:32:59Z</time>
      </trkpt>
      <trkpt lat="44.32902" lon="2.69812">
        <ele>798.9929199</ele>
        <time>2014-06-15T08:33:00Z</time>
      </trkpt>
      <trkpt lat="44.32897" lon="2.69808">
        <ele>798.512207</ele>
        <time>2014-06-15T08:33:05Z</time>
      </trkpt>
      <trkpt lat="44.32889" lon="2.698">
        <ele>797.5510254</ele>
        <time>2014-06-15T08:33:14Z</time>
      </trkpt>
      <trkpt lat="44.32884" lon="2.69799">
        <ele>797.0703125</ele>
        <time>2014-06-15T08:33:18Z</time>
      </trkpt>
      <trkpt lat="44.32878" lon="2.69796">
        <ele>797.5510254</ele>
        <time>2014-06-15T08:33:23Z</time>
      </trkpt>
      <trkpt lat="44.32876" lon="2.69795">
        <ele>797.5510254</ele>
        <time>2014-06-15T08:33:24Z</time>
      </trkpt>
      <trkpt lat="44.32871" lon="2.69797">
        <ele>798.512207</ele>
        <time>2014-06-15T08:33:28Z</time>
      </trkpt>
      <trkpt lat="44.32865" lon="2.69799">
        <ele>799.9543457</ele>
        <time>2014-06-15T08:33:32Z</time>
      </trkpt>
      <trkpt lat="44.32856" lon="2.69798">
        <ele>800.9155273</ele>
        <time>2014-06-15T08:33:39Z</time>
      </trkpt>
      <trkpt lat="44.32849" lon="2.69803">
        <ele>804.7607422</ele>
        <time>2014-06-15T08:33:44Z</time>
      </trkpt>
      <trkpt lat="44.32847" lon="2.69804">
        <ele>806.2026367</ele>
        <time>2014-06-15T08:33:46Z</time>
      </trkpt>
      <trkpt lat="44.32838" lon="2.69803">
        <ele>809.0866699</ele>
        <time>2014-06-15T08:33:53Z</time>
      </trkpt>
      <trkpt lat="44.32834" lon="2.69802">
        <ele>810.5285645</ele>
        <time>2014-06-15T08:33:56Z</time>
      </trkpt>
      <trkpt lat="44.32826" lon="2.69803">
        <ele>812.451416</ele>
        <time>2014-06-15T08:34:02Z</time>
      </trkpt>
      <trkpt lat="44.32821" lon="2.69802">
        <ele>813.4128418</ele>
        <time>2014-06-15T08:34:06Z</time>
      </trkpt>
      <trkpt lat="44.32814" lon="2.69804">
        <ele>814.8547363</ele>
        <time>2014-06-15T08:34:12Z</time>
      </trkpt>
      <trkpt lat="44.32803" lon="2.698">
        <ele>812.9321289</ele>
        <time>2014-06-15T08:34:16Z</time>
      </trkpt>
      <trkpt lat="44.32792" lon="2.69796">
        <ele>811.0092773</ele>
        <time>2014-06-15T08:34:22Z</time>
      </trkpt>
      <trkpt lat="44.32783" lon="2.69799">
        <ele>811.9707031</ele>
        <time>2014-06-15T08:34:28Z</time>
      </trkpt>
      <trkpt lat="44.32774" lon="2.69803">
        <ele>812.451416</ele>
        <time>2014-06-15T08:34:34Z</time>
      </trkpt>
      <trkpt lat="44.3277" lon="2.69804">
        <ele>813.4128418</ele>
        <time>2014-06-15T08:34:37Z</time>
      </trkpt>
      <trkpt lat="44.32762" lon="2.69806">
        <ele>815.3354492</ele>
        <time>2014-06-15T08:34:43Z</time>
      </trkpt>
      <trkpt lat="44.32754" lon="2.69813">
        <ele>818.2192383</ele>
        <time>2014-06-15T08:34:50Z</time>
      </trkpt>
      <trkpt lat="44.32753" lon="2.69814">
        <ele>818.6999512</ele>
        <time>2014-06-15T08:34:51Z</time>
      </trkpt>
      <trkpt lat="44.32744" lon="2.69827">
        <ele>822.0644531</ele>
        <time>2014-06-15T08:34:59Z</time>
      </trkpt>
      <trkpt lat="44.32743" lon="2.69829">
        <ele>822.545166</ele>
        <time>2014-06-15T08:35:00Z</time>
      </trkpt>
      <trkpt lat="44.32734" lon="2.6984">
        <ele>825.4289551</ele>
        <time>2014-06-15T08:35:07Z</time>
      </trkpt>
      <trkpt lat="44.32725" lon="2.69853">
        <ele>830.7165527</ele>
        <time>2014-06-15T08:35:14Z</time>
      </trkpt>
      <trkpt lat="44.32719" lon="2.69865">
        <ele>831.6777344</ele>
        <time>2014-06-15T08:35:20Z</time>
      </trkpt>
      <trkpt lat="44.32715" lon="2.69867">
        <ele>832.1584473</ele>
        <time>2014-06-15T08:35:22Z</time>
      </trkpt>
      <trkpt lat="44.32702" lon="2.69862">
        <ele>832.6391602</ele>
        <time>2014-06-15T08:35:28Z</time>
      </trkpt>
      <trkpt lat="44.32699" lon="2.69861">
        <ele>832.6391602</ele>
        <time>2014-06-15T08:35:31Z</time>
      </trkpt>
      <trkpt lat="44.32693" lon="2.69857">
        <ele>831.1972656</ele>
        <time>2014-06-15T08:35:37Z</time>
      </trkpt>
      <trkpt lat="44.32682" lon="2.69855">
        <ele>828.3132324</ele>
        <time>2014-06-15T08:35:42Z</time>
      </trkpt>
      <trkpt lat="44.32671" lon="2.69853">
        <ele>827.3518066</ele>
        <time>2014-06-15T08:35:46Z</time>
      </trkpt>
      <trkpt lat="44.3266" lon="2.69847">
        <ele>825.909668</ele>
        <time>2014-06-15T08:35:51Z</time>
      </trkpt>
      <trkpt lat="44.32647" lon="2.6984">
        <ele>824.4677734</ele>
        <time>2014-06-15T08:35:57Z</time>
      </trkpt>
      <trkpt lat="44.32637" lon="2.69832">
        <ele>825.909668</ele>
        <time>2014-06-15T08:36:02Z</time>
      </trkpt>
      <trkpt lat="44.32637" lon="2.69819">
        <ele>827.8322754</ele>
        <time>2014-06-15T08:36:07Z</time>
      </trkpt>
      <trkpt lat="44.32632" lon="2.69806">
        <ele>826.3903809</ele>
        <time>2014-06-15T08:36:12Z</time>
      </trkpt>
      <trkpt lat="44.32623" lon="2.69803">
        <ele>825.4289551</ele>
        <time>2014-06-15T08:36:16Z</time>
      </trkpt>
      <trkpt lat="44.32621" lon="2.69804">
        <ele>823.9870605</ele>
        <time>2014-06-15T08:36:17Z</time>
      </trkpt>
      <trkpt lat="44.32612" lon="2.69821">
        <ele>822.0644531</ele>
        <time>2014-06-15T08:36:22Z</time>
      </trkpt>
      <trkpt lat="44.32607" lon="2.6983">
        <ele>821.1032715</ele>
        <time>2014-06-15T08:36:25Z</time>
      </trkpt>
      <trkpt lat="44.32607" lon="2.69842">
        <ele>820.6225586</ele>
        <time>2014-06-15T08:36:28Z</time>
      </trkpt>
      <trkpt lat="44.326" lon="2.69866">
        <ele>818.6999512</ele>
        <time>2014-06-15T08:36:35Z</time>
      </trkpt>
      <trkpt lat="44.32598" lon="2.69869">
        <ele>819.1806641</ele>
        <time>2014-06-15T08:36:36Z</time>
      </trkpt>
      <trkpt lat="44.32589" lon="2.69878">
        <ele>817.2580566</ele>
        <time>2014-06-15T08:36:40Z</time>
      </trkpt>
      <trkpt lat="44.32571" lon="2.69876">
        <ele>814.3740234</ele>
        <time>2014-06-15T08:36:46Z</time>
      </trkpt>
      <trkpt lat="44.3256" lon="2.69873">
        <ele>813.4128418</ele>
        <time>2014-06-15T08:36:50Z</time>
      </trkpt>
      <trkpt lat="44.32548" lon="2.69869">
        <ele>812.9321289</ele>
        <time>2014-06-15T08:36:55Z</time>
      </trkpt>
      <trkpt lat="44.32538" lon="2.69869">
        <ele>811.4899902</ele>
        <time>2014-06-15T08:36:59Z</time>
      </trkpt>
      <trkpt lat="44.32533" lon="2.69867">
        <ele>811.4899902</ele>
        <time>2014-06-15T08:37:01Z</time>
      </trkpt>
      <trkpt lat="44.32529" lon="2.69867">
        <ele>811.0092773</ele>
        <time>2014-06-15T08:37:03Z</time>
      </trkpt>
      <trkpt lat="44.32517" lon="2.69865">
        <ele>810.5285645</ele>
        <time>2014-06-15T08:37:08Z</time>
      </trkpt>
      <trkpt lat="44.32502" lon="2.69862">
        <ele>812.451416</ele>
        <time>2014-06-15T08:37:14Z</time>
      </trkpt>
      <trkpt lat="44.32492" lon="2.69857">
        <ele>813.8933105</ele>
        <time>2014-06-15T08:37:19Z</time>
      </trkpt>
      <trkpt lat="44.32484" lon="2.69843">
        <ele>821.1032715</ele>
        <time>2014-06-15T08:37:26Z</time>
      </trkpt>
      <trkpt lat="44.32482" lon="2.69841">
        <ele>822.0644531</ele>
        <time>2014-06-15T08:37:27Z</time>
      </trkpt>
      <trkpt lat="44.32476" lon="2.69827">
        <ele>826.3903809</ele>
        <time>2014-06-15T08:37:34Z</time>
      </trkpt>
      <trkpt lat="44.32468" lon="2.69814">
        <ele>826.8710938</ele>
        <time>2014-06-15T08:37:40Z</time>
      </trkpt>
      <trkpt lat="44.32456" lon="2.69804">
        <ele>826.3903809</ele>
        <time>2014-06-15T08:37:46Z</time>
      </trkpt>
      <trkpt lat="44.32443" lon="2.69798">
        <ele>826.3903809</ele>
        <time>2014-06-15T08:37:53Z</time>
      </trkpt>
      <trkpt lat="44.32429" lon="2.69795">
        <ele>825.4289551</ele>
        <time>2014-06-15T08:38:00Z</time>
      </trkpt>
      <trkpt lat="44.32414" lon="2.69795">
        <ele>824.4677734</ele>
        <time>2014-06-15T08:38:07Z</time>
      </trkpt>
      <trkpt lat="44.32404" lon="2.69798">
        <ele>823.5065918</ele>
        <time>2014-06-15T08:38:12Z</time>
      </trkpt>
      <trkpt lat="44.32393" lon="2.69801">
        <ele>823.0258789</ele>
        <time>2014-06-15T08:38:17Z</time>
      </trkpt>
      <trkpt lat="44.32383" lon="2.698">
        <ele>822.0644531</ele>
        <time>2014-06-15T08:38:22Z</time>
      </trkpt>
      <trkpt lat="44.3237" lon="2.69796">
        <ele>823.0258789</ele>
        <time>2014-06-15T08:38:28Z</time>
      </trkpt>
      <trkpt lat="44.32354" lon="2.69786">
        <ele>823.5065918</ele>
        <time>2014-06-15T08:38:35Z</time>
      </trkpt>
      <trkpt lat="44.32345" lon="2.69781">
        <ele>825.4289551</ele>
        <time>2014-06-15T08:38:41Z</time>
      </trkpt>
      <trkpt lat="44.32336" lon="2.69776">
        <ele>827.8322754</ele>
        <time>2014-06-15T08:38:49Z</time>
      </trkpt>
      <trkpt lat="44.3233" lon="2.69772">
        <ele>827.3518066</ele>
        <time>2014-06-15T08:38:56Z</time>
      </trkpt>
      <trkpt lat="44.32322" lon="2.69765">
        <ele>826.3903809</ele>
        <time>2014-06-15T08:39:04Z</time>
      </trkpt>
      <trkpt lat="44.32313" lon="2.69758">
        <ele>825.909668</ele>
        <time>2014-06-15T08:39:11Z</time>
      </trkpt>
      <trkpt lat="44.32301" lon="2.6975">
        <ele>825.4289551</ele>
        <time>2014-06-15T08:39:18Z</time>
      </trkpt>
      <trkpt lat="44.32285" lon="2.69738">
        <ele>823.9870605</ele>
        <time>2014-06-15T08:39:25Z</time>
      </trkpt>
      <trkpt lat="44.32271" lon="2.69729">
        <ele>822.545166</ele>
        <time>2014-06-15T08:39:31Z</time>
      </trkpt>
      <trkpt lat="44.32265" lon="2.69724">
        <ele>822.545166</ele>
        <time>2014-06-15T08:39:36Z</time>
      </trkpt>
      <trkpt lat="44.32252" lon="2.69717">
        <ele>821.1032715</ele>
        <time>2014-06-15T08:39:43Z</time>
      </trkpt>
      <trkpt lat="44.32234" lon="2.69713">
        <ele>817.2580566</ele>
        <time>2014-06-15T08:39:51Z</time>
      </trkpt>
      <trkpt lat="44.32221" lon="2.69715">
        <ele>815.3354492</ele>
        <time>2014-06-15T08:39:56Z</time>
      </trkpt>
      <trkpt lat="44.32207" lon="2.69715">
        <ele>813.4128418</ele>
        <time>2014-06-15T08:40:01Z</time>
      </trkpt>
      <trkpt lat="44.32191" lon="2.69715">
        <ele>811.4899902</ele>
        <time>2014-06-15T08:40:07Z</time>
      </trkpt>
      <trkpt lat="44.32174" lon="2.69715">
        <ele>809.0866699</ele>
        <time>2014-06-15T08:40:13Z</time>
      </trkpt>
      <trkpt lat="44.32172" lon="2.69715">
        <ele>808.605957</ele>
        <time>2014-06-15T08:40:14Z</time>
      </trkpt>
      <trkpt lat="44.3216" lon="2.69711">
        <ele>807.1640625</ele>
        <time>2014-06-15T08:40:19Z</time>
      </trkpt>
      <trkpt lat="44.32146" lon="2.697">
        <ele>805.722168</ele>
        <time>2014-06-15T08:40:25Z</time>
      </trkpt>
      <trkpt lat="44.32138" lon="2.69692">
        <ele>805.722168</ele>
        <time>2014-06-15T08:40:29Z</time>
      </trkpt>
      <trkpt lat="44.32126" lon="2.69675">
        <ele>803.7995605</ele>
        <time>2014-06-15T08:40:35Z</time>
      </trkpt>
      <trkpt lat="44.32118" lon="2.69663">
        <ele>802.3574219</ele>
        <time>2014-06-15T08:40:39Z</time>
      </trkpt>
      <trkpt lat="44.32111" lon="2.69652">
        <ele>801.8769531</ele>
        <time>2014-06-15T08:40:43Z</time>
      </trkpt>
      <trkpt lat="44.321" lon="2.69636">
        <ele>803.7995605</ele>
        <time>2014-06-15T08:40:48Z</time>
      </trkpt>
      <trkpt lat="44.32098" lon="2.69633">
        <ele>803.7995605</ele>
        <time>2014-06-15T08:40:49Z</time>
      </trkpt>
      <trkpt lat="44.32094" lon="2.6961">
        <ele>804.7607422</ele>
        <time>2014-06-15T08:40:56Z</time>
      </trkpt>
      <trkpt lat="44.32096" lon="2.69593">
        <ele>803.3188477</ele>
        <time>2014-06-15T08:41:00Z</time>
      </trkpt>
      <trkpt lat="44.32096" lon="2.69577">
        <ele>803.3188477</ele>
        <time>2014-06-15T08:41:04Z</time>
      </trkpt>
      <trkpt lat="44.32093" lon="2.69556">
        <ele>803.3188477</ele>
        <time>2014-06-15T08:41:09Z</time>
      </trkpt>
      <trkpt lat="44.32094" lon="2.69536">
        <ele>803.7995605</ele>
        <time>2014-06-15T08:41:14Z</time>
      </trkpt>
      <trkpt lat="44.32098" lon="2.6951">
        <ele>803.3188477</ele>
        <time>2014-06-15T08:41:21Z</time>
      </trkpt>
      <trkpt lat="44.32102" lon="2.69498">
        <ele>800.9155273</ele>
        <time>2014-06-15T08:41:25Z</time>
      </trkpt>
      <trkpt lat="44.32103" lon="2.69496">
        <ele>800.4350586</ele>
        <time>2014-06-15T08:41:26Z</time>
      </trkpt>
      <trkpt lat="44.32111" lon="2.69476">
        <ele>801.3962402</ele>
        <time>2014-06-15T08:41:33Z</time>
      </trkpt>
      <trkpt lat="44.32116" lon="2.69461">
        <ele>802.3574219</ele>
        <time>2014-06-15T08:41:39Z</time>
      </trkpt>
      <trkpt lat="44.32122" lon="2.69445">
        <ele>802.8381348</ele>
        <time>2014-06-15T08:41:45Z</time>
      </trkpt>
      <trkpt lat="44.32125" lon="2.69428">
        <ele>802.3574219</ele>
        <time>2014-06-15T08:41:51Z</time>
      </trkpt>
      <trkpt lat="44.32125" lon="2.69414">
        <ele>801.8769531</ele>
        <time>2014-06-15T08:41:56Z</time>
      </trkpt>
      <trkpt lat="44.32127" lon="2.69403">
        <ele>802.8381348</ele>
        <time>2014-06-15T08:42:00Z</time>
      </trkpt>
      <trkpt lat="44.32128" lon="2.69384">
        <ele>804.7607422</ele>
        <time>2014-06-15T08:42:06Z</time>
      </trkpt>
      <trkpt lat="44.3213" lon="2.69365">
        <ele>805.722168</ele>
        <time>2014-06-15T08:42:12Z</time>
      </trkpt>
      <trkpt lat="44.32133" lon="2.69344">
        <ele>805.722168</ele>
        <time>2014-06-15T08:42:19Z</time>
      </trkpt>
      <trkpt lat="44.32134" lon="2.69337">
        <ele>806.2026367</ele>
        <time>2014-06-15T08:42:21Z</time>
      </trkpt>
      <trkpt lat="44.32135" lon="2.69328">
        <ele>807.1640625</ele>
        <time>2014-06-15T08:42:25Z</time>
      </trkpt>
      <trkpt lat="44.32136" lon="2.69319">
        <ele>809.0866699</ele>
        <time>2014-06-15T08:42:29Z</time>
      </trkpt>
      <trkpt lat="44.32138" lon="2.69312">
        <ele>809.0866699</ele>
        <time>2014-06-15T08:42:33Z</time>
      </trkpt>
      <trkpt lat="44.32138" lon="2.69304">
        <ele>811.4899902</ele>
        <time>2014-06-15T08:42:36Z</time>
      </trkpt>
      <trkpt lat="44.32139" lon="2.69292">
        <ele>814.8547363</ele>
        <time>2014-06-15T08:42:41Z</time>
      </trkpt>
      <trkpt lat="44.32141" lon="2.69281">
        <ele>816.2966309</ele>
        <time>2014-06-15T08:42:47Z</time>
      </trkpt>
      <trkpt lat="44.32142" lon="2.6927">
        <ele>817.2580566</ele>
        <time>2014-06-15T08:42:53Z</time>
      </trkpt>
      <trkpt lat="44.32144" lon="2.69251">
        <ele>819.661377</ele>
        <time>2014-06-15T08:43:03Z</time>
      </trkpt>
      <trkpt lat="44.32145" lon="2.69233">
        <ele>821.1032715</ele>
        <time>2014-06-15T08:43:12Z</time>
      </trkpt>
      <trkpt lat="44.32145" lon="2.6923">
        <ele>821.5837402</ele>
        <time>2014-06-15T08:43:13Z</time>
      </trkpt>
      <trkpt lat="44.32142" lon="2.69214">
        <ele>824.4677734</ele>
        <time>2014-06-15T08:43:21Z</time>
      </trkpt>
      <trkpt lat="44.32141" lon="2.69201">
        <ele>825.4289551</ele>
        <time>2014-06-15T08:43:27Z</time>
      </trkpt>
      <trkpt lat="44.32139" lon="2.6918">
        <ele>827.3518066</ele>
        <time>2014-06-15T08:43:37Z</time>
      </trkpt>
      <trkpt lat="44.32139" lon="2.69167">
        <ele>829.2744141</ele>
        <time>2014-06-15T08:43:43Z</time>
      </trkpt>
      <trkpt lat="44.32138" lon="2.69153">
        <ele>829.2744141</ele>
        <time>2014-06-15T08:43:50Z</time>
      </trkpt>
      <trkpt lat="44.32138" lon="2.69151">
        <ele>828.7939453</ele>
        <time>2014-06-15T08:43:51Z</time>
      </trkpt>
      <trkpt lat="44.3214" lon="2.69138">
        <ele>826.3903809</ele>
        <time>2014-06-15T08:43:59Z</time>
      </trkpt>
      <trkpt lat="44.3214" lon="2.69136">
        <ele>826.3903809</ele>
        <time>2014-06-15T08:44:00Z</time>
      </trkpt>
      <trkpt lat="44.3214" lon="2.69128">
        <ele>825.909668</ele>
        <time>2014-06-15T08:44:05Z</time>
      </trkpt>
      <trkpt lat="44.32139" lon="2.69123">
        <ele>826.8710938</ele>
        <time>2014-06-15T08:44:07Z</time>
      </trkpt>
      <trkpt lat="44.32136" lon="2.69113">
        <ele>828.7939453</ele>
        <time>2014-06-15T08:44:12Z</time>
      </trkpt>
      <trkpt lat="44.32133" lon="2.69101">
        <ele>829.755127</ele>
        <time>2014-06-15T08:44:18Z</time>
      </trkpt>
      <trkpt lat="44.32129" lon="2.69085">
        <ele>831.6777344</ele>
        <time>2014-06-15T08:44:26Z</time>
      </trkpt>
      <trkpt lat="44.32124" lon="2.69074">
        <ele>831.6777344</ele>
        <time>2014-06-15T08:44:32Z</time>
      </trkpt>
      <trkpt lat="44.32122" lon="2.69067">
        <ele>831.1972656</ele>
        <time>2014-06-15T08:44:36Z</time>
      </trkpt>
      <trkpt lat="44.32119" lon="2.69057">
        <ele>830.7165527</ele>
        <time>2014-06-15T08:44:42Z</time>
      </trkpt>
      <trkpt lat="44.32116" lon="2.69047">
        <ele>830.7165527</ele>
        <time>2014-06-15T08:44:47Z</time>
      </trkpt>
      <trkpt lat="44.32112" lon="2.69031">
        <ele>832.6391602</ele>
        <time>2014-06-15T08:44:55Z</time>
      </trkpt>
      <trkpt lat="44.32107" lon="2.69021">
        <ele>834.0810547</ele>
        <time>2014-06-15T08:45:00Z</time>
      </trkpt>
      <trkpt lat="44.32102" lon="2.69012">
        <ele>836.0036621</ele>
        <time>2014-06-15T08:45:06Z</time>
      </trkpt>
      <trkpt lat="44.32102" lon="2.6901">
        <ele>836.9648438</ele>
        <time>2014-06-15T08:45:07Z</time>
      </trkpt>
      <trkpt lat="44.32096" lon="2.68994">
        <ele>837.4455566</ele>
        <time>2014-06-15T08:45:15Z</time>
      </trkpt>
      <trkpt lat="44.32092" lon="2.68981">
        <ele>837.4455566</ele>
        <time>2014-06-15T08:45:21Z</time>
      </trkpt>
      <trkpt lat="44.32088" lon="2.68966">
        <ele>837.9262695</ele>
        <time>2014-06-15T08:45:27Z</time>
      </trkpt>
      <trkpt lat="44.32083" lon="2.6895">
        <ele>838.4069824</ele>
        <time>2014-06-15T08:45:32Z</time>
      </trkpt>
      <trkpt lat="44.32075" lon="2.68928">
        <ele>838.4069824</ele>
        <time>2014-06-15T08:45:39Z</time>
      </trkpt>
      <trkpt lat="44.32068" lon="2.68904">
        <ele>839.3681641</ele>
        <time>2014-06-15T08:45:46Z</time>
      </trkpt>
      <trkpt lat="44.32062" lon="2.68888">
        <ele>838.8876953</ele>
        <time>2014-06-15T08:45:51Z</time>
      </trkpt>
      <trkpt lat="44.32057" lon="2.68873">
        <ele>837.9262695</ele>
        <time>2014-06-15T08:45:56Z</time>
      </trkpt>
      <trkpt lat="44.32054" lon="2.68855">
        <ele>836.9648438</ele>
        <time>2014-06-15T08:46:01Z</time>
      </trkpt>
      <trkpt lat="44.32049" lon="2.68838">
        <ele>836.0036621</ele>
        <time>2014-06-15T08:46:06Z</time>
      </trkpt>
      <trkpt lat="44.32045" lon="2.68825">
        <ele>836.0036621</ele>
        <time>2014-06-15T08:46:10Z</time>
      </trkpt>
      <trkpt lat="44.32039" lon="2.68805">
        <ele>836.0036621</ele>
        <time>2014-06-15T08:46:16Z</time>
      </trkpt>
      <trkpt lat="44.32033" lon="2.68786">
        <ele>834.5617676</ele>
        <time>2014-06-15T08:46:22Z</time>
      </trkpt>
      <trkpt lat="44.32026" lon="2.68758">
        <ele>833.6003418</ele>
        <time>2014-06-15T08:46:30Z</time>
      </trkpt>
      <trkpt lat="44.32021" lon="2.68742">
        <ele>834.0810547</ele>
        <time>2014-06-15T08:46:35Z</time>
      </trkpt>
      <trkpt lat="44.32014" lon="2.68722">
        <ele>833.6003418</ele>
        <time>2014-06-15T08:46:41Z</time>
      </trkpt>
      <trkpt lat="44.32009" lon="2.68707">
        <ele>832.6391602</ele>
        <time>2014-06-15T08:46:46Z</time>
      </trkpt>
      <trkpt lat="44.32004" lon="2.68689">
        <ele>832.1584473</ele>
        <time>2014-06-15T08:46:51Z</time>
      </trkpt>
      <trkpt lat="44.31999" lon="2.68673">
        <ele>832.1584473</ele>
        <time>2014-06-15T08:46:56Z</time>
      </trkpt>
      <trkpt lat="44.31993" lon="2.68653">
        <ele>832.1584473</ele>
        <time>2014-06-15T08:47:02Z</time>
      </trkpt>
      <trkpt lat="44.31987" lon="2.68636">
        <ele>830.7165527</ele>
        <time>2014-06-15T08:47:07Z</time>
      </trkpt>
      <trkpt lat="44.31981" lon="2.68617">
        <ele>830.7165527</ele>
        <time>2014-06-15T08:47:13Z</time>
      </trkpt>
      <trkpt lat="44.31972" lon="2.686">
        <ele>831.1972656</ele>
        <time>2014-06-15T08:47:19Z</time>
      </trkpt>
      <trkpt lat="44.31961" lon="2.68583">
        <ele>831.6777344</ele>
        <time>2014-06-15T08:47:25Z</time>
      </trkpt>
      <trkpt lat="44.31946" lon="2.68566">
        <ele>830.7165527</ele>
        <time>2014-06-15T08:47:33Z</time>
      </trkpt>
      <trkpt lat="44.31931" lon="2.68553">
        <ele>828.7939453</ele>
        <time>2014-06-15T08:47:39Z</time>
      </trkpt>
      <trkpt lat="44.31919" lon="2.68545">
        <ele>827.3518066</ele>
        <time>2014-06-15T08:47:44Z</time>
      </trkpt>
      <trkpt lat="44.31909" lon="2.68535">
        <ele>826.3903809</ele>
        <time>2014-06-15T08:47:49Z</time>
      </trkpt>
      <trkpt lat="44.31909" lon="2.68517">
        <ele>826.8710938</ele>
        <time>2014-06-15T08:47:54Z</time>
      </trkpt>
      <trkpt lat="44.31912" lon="2.68511">
        <ele>826.8710938</ele>
        <time>2014-06-15T08:47:56Z</time>
      </trkpt>
      <trkpt lat="44.31925" lon="2.68489">
        <ele>824.9484863</ele>
        <time>2014-06-15T08:48:04Z</time>
      </trkpt>
      <trkpt lat="44.31937" lon="2.68476">
        <ele>823.5065918</ele>
        <time>2014-06-15T08:48:10Z</time>
      </trkpt>
      <trkpt lat="44.31948" lon="2.68467">
        <ele>823.0258789</ele>
        <time>2014-06-15T08:48:15Z</time>
      </trkpt>
      <trkpt lat="44.31958" lon="2.68459">
        <ele>822.545166</ele>
        <time>2014-06-15T08:48:19Z</time>
      </trkpt>
      <trkpt lat="44.31969" lon="2.6845">
        <ele>822.545166</ele>
        <time>2014-06-15T08:48:24Z</time>
      </trkpt>
      <trkpt lat="44.3198" lon="2.68439">
        <ele>821.1032715</ele>
        <time>2014-06-15T08:48:29Z</time>
      </trkpt>
      <trkpt lat="44.31986" lon="2.68432">
        <ele>819.661377</ele>
        <time>2014-06-15T08:48:34Z</time>
      </trkpt>
      <trkpt lat="44.3199" lon="2.68426">
        <ele>820.1418457</ele>
        <time>2014-06-15T08:48:42Z</time>
      </trkpt>
      <trkpt lat="44.31996" lon="2.68408">
        <ele>820.1418457</ele>
        <time>2014-06-15T08:48:47Z</time>
      </trkpt>
      <trkpt lat="44.32001" lon="2.68393">
        <ele>820.6225586</ele>
        <time>2014-06-15T08:48:51Z</time>
      </trkpt>
      <trkpt lat="44.32006" lon="2.68375">
        <ele>821.5837402</ele>
        <time>2014-06-15T08:48:56Z</time>
      </trkpt>
      <trkpt lat="44.32013" lon="2.68355">
        <ele>822.0644531</ele>
        <time>2014-06-15T08:49:02Z</time>
      </trkpt>
      <trkpt lat="44.32018" lon="2.68341">
        <ele>821.5837402</ele>
        <time>2014-06-15T08:49:06Z</time>
      </trkpt>
      <trkpt lat="44.32022" lon="2.68321">
        <ele>821.5837402</ele>
        <time>2014-06-15T08:49:11Z</time>
      </trkpt>
      <trkpt lat="44.32023" lon="2.68302">
        <ele>821.1032715</ele>
        <time>2014-06-15T08:49:16Z</time>
      </trkpt>
      <trkpt lat="44.32031" lon="2.68291">
        <ele>821.1032715</ele>
        <time>2014-06-15T08:49:20Z</time>
      </trkpt>
      <trkpt lat="44.32039" lon="2.68287">
        <ele>820.6225586</ele>
        <time>2014-06-15T08:49:23Z</time>
      </trkpt>
      <trkpt lat="44.32052" lon="2.6828">
        <ele>817.2580566</ele>
        <time>2014-06-15T08:49:29Z</time>
      </trkpt>
      <trkpt lat="44.32054" lon="2.68265">
        <ele>817.7385254</ele>
        <time>2014-06-15T08:49:33Z</time>
      </trkpt>
      <trkpt lat="44.32062" lon="2.68243">
        <ele>815.8161621</ele>
        <time>2014-06-15T08:49:40Z</time>
      </trkpt>
      <trkpt lat="44.32071" lon="2.68231">
        <ele>811.4899902</ele>
        <time>2014-06-15T08:49:45Z</time>
      </trkpt>
      <trkpt lat="44.32075" lon="2.68222">
        <ele>809.0866699</ele>
        <time>2014-06-15T08:49:48Z</time>
      </trkpt>
      <trkpt lat="44.32075" lon="2.68203">
        <ele>808.1254883</ele>
        <time>2014-06-15T08:49:53Z</time>
      </trkpt>
      <trkpt lat="44.32074" lon="2.682">
        <ele>808.1254883</ele>
        <time>2014-06-15T08:49:54Z</time>
      </trkpt>
      <trkpt lat="44.32069" lon="2.68176">
        <ele>811.4899902</ele>
        <time>2014-06-15T08:50:00Z</time>
      </trkpt>
      <trkpt lat="44.32063" lon="2.6815">
        <ele>815.8161621</ele>
        <time>2014-06-15T08:50:06Z</time>
      </trkpt>
      <trkpt lat="44.32059" lon="2.68118">
        <ele>822.0644531</ele>
        <time>2014-06-15T08:50:13Z</time>
      </trkpt>
      <trkpt lat="44.32058" lon="2.6811">
        <ele>823.9870605</ele>
        <time>2014-06-15T08:50:15Z</time>
      </trkpt>
      <trkpt lat="44.3206" lon="2.68082">
        <ele>829.2744141</ele>
        <time>2014-06-15T08:50:22Z</time>
      </trkpt>
      <trkpt lat="44.32062" lon="2.68064">
        <ele>829.755127</ele>
        <time>2014-06-15T08:50:27Z</time>
      </trkpt>
      <trkpt lat="44.32067" lon="2.6804">
        <ele>826.8710938</ele>
        <time>2014-06-15T08:50:34Z</time>
      </trkpt>
      <trkpt lat="44.32074" lon="2.68022">
        <ele>822.545166</ele>
        <time>2014-06-15T08:50:40Z</time>
      </trkpt>
      <trkpt lat="44.3208" lon="2.67997">
        <ele>821.5837402</ele>
        <time>2014-06-15T08:50:47Z</time>
      </trkpt>
      <trkpt lat="44.32086" lon="2.67975">
        <ele>822.0644531</ele>
        <time>2014-06-15T08:50:53Z</time>
      </trkpt>
      <trkpt lat="44.32091" lon="2.67955">
        <ele>823.5065918</ele>
        <time>2014-06-15T08:50:59Z</time>
      </trkpt>
      <trkpt lat="44.32095" lon="2.67937">
        <ele>824.4677734</ele>
        <time>2014-06-15T08:51:04Z</time>
      </trkpt>
      <trkpt lat="44.321" lon="2.67921">
        <ele>825.4289551</ele>
        <time>2014-06-15T08:51:09Z</time>
      </trkpt>
      <trkpt lat="44.32106" lon="2.67907">
        <ele>824.4677734</ele>
        <time>2014-06-15T08:51:14Z</time>
      </trkpt>
      <trkpt lat="44.32113" lon="2.67894">
        <ele>824.9484863</ele>
        <time>2014-06-15T08:51:19Z</time>
      </trkpt>
      <trkpt lat="44.32118" lon="2.67881">
        <ele>824.9484863</ele>
        <time>2014-06-15T08:51:24Z</time>
      </trkpt>
      <trkpt lat="44.32125" lon="2.67866">
        <ele>826.8710938</ele>
        <time>2014-06-15T08:51:30Z</time>
      </trkpt>
      <trkpt lat="44.32129" lon="2.67853">
        <ele>827.3518066</ele>
        <time>2014-06-15T08:51:34Z</time>
      </trkpt>
      <trkpt lat="44.32135" lon="2.67832">
        <ele>828.7939453</ele>
        <time>2014-06-15T08:51:40Z</time>
      </trkpt>
      <trkpt lat="44.32138" lon="2.6781">
        <ele>829.755127</ele>
        <time>2014-06-15T08:51:46Z</time>
      </trkpt>
      <trkpt lat="44.32142" lon="2.67789">
        <ele>829.755127</ele>
        <time>2014-06-15T08:51:52Z</time>
      </trkpt>
      <trkpt lat="44.32144" lon="2.6777">
        <ele>828.7939453</ele>
        <time>2014-06-15T08:51:57Z</time>
      </trkpt>
      <trkpt lat="44.32147" lon="2.67751">
        <ele>829.2744141</ele>
        <time>2014-06-15T08:52:02Z</time>
      </trkpt>
      <trkpt lat="44.32149" lon="2.67734">
        <ele>829.755127</ele>
        <time>2014-06-15T08:52:07Z</time>
      </trkpt>
      <trkpt lat="44.32153" lon="2.67715">
        <ele>831.1972656</ele>
        <time>2014-06-15T08:52:13Z</time>
      </trkpt>
      <trkpt lat="44.32155" lon="2.677">
        <ele>832.1584473</ele>
        <time>2014-06-15T08:52:18Z</time>
      </trkpt>
      <trkpt lat="44.32157" lon="2.67676">
        <ele>831.1972656</ele>
        <time>2014-06-15T08:52:24Z</time>
      </trkpt>
      <trkpt lat="44.32158" lon="2.67651">
        <ele>830.7165527</ele>
        <time>2014-06-15T08:52:30Z</time>
      </trkpt>
      <trkpt lat="44.3216" lon="2.67631">
        <ele>829.755127</ele>
        <time>2014-06-15T08:52:35Z</time>
      </trkpt>
      <trkpt lat="44.32163" lon="2.67609">
        <ele>828.3132324</ele>
        <time>2014-06-15T08:52:41Z</time>
      </trkpt>
      <trkpt lat="44.32166" lon="2.67592">
        <ele>826.8710938</ele>
        <time>2014-06-15T08:52:45Z</time>
      </trkpt>
      <trkpt lat="44.3217" lon="2.67574">
        <ele>825.4289551</ele>
        <time>2014-06-15T08:52:50Z</time>
      </trkpt>
      <trkpt lat="44.32175" lon="2.67556">
        <ele>824.4677734</ele>
        <time>2014-06-15T08:52:55Z</time>
      </trkpt>
      <trkpt lat="44.32179" lon="2.67536">
        <ele>822.0644531</ele>
        <time>2014-06-15T08:53:00Z</time>
      </trkpt>
      <trkpt lat="44.32183" lon="2.6752">
        <ele>820.6225586</ele>
        <time>2014-06-15T08:53:04Z</time>
      </trkpt>
      <trkpt lat="44.32188" lon="2.67499">
        <ele>818.6999512</ele>
        <time>2014-06-15T08:53:09Z</time>
      </trkpt>
      <trkpt lat="44.32193" lon="2.6748">
        <ele>817.2580566</ele>
        <time>2014-06-15T08:53:14Z</time>
      </trkpt>
      <trkpt lat="44.32199" lon="2.67457">
        <ele>815.8161621</ele>
        <time>2014-06-15T08:53:20Z</time>
      </trkpt>
      <trkpt lat="44.32203" lon="2.67438">
        <ele>814.3740234</ele>
        <time>2014-06-15T08:53:25Z</time>
      </trkpt>
      <trkpt lat="44.32205" lon="2.67413">
        <ele>812.9321289</ele>
        <time>2014-06-15T08:53:31Z</time>
      </trkpt>
      <trkpt lat="44.32203" lon="2.67386">
        <ele>811.9707031</ele>
        <time>2014-06-15T08:53:37Z</time>
      </trkpt>
      <trkpt lat="44.32201" lon="2.67368">
        <ele>811.4899902</ele>
        <time>2014-06-15T08:53:41Z</time>
      </trkpt>
      <trkpt lat="44.32203" lon="2.67348">
        <ele>810.5285645</ele>
        <time>2014-06-15T08:53:46Z</time>
      </trkpt>
      <trkpt lat="44.32206" lon="2.67329">
        <ele>809.5673828</ele>
        <time>2014-06-15T08:53:51Z</time>
      </trkpt>
      <trkpt lat="44.3221" lon="2.67311">
        <ele>808.1254883</ele>
        <time>2014-06-15T08:53:55Z</time>
      </trkpt>
      <trkpt lat="44.32216" lon="2.67293">
        <ele>806.2026367</ele>
        <time>2014-06-15T08:54:00Z</time>
      </trkpt>
      <trkpt lat="44.32225" lon="2.67275">
        <ele>805.2414551</ele>
        <time>2014-06-15T08:54:05Z</time>
      </trkpt>
      <trkpt lat="44.32235" lon="2.67259">
        <ele>803.3188477</ele>
        <time>2014-06-15T08:54:10Z</time>
      </trkpt>
      <trkpt lat="44.32245" lon="2.67243">
        <ele>799.9543457</ele>
        <time>2014-06-15T08:54:15Z</time>
      </trkpt>
      <trkpt lat="44.32251" lon="2.67231">
        <ele>798.9929199</ele>
        <time>2014-06-15T08:54:19Z</time>
      </trkpt>
      <trkpt lat="44.32262" lon="2.67218">
        <ele>797.5510254</ele>
        <time>2014-06-15T08:54:24Z</time>
      </trkpt>
      <trkpt lat="44.32271" lon="2.67207">
        <ele>798.0317383</ele>
        <time>2014-06-15T08:54:28Z</time>
      </trkpt>
      <trkpt lat="44.32281" lon="2.67196">
        <ele>798.0317383</ele>
        <time>2014-06-15T08:54:33Z</time>
      </trkpt>
      <trkpt lat="44.32293" lon="2.67182">
        <ele>798.0317383</ele>
        <time>2014-06-15T08:54:39Z</time>
      </trkpt>
      <trkpt lat="44.32306" lon="2.67169">
        <ele>799.4736328</ele>
        <time>2014-06-15T08:54:45Z</time>
      </trkpt>
      <trkpt lat="44.32316" lon="2.67155">
        <ele>801.3962402</ele>
        <time>2014-06-15T08:54:50Z</time>
      </trkpt>
      <trkpt lat="44.32328" lon="2.67145">
        <ele>801.3962402</ele>
        <time>2014-06-15T08:54:55Z</time>
      </trkpt>
      <trkpt lat="44.32342" lon="2.67133">
        <ele>802.8381348</ele>
        <time>2014-06-15T08:55:01Z</time>
      </trkpt>
      <trkpt lat="44.32351" lon="2.67124">
        <ele>803.7995605</ele>
        <time>2014-06-15T08:55:05Z</time>
      </trkpt>
      <trkpt lat="44.32362" lon="2.67112">
        <ele>803.7995605</ele>
        <time>2014-06-15T08:55:10Z</time>
      </trkpt>
      <trkpt lat="44.32373" lon="2.67102">
        <ele>802.8381348</ele>
        <time>2014-06-15T08:55:15Z</time>
      </trkpt>
      <trkpt lat="44.32386" lon="2.67089">
        <ele>803.3188477</ele>
        <time>2014-06-15T08:55:21Z</time>
      </trkpt>
      <trkpt lat="44.32392" lon="2.67083">
        <ele>804.2802734</ele>
        <time>2014-06-15T08:55:26Z</time>
      </trkpt>
      <trkpt lat="44.32394" lon="2.67078">
        <ele>804.7607422</ele>
        <time>2014-06-15T08:55:30Z</time>
      </trkpt>
      <trkpt lat="44.32406" lon="2.67064">
        <ele>805.2414551</ele>
        <time>2014-06-15T08:55:36Z</time>
      </trkpt>
      <trkpt lat="44.32413" lon="2.67053">
        <ele>805.722168</ele>
        <time>2014-06-15T08:55:40Z</time>
      </trkpt>
      <trkpt lat="44.32429" lon="2.67042">
        <ele>806.2026367</ele>
        <time>2014-06-15T08:55:46Z</time>
      </trkpt>
      <trkpt lat="44.32442" lon="2.67031">
        <ele>804.7607422</ele>
        <time>2014-06-15T08:55:51Z</time>
      </trkpt>
      <trkpt lat="44.32458" lon="2.67022">
        <ele>805.2414551</ele>
        <time>2014-06-15T08:55:56Z</time>
      </trkpt>
      <trkpt lat="44.32466" lon="2.67012">
        <ele>804.7607422</ele>
        <time>2014-06-15T08:56:00Z</time>
      </trkpt>
      <trkpt lat="44.32478" lon="2.67001">
        <ele>804.7607422</ele>
        <time>2014-06-15T08:56:05Z</time>
      </trkpt>
      <trkpt lat="44.32489" lon="2.66987">
        <ele>803.3188477</ele>
        <time>2014-06-15T08:56:10Z</time>
      </trkpt>
      <trkpt lat="44.32498" lon="2.66978">
        <ele>803.3188477</ele>
        <time>2014-06-15T08:56:14Z</time>
      </trkpt>
      <trkpt lat="44.32508" lon="2.66969">
        <ele>802.3574219</ele>
        <time>2014-06-15T08:56:18Z</time>
      </trkpt>
      <trkpt lat="44.32524" lon="2.66959">
        <ele>801.8769531</ele>
        <time>2014-06-15T08:56:23Z</time>
      </trkpt>
      <trkpt lat="44.32537" lon="2.6695">
        <ele>800.9155273</ele>
        <time>2014-06-15T08:56:28Z</time>
      </trkpt>
      <trkpt lat="44.32549" lon="2.66942">
        <ele>799.4736328</ele>
        <time>2014-06-15T08:56:33Z</time>
      </trkpt>
      <trkpt lat="44.3256" lon="2.66936">
        <ele>798.9929199</ele>
        <time>2014-06-15T08:56:37Z</time>
      </trkpt>
      <trkpt lat="44.32574" lon="2.66927">
        <ele>798.512207</ele>
        <time>2014-06-15T08:56:42Z</time>
      </trkpt>
      <trkpt lat="44.32591" lon="2.66915">
        <ele>798.512207</ele>
        <time>2014-06-15T08:56:48Z</time>
      </trkpt>
      <trkpt lat="44.32603" lon="2.66904">
        <ele>797.5510254</ele>
        <time>2014-06-15T08:56:53Z</time>
      </trkpt>
      <trkpt lat="44.32609" lon="2.66898">
        <ele>795.6281738</ele>
        <time>2014-06-15T08:56:56Z</time>
      </trkpt>
      <trkpt lat="44.32615" lon="2.66888">
        <ele>794.1862793</ele>
        <time>2014-06-15T08:56:59Z</time>
      </trkpt>
      <trkpt lat="44.32623" lon="2.66864">
        <ele>790.8215332</ele>
        <time>2014-06-15T08:57:05Z</time>
      </trkpt>
      <trkpt lat="44.3263" lon="2.66839">
        <ele>788.418457</ele>
        <time>2014-06-15T08:57:12Z</time>
      </trkpt>
      <trkpt lat="44.32633" lon="2.66813">
        <ele>786.4958496</ele>
        <time>2014-06-15T08:57:18Z</time>
      </trkpt>
      <trkpt lat="44.3263" lon="2.66797">
        <ele>785.5344238</ele>
        <time>2014-06-15T08:57:22Z</time>
      </trkpt>
      <trkpt lat="44.32626" lon="2.6677">
        <ele>782.6506348</ele>
        <time>2014-06-15T08:57:28Z</time>
      </trkpt>
      <trkpt lat="44.32627" lon="2.66748">
        <ele>781.2087402</ele>
        <time>2014-06-15T08:57:33Z</time>
      </trkpt>
      <trkpt lat="44.3263" lon="2.66727">
        <ele>779.7663574</ele>
        <time>2014-06-15T08:57:38Z</time>
      </trkpt>
      <trkpt lat="44.32634" lon="2.66707">
        <ele>779.7663574</ele>
        <time>2014-06-15T08:57:43Z</time>
      </trkpt>
      <trkpt lat="44.3264" lon="2.66685">
        <ele>779.2856445</ele>
        <time>2014-06-15T08:57:49Z</time>
      </trkpt>
      <trkpt lat="44.3264" lon="2.66661">
        <ele>779.2856445</ele>
        <time>2014-06-15T08:57:55Z</time>
      </trkpt>
      <trkpt lat="44.32643" lon="2.66638">
        <ele>779.2856445</ele>
        <time>2014-06-15T08:58:01Z</time>
      </trkpt>
      <trkpt lat="44.3265" lon="2.66618">
        <ele>778.8051758</ele>
        <time>2014-06-15T08:58:07Z</time>
      </trkpt>
      <trkpt lat="44.32655" lon="2.66605">
        <ele>777.3632813</ele>
        <time>2014-06-15T08:58:11Z</time>
      </trkpt>
      <trkpt lat="44.3266" lon="2.66589">
        <ele>776.4018555</ele>
        <time>2014-06-15T08:58:16Z</time>
      </trkpt>
      <trkpt lat="44.32668" lon="2.66571">
        <ele>774.9599609</ele>
        <time>2014-06-15T08:58:21Z</time>
      </trkpt>
      <trkpt lat="44.32681" lon="2.66557">
        <ele>773.9985352</ele>
        <time>2014-06-15T08:58:26Z</time>
      </trkpt>
      <trkpt lat="44.32689" lon="2.66552">
        <ele>773.9985352</ele>
        <time>2014-06-15T08:58:30Z</time>
      </trkpt>
      <trkpt lat="44.32698" lon="2.66547">
        <ele>773.0373535</ele>
        <time>2014-06-15T08:58:36Z</time>
      </trkpt>
      <trkpt lat="44.327" lon="2.66545">
        <ele>772.5566406</ele>
        <time>2014-06-15T08:58:39Z</time>
      </trkpt>
      <trkpt lat="44.32711" lon="2.66537">
        <ele>771.1147461</ele>
        <time>2014-06-15T08:58:46Z</time>
      </trkpt>
      <trkpt lat="44.32722" lon="2.66529">
        <ele>770.6340332</ele>
        <time>2014-06-15T08:58:51Z</time>
      </trkpt>
      <trkpt lat="44.32731" lon="2.6652">
        <ele>770.6340332</ele>
        <time>2014-06-15T08:58:55Z</time>
      </trkpt>
      <trkpt lat="44.32744" lon="2.66511">
        <ele>770.6340332</ele>
        <time>2014-06-15T08:59:00Z</time>
      </trkpt>
      <trkpt lat="44.32759" lon="2.665">
        <ele>770.1533203</ele>
        <time>2014-06-15T08:59:06Z</time>
      </trkpt>
      <trkpt lat="44.32771" lon="2.66492">
        <ele>769.6728516</ele>
        <time>2014-06-15T08:59:11Z</time>
      </trkpt>
      <trkpt lat="44.32783" lon="2.66486">
        <ele>771.1147461</ele>
        <time>2014-06-15T08:59:16Z</time>
      </trkpt>
      <trkpt lat="44.32795" lon="2.66481">
        <ele>771.1147461</ele>
        <time>2014-06-15T08:59:21Z</time>
      </trkpt>
      <trkpt lat="44.32803" lon="2.66476">
        <ele>771.1147461</ele>
        <time>2014-06-15T08:59:24Z</time>
      </trkpt>
      <trkpt lat="44.32817" lon="2.66466">
        <ele>771.1147461</ele>
        <time>2014-06-15T08:59:29Z</time>
      </trkpt>
      <trkpt lat="44.32831" lon="2.66462">
        <ele>770.1533203</ele>
        <time>2014-06-15T08:59:34Z</time>
      </trkpt>
      <trkpt lat="44.3284" lon="2.66454">
        <ele>768.7114258</ele>
        <time>2014-06-15T08:59:38Z</time>
      </trkpt>
      <trkpt lat="44.32843" lon="2.66452">
        <ele>767.2695313</ele>
        <time>2014-06-15T08:59:39Z</time>
      </trkpt>
      <trkpt lat="44.32858" lon="2.66449">
        <ele>761.9821777</ele>
        <time>2014-06-15T08:59:44Z</time>
      </trkpt>
      <trkpt lat="44.32877" lon="2.66448">
        <ele>759.5788574</ele>
        <time>2014-06-15T08:59:50Z</time>
      </trkpt>
      <trkpt lat="44.32892" lon="2.66441">
        <ele>759.5788574</ele>
        <time>2014-06-15T08:59:55Z</time>
      </trkpt>
      <trkpt lat="44.32905" lon="2.66427">
        <ele>757.65625</ele>
        <time>2014-06-15T09:00:00Z</time>
      </trkpt>
      <trkpt lat="44.32909" lon="2.6642">
        <ele>757.1755371</ele>
        <time>2014-06-15T09:00:02Z</time>
      </trkpt>
      <trkpt lat="44.32918" lon="2.66396">
        <ele>756.2141113</ele>
        <time>2014-06-15T09:00:08Z</time>
      </trkpt>
      <trkpt lat="44.32926" lon="2.66378">
        <ele>756.2141113</ele>
        <time>2014-06-15T09:00:13Z</time>
      </trkpt>
      <trkpt lat="44.32929" lon="2.66363">
        <ele>754.7722168</ele>
        <time>2014-06-15T09:00:17Z</time>
      </trkpt>
      <trkpt lat="44.32923" lon="2.66348">
        <ele>753.8110352</ele>
        <time>2014-06-15T09:00:21Z</time>
      </trkpt>
      <trkpt lat="44.32913" lon="2.66342">
        <ele>753.8110352</ele>
        <time>2014-06-15T09:00:25Z</time>
      </trkpt>
      <trkpt lat="44.329" lon="2.66335">
        <ele>752.8496094</ele>
        <time>2014-06-15T09:00:30Z</time>
      </trkpt>
      <trkpt lat="44.32885" lon="2.66326">
        <ele>752.3688965</ele>
        <time>2014-06-15T09:00:35Z</time>
      </trkpt>
      <trkpt lat="44.32869" lon="2.66311">
        <ele>751.4077148</ele>
        <time>2014-06-15T09:00:41Z</time>
      </trkpt>
      <trkpt lat="44.32856" lon="2.66298">
        <ele>750.4465332</ele>
        <time>2014-06-15T09:00:46Z</time>
      </trkpt>
      <trkpt lat="44.32849" lon="2.66291">
        <ele>749.4851074</ele>
        <time>2014-06-15T09:00:49Z</time>
      </trkpt>
      <trkpt lat="44.32833" lon="2.66288">
        <ele>747.081543</ele>
        <time>2014-06-15T09:00:54Z</time>
      </trkpt>
      <trkpt lat="44.32824" lon="2.66293">
        <ele>745.6396484</ele>
        <time>2014-06-15T09:00:57Z</time>
      </trkpt>
      <trkpt lat="44.32806" lon="2.66295">
        <ele>743.717041</ele>
        <time>2014-06-15T09:01:03Z</time>
      </trkpt>
      <trkpt lat="44.32792" lon="2.66283">
        <ele>743.2363281</ele>
        <time>2014-06-15T09:01:08Z</time>
      </trkpt>
      <trkpt lat="44.32788" lon="2.66264">
        <ele>742.7558594</ele>
        <time>2014-06-15T09:01:12Z</time>
      </trkpt>
      <trkpt lat="44.32787" lon="2.66251">
        <ele>742.2751465</ele>
        <time>2014-06-15T09:01:15Z</time>
      </trkpt>
      <trkpt lat="44.32794" lon="2.66227">
        <ele>741.7944336</ele>
        <time>2014-06-15T09:01:21Z</time>
      </trkpt>
      <trkpt lat="44.328" lon="2.66215">
        <ele>740.8330078</ele>
        <time>2014-06-15T09:01:25Z</time>
      </trkpt>
      <trkpt lat="44.32806" lon="2.66194">
        <ele>740.3525391</ele>
        <time>2014-06-15T09:01:31Z</time>
      </trkpt>
      <trkpt lat="44.32808" lon="2.66188">
        <ele>739.3911133</ele>
        <time>2014-06-15T09:01:33Z</time>
      </trkpt>
      <trkpt lat="44.32818" lon="2.66169">
        <ele>739.3911133</ele>
        <time>2014-06-15T09:01:40Z</time>
      </trkpt>
      <trkpt lat="44.32827" lon="2.66157">
        <ele>738.4299316</ele>
        <time>2014-06-15T09:01:45Z</time>
      </trkpt>
      <trkpt lat="44.32842" lon="2.66147">
        <ele>737.4685059</ele>
        <time>2014-06-15T09:01:51Z</time>
      </trkpt>
      <trkpt lat="44.32853" lon="2.66138">
        <ele>738.9106445</ele>
        <time>2014-06-15T09:01:56Z</time>
      </trkpt>
      <trkpt lat="44.32867" lon="2.66131">
        <ele>738.4299316</ele>
        <time>2014-06-15T09:02:01Z</time>
      </trkpt>
      <trkpt lat="44.32884" lon="2.66125">
        <ele>739.3911133</ele>
        <time>2014-06-15T09:02:07Z</time>
      </trkpt>
      <trkpt lat="44.32898" lon="2.66121">
        <ele>738.9106445</ele>
        <time>2014-06-15T09:02:12Z</time>
      </trkpt>
      <trkpt lat="44.32911" lon="2.66116">
        <ele>738.9106445</ele>
        <time>2014-06-15T09:02:17Z</time>
      </trkpt>
      <trkpt lat="44.32927" lon="2.66112">
        <ele>737.4685059</ele>
        <time>2014-06-15T09:02:22Z</time>
      </trkpt>
      <trkpt lat="44.32946" lon="2.66105">
        <ele>735.5458984</ele>
        <time>2014-06-15T09:02:28Z</time>
      </trkpt>
      <trkpt lat="44.32962" lon="2.66104">
        <ele>734.1040039</ele>
        <time>2014-06-15T09:02:34Z</time>
      </trkpt>
      <trkpt lat="44.32973" lon="2.66105">
        <ele>733.1425781</ele>
        <time>2014-06-15T09:02:38Z</time>
      </trkpt>
      <trkpt lat="44.32989" lon="2.6611">
        <ele>732.1813965</ele>
        <time>2014-06-15T09:02:44Z</time>
      </trkpt>
      <trkpt lat="44.32993" lon="2.6611">
        <ele>732.1813965</ele>
        <time>2014-06-15T09:02:45Z</time>
      </trkpt>
      <trkpt lat="44.33006" lon="2.66107">
        <ele>731.7004395</ele>
        <time>2014-06-15T09:02:50Z</time>
      </trkpt>
      <trkpt lat="44.33016" lon="2.66104">
        <ele>728.8166504</ele>
        <time>2014-06-15T09:02:53Z</time>
      </trkpt>
      <trkpt lat="44.3303" lon="2.66094">
        <ele>725.4519043</ele>
        <time>2014-06-15T09:02:59Z</time>
      </trkpt>
      <trkpt lat="44.33041" lon="2.66086">
        <ele>723.529541</ele>
        <time>2014-06-15T09:03:03Z</time>
      </trkpt>
      <trkpt lat="44.33055" lon="2.66073">
        <ele>720.6455078</ele>
        <time>2014-06-15T09:03:09Z</time>
      </trkpt>
      <trkpt lat="44.33071" lon="2.66054">
        <ele>721.1262207</ele>
        <time>2014-06-15T09:03:16Z</time>
      </trkpt>
      <trkpt lat="44.33085" lon="2.66046">
        <ele>722.0874023</ele>
        <time>2014-06-15T09:03:21Z</time>
      </trkpt>
      <trkpt lat="44.33097" lon="2.66041">
        <ele>722.0874023</ele>
        <time>2014-06-15T09:03:25Z</time>
      </trkpt>
      <trkpt lat="44.33114" lon="2.66032">
        <ele>721.6066895</ele>
        <time>2014-06-15T09:03:30Z</time>
      </trkpt>
      <trkpt lat="44.33126" lon="2.66023">
        <ele>722.0874023</ele>
        <time>2014-06-15T09:03:35Z</time>
      </trkpt>
      <trkpt lat="44.33133" lon="2.66013">
        <ele>722.0874023</ele>
        <time>2014-06-15T09:03:38Z</time>
      </trkpt>
      <trkpt lat="44.33144" lon="2.65996">
        <ele>722.0874023</ele>
        <time>2014-06-15T09:03:44Z</time>
      </trkpt>
      <trkpt lat="44.33151" lon="2.65991">
        <ele>720.6455078</ele>
        <time>2014-06-15T09:03:47Z</time>
      </trkpt>
      <trkpt lat="44.33155" lon="2.65973">
        <ele>717.7614746</ele>
        <time>2014-06-15T09:03:52Z</time>
      </trkpt>
      <trkpt lat="44.33154" lon="2.65969">
        <ele>716.3195801</ele>
        <time>2014-06-15T09:03:54Z</time>
      </trkpt>
      <trkpt lat="44.33145" lon="2.65957">
        <ele>713.9160156</ele>
        <time>2014-06-15T09:03:59Z</time>
      </trkpt>
      <trkpt lat="44.33135" lon="2.65952">
        <ele>712.4741211</ele>
        <time>2014-06-15T09:04:03Z</time>
      </trkpt>
      <trkpt lat="44.33118" lon="2.65948">
        <ele>711.0322266</ele>
        <time>2014-06-15T09:04:09Z</time>
      </trkpt>
      <trkpt lat="44.33106" lon="2.65946">
        <ele>710.5515137</ele>
        <time>2014-06-15T09:04:14Z</time>
      </trkpt>
      <trkpt lat="44.33094" lon="2.65943">
        <ele>711.0322266</ele>
        <time>2014-06-15T09:04:18Z</time>
      </trkpt>
      <trkpt lat="44.33091" lon="2.65942">
        <ele>711.5129395</ele>
        <time>2014-06-15T09:04:19Z</time>
      </trkpt>
      <trkpt lat="44.33079" lon="2.65926">
        <ele>711.0322266</ele>
        <time>2014-06-15T09:04:24Z</time>
      </trkpt>
      <trkpt lat="44.33072" lon="2.6591">
        <ele>710.5515137</ele>
        <time>2014-06-15T09:04:27Z</time>
      </trkpt>
      <trkpt lat="44.33069" lon="2.65884">
        <ele>709.590332</ele>
        <time>2014-06-15T09:04:32Z</time>
      </trkpt>
      <trkpt lat="44.33065" lon="2.65862">
        <ele>710.0708008</ele>
        <time>2014-06-15T09:04:37Z</time>
      </trkpt>
      <trkpt lat="44.33064" lon="2.65849">
        <ele>709.590332</ele>
        <time>2014-06-15T09:04:41Z</time>
      </trkpt>
      <trkpt lat="44.33056" lon="2.65834">
        <ele>710.5515137</ele>
        <time>2014-06-15T09:04:45Z</time>
      </trkpt>
      <trkpt lat="44.33048" lon="2.65812">
        <ele>708.6289063</ele>
        <time>2014-06-15T09:04:50Z</time>
      </trkpt>
      <trkpt lat="44.33043" lon="2.65795">
        <ele>704.7836914</ele>
        <time>2014-06-15T09:04:54Z</time>
      </trkpt>
      <trkpt lat="44.3304" lon="2.65784">
        <ele>703.3417969</ele>
        <time>2014-06-15T09:04:57Z</time>
      </trkpt>
      <trkpt lat="44.33036" lon="2.65779">
        <ele>701.8999023</ele>
        <time>2014-06-15T09:04:59Z</time>
      </trkpt>
      <trkpt lat="44.33026" lon="2.65776">
        <ele>700.9384766</ele>
        <time>2014-06-15T09:05:04Z</time>
      </trkpt>
      <trkpt lat="44.33013" lon="2.65771">
        <ele>699.9770508</ele>
        <time>2014-06-15T09:05:09Z</time>
      </trkpt>
      <trkpt lat="44.32992" lon="2.6576">
        <ele>698.5349121</ele>
        <time>2014-06-15T09:05:17Z</time>
      </trkpt>
      <trkpt lat="44.32977" lon="2.6575">
        <ele>698.0544434</ele>
        <time>2014-06-15T09:05:23Z</time>
      </trkpt>
      <trkpt lat="44.32972" lon="2.65745">
        <ele>697.5737305</ele>
        <time>2014-06-15T09:05:25Z</time>
      </trkpt>
      <trkpt lat="44.32957" lon="2.65739">
        <ele>697.0930176</ele>
        <time>2014-06-15T09:05:31Z</time>
      </trkpt>
      <trkpt lat="44.32945" lon="2.65736">
        <ele>695.651123</ele>
        <time>2014-06-15T09:05:36Z</time>
      </trkpt>
      <trkpt lat="44.32934" lon="2.65729">
        <ele>693.7285156</ele>
        <time>2014-06-15T09:05:41Z</time>
      </trkpt>
      <trkpt lat="44.32932" lon="2.65728">
        <ele>694.2092285</ele>
        <time>2014-06-15T09:05:44Z</time>
      </trkpt>
      <trkpt lat="44.32927" lon="2.65727">
        <ele>694.2092285</ele>
        <time>2014-06-15T09:05:51Z</time>
      </trkpt>
      <trkpt lat="44.32921" lon="2.65723">
        <ele>693.7285156</ele>
        <time>2014-06-15T09:05:58Z</time>
      </trkpt>
      <trkpt lat="44.32914" lon="2.65718">
        <ele>694.2092285</ele>
        <time>2014-06-15T09:06:05Z</time>
      </trkpt>
      <trkpt lat="44.32913" lon="2.65716">
        <ele>693.7285156</ele>
        <time>2014-06-15T09:06:07Z</time>
      </trkpt>
      <trkpt lat="44.32906" lon="2.65702">
        <ele>693.7285156</ele>
        <time>2014-06-15T09:06:12Z</time>
      </trkpt>
      <trkpt lat="44.32896" lon="2.65688">
        <ele>692.767334</ele>
        <time>2014-06-15T09:06:17Z</time>
      </trkpt>
      <trkpt lat="44.32891" lon="2.65673">
        <ele>691.3251953</ele>
        <time>2014-06-15T09:06:21Z</time>
      </trkpt>
      <trkpt lat="44.32889" lon="2.65658">
        <ele>690.3640137</ele>
        <time>2014-06-15T09:06:25Z</time>
      </trkpt>
      <trkpt lat="44.32886" lon="2.65634">
        <ele>687.9606934</ele>
        <time>2014-06-15T09:06:31Z</time>
      </trkpt>
      <trkpt lat="44.32889" lon="2.65618">
        <ele>686.5187988</ele>
        <time>2014-06-15T09:06:35Z</time>
      </trkpt>
      <trkpt lat="44.32897" lon="2.65605">
        <ele>683.1538086</ele>
        <time>2014-06-15T09:06:39Z</time>
      </trkpt>
      <trkpt lat="44.32904" lon="2.65596">
        <ele>682.192627</ele>
        <time>2014-06-15T09:06:43Z</time>
      </trkpt>
      <trkpt lat="44.3291" lon="2.65578">
        <ele>679.7893066</ele>
        <time>2014-06-15T09:06:48Z</time>
      </trkpt>
      <trkpt lat="44.32913" lon="2.65563">
        <ele>677.3862305</ele>
        <time>2014-06-15T09:06:52Z</time>
      </trkpt>
      <trkpt lat="44.32916" lon="2.65541">
        <ele>676.4248047</ele>
        <time>2014-06-15T09:06:57Z</time>
      </trkpt>
      <trkpt lat="44.3292" lon="2.65522">
        <ele>674.9829102</ele>
        <time>2014-06-15T09:07:02Z</time>
      </trkpt>
      <trkpt lat="44.32923" lon="2.65505">
        <ele>673.0603027</ele>
        <time>2014-06-15T09:07:07Z</time>
      </trkpt>
      <trkpt lat="44.32922" lon="2.65488">
        <ele>673.0603027</ele>
        <time>2014-06-15T09:07:11Z</time>
      </trkpt>
      <trkpt lat="44.3291" lon="2.6547">
        <ele>674.5021973</ele>
        <time>2014-06-15T09:07:17Z</time>
      </trkpt>
      <trkpt lat="44.32895" lon="2.65458">
        <ele>674.9829102</ele>
        <time>2014-06-15T09:07:23Z</time>
      </trkpt>
      <trkpt lat="44.32885" lon="2.65449">
        <ele>674.0214844</ele>
        <time>2014-06-15T09:07:28Z</time>
      </trkpt>
      <trkpt lat="44.3288" lon="2.65428">
        <ele>673.0603027</ele>
        <time>2014-06-15T09:07:34Z</time>
      </trkpt>
      <trkpt lat="44.32878" lon="2.65408">
        <ele>671.6181641</ele>
        <time>2014-06-15T09:07:39Z</time>
      </trkpt>
      <trkpt lat="44.32877" lon="2.65384">
        <ele>671.1376953</ele>
        <time>2014-06-15T09:07:45Z</time>
      </trkpt>
      <trkpt lat="44.32879" lon="2.65369">
        <ele>671.6181641</ele>
        <time>2014-06-15T09:07:49Z</time>
      </trkpt>
      <trkpt lat="44.3288" lon="2.65351">
        <ele>670.6569824</ele>
        <time>2014-06-15T09:07:54Z</time>
      </trkpt>
      <trkpt lat="44.32882" lon="2.65327">
        <ele>669.6958008</ele>
        <time>2014-06-15T09:08:00Z</time>
      </trkpt>
      <trkpt lat="44.32884" lon="2.65304">
        <ele>671.1376953</ele>
        <time>2014-06-15T09:08:06Z</time>
      </trkpt>
      <trkpt lat="44.32883" lon="2.65286">
        <ele>671.6181641</ele>
        <time>2014-06-15T09:08:11Z</time>
      </trkpt>
      <trkpt lat="44.32885" lon="2.65265">
        <ele>671.1376953</ele>
        <time>2014-06-15T09:08:16Z</time>
      </trkpt>
      <trkpt lat="44.32891" lon="2.65242">
        <ele>669.2150879</ele>
        <time>2014-06-15T09:08:22Z</time>
      </trkpt>
      <trkpt lat="44.32901" lon="2.65227">
        <ele>665.3696289</ele>
        <time>2014-06-15T09:08:27Z</time>
      </trkpt>
      <trkpt lat="44.32905" lon="2.65221">
        <ele>663.9274902</ele>
        <time>2014-06-15T09:08:29Z</time>
      </trkpt>
      <trkpt lat="44.32916" lon="2.65202">
        <ele>659.1210938</ele>
        <time>2014-06-15T09:08:35Z</time>
      </trkpt>
      <trkpt lat="44.32928" lon="2.65181">
        <ele>656.7177734</ele>
        <time>2014-06-15T09:08:41Z</time>
      </trkpt>
      <trkpt lat="44.32934" lon="2.65165">
        <ele>657.1984863</ele>
        <time>2014-06-15T09:08:45Z</time>
      </trkpt>
      <trkpt lat="44.32944" lon="2.6516">
        <ele>656.7177734</ele>
        <time>2014-06-15T09:08:49Z</time>
      </trkpt>
      <trkpt lat="44.32946" lon="2.65158">
        <ele>656.7177734</ele>
        <time>2014-06-15T09:08:50Z</time>
      </trkpt>
      <trkpt lat="44.32957" lon="2.65143">
        <ele>655.2758789</ele>
        <time>2014-06-15T09:08:56Z</time>
      </trkpt>
      <trkpt lat="44.32966" lon="2.65133">
        <ele>653.3532715</ele>
        <time>2014-06-15T09:09:00Z</time>
      </trkpt>
      <trkpt lat="44.32977" lon="2.65121">
        <ele>653.3532715</ele>
        <time>2014-06-15T09:09:05Z</time>
      </trkpt>
      <trkpt lat="44.32989" lon="2.65107">
        <ele>652.8725586</ele>
        <time>2014-06-15T09:09:10Z</time>
      </trkpt>
      <trkpt lat="44.33001" lon="2.65094">
        <ele>651.9111328</ele>
        <time>2014-06-15T09:09:15Z</time>
      </trkpt>
      <trkpt lat="44.33011" lon="2.65088">
        <ele>652.3918457</ele>
        <time>2014-06-15T09:09:19Z</time>
      </trkpt>
      <trkpt lat="44.33022" lon="2.65075">
        <ele>652.3918457</ele>
        <time>2014-06-15T09:09:24Z</time>
      </trkpt>
      <trkpt lat="44.33027" lon="2.65064">
        <ele>651.4304199</ele>
        <time>2014-06-15T09:09:27Z</time>
      </trkpt>
      <trkpt lat="44.33033" lon="2.65057">
        <ele>649.9885254</ele>
        <time>2014-06-15T09:09:30Z</time>
      </trkpt>
      <trkpt lat="44.33038" lon="2.65044">
        <ele>649.0270996</ele>
        <time>2014-06-15T09:09:34Z</time>
      </trkpt>
      <trkpt lat="44.33043" lon="2.65021">
        <ele>650.4692383</ele>
        <time>2014-06-15T09:09:40Z</time>
      </trkpt>
      <trkpt lat="44.33046" lon="2.65005">
        <ele>651.4304199</ele>
        <time>2014-06-15T09:09:44Z</time>
      </trkpt>
      <trkpt lat="44.33046" lon="2.64985">
        <ele>652.8725586</ele>
        <time>2014-06-15T09:09:49Z</time>
      </trkpt>
      <trkpt lat="44.33047" lon="2.64966">
        <ele>653.8339844</ele>
        <time>2014-06-15T09:09:54Z</time>
      </trkpt>
      <trkpt lat="44.33051" lon="2.64946">
        <ele>652.8725586</ele>
        <time>2014-06-15T09:10:00Z</time>
      </trkpt>
      <trkpt lat="44.33054" lon="2.64931">
        <ele>654.3146973</ele>
        <time>2014-06-15T09:10:05Z</time>
      </trkpt>
      <trkpt lat="44.33054" lon="2.64915">
        <ele>655.2758789</ele>
        <time>2014-06-15T09:10:13Z</time>
      </trkpt>
      <trkpt lat="44.33054" lon="2.64904">
        <ele>658.1599121</ele>
        <time>2014-06-15T09:10:18Z</time>
      </trkpt>
      <trkpt lat="44.33055" lon="2.64894">
        <ele>659.1210938</ele>
        <time>2014-06-15T09:10:24Z</time>
      </trkpt>
      <trkpt lat="44.33056" lon="2.6488">
        <ele>660.5629883</ele>
        <time>2014-06-15T09:10:30Z</time>
      </trkpt>
      <trkpt lat="44.33058" lon="2.64872">
        <ele>661.0437012</ele>
        <time>2014-06-15T09:10:34Z</time>
      </trkpt>
      <trkpt lat="44.33067" lon="2.64862">
        <ele>661.5244141</ele>
        <time>2014-06-15T09:10:39Z</time>
      </trkpt>
      <trkpt lat="44.3307" lon="2.64848">
        <ele>662.4855957</ele>
        <time>2014-06-15T09:10:45Z</time>
      </trkpt>
      <trkpt lat="44.33072" lon="2.64842">
        <ele>663.4470215</ele>
        <time>2014-06-15T09:10:48Z</time>
      </trkpt>
      <trkpt lat="44.33074" lon="2.64823">
        <ele>665.3696289</ele>
        <time>2014-06-15T09:10:57Z</time>
      </trkpt>
      <trkpt lat="44.33076" lon="2.64805">
        <ele>667.7727051</ele>
        <time>2014-06-15T09:11:05Z</time>
      </trkpt>
      <trkpt lat="44.33078" lon="2.64789">
        <ele>669.2150879</ele>
        <time>2014-06-15T09:11:12Z</time>
      </trkpt>
      <trkpt lat="44.33079" lon="2.64771">
        <ele>670.6569824</ele>
        <time>2014-06-15T09:11:20Z</time>
      </trkpt>
      <trkpt lat="44.3308" lon="2.6475">
        <ele>671.6181641</ele>
        <time>2014-06-15T09:11:29Z</time>
      </trkpt>
      <trkpt lat="44.33084" lon="2.64738">
        <ele>672.098877</ele>
        <time>2014-06-15T09:11:34Z</time>
      </trkpt>
      <trkpt lat="44.33088" lon="2.64721">
        <ele>672.5795898</ele>
        <time>2014-06-15T09:11:42Z</time>
      </trkpt>
      <trkpt lat="44.33092" lon="2.64708">
        <ele>674.0214844</ele>
        <time>2014-06-15T09:11:49Z</time>
      </trkpt>
      <trkpt lat="44.33093" lon="2.64706">
        <ele>674.0214844</ele>
        <time>2014-06-15T09:11:50Z</time>
      </trkpt>
      <trkpt lat="44.33094" lon="2.64695">
        <ele>675.4633789</ele>
        <time>2014-06-15T09:11:55Z</time>
      </trkpt>
      <trkpt lat="44.33094" lon="2.64693">
        <ele>675.4633789</ele>
        <time>2014-06-15T09:11:56Z</time>
      </trkpt>
      <trkpt lat="44.33096" lon="2.64677">
        <ele>675.9440918</ele>
        <time>2014-06-15T09:12:01Z</time>
      </trkpt>
      <trkpt lat="44.33098" lon="2.64664">
        <ele>675.4633789</ele>
        <time>2014-06-15T09:12:05Z</time>
      </trkpt>
      <trkpt lat="44.33102" lon="2.64648">
        <ele>674.9829102</ele>
        <time>2014-06-15T09:12:10Z</time>
      </trkpt>
      <trkpt lat="44.33106" lon="2.64625">
        <ele>674.0214844</ele>
        <time>2014-06-15T09:12:16Z</time>
      </trkpt>
      <trkpt lat="44.33108" lon="2.64606">
        <ele>674.5021973</ele>
        <time>2014-06-15T09:12:21Z</time>
      </trkpt>
      <trkpt lat="44.33112" lon="2.64583">
        <ele>674.5021973</ele>
        <time>2014-06-15T09:12:27Z</time>
      </trkpt>
      <trkpt lat="44.3312" lon="2.64567">
        <ele>674.5021973</ele>
        <time>2014-06-15T09:12:32Z</time>
      </trkpt>
      <trkpt lat="44.33128" lon="2.6455">
        <ele>674.5021973</ele>
        <time>2014-06-15T09:12:37Z</time>
      </trkpt>
      <trkpt lat="44.33134" lon="2.6453">
        <ele>674.0214844</ele>
        <time>2014-06-15T09:12:42Z</time>
      </trkpt>
      <trkpt lat="44.33139" lon="2.64513">
        <ele>674.0214844</ele>
        <time>2014-06-15T09:12:47Z</time>
      </trkpt>
      <trkpt lat="44.33146" lon="2.64496">
        <ele>674.0214844</ele>
        <time>2014-06-15T09:12:52Z</time>
      </trkpt>
      <trkpt lat="44.33153" lon="2.6448">
        <ele>673.0603027</ele>
        <time>2014-06-15T09:12:57Z</time>
      </trkpt>
      <trkpt lat="44.3316" lon="2.64463">
        <ele>672.098877</ele>
        <time>2014-06-15T09:13:02Z</time>
      </trkpt>
      <trkpt lat="44.33165" lon="2.64441">
        <ele>672.098877</ele>
        <time>2014-06-15T09:13:08Z</time>
      </trkpt>
      <trkpt lat="44.33167" lon="2.64425">
        <ele>673.5410156</ele>
        <time>2014-06-15T09:13:12Z</time>
      </trkpt>
      <trkpt lat="44.33171" lon="2.64405">
        <ele>674.0214844</ele>
        <time>2014-06-15T09:13:17Z</time>
      </trkpt>
      <trkpt lat="44.33176" lon="2.64385">
        <ele>673.5410156</ele>
        <time>2014-06-15T09:13:22Z</time>
      </trkpt>
      <trkpt lat="44.33182" lon="2.64371">
        <ele>673.0603027</ele>
        <time>2014-06-15T09:13:26Z</time>
      </trkpt>
      <trkpt lat="44.33186" lon="2.64356">
        <ele>672.098877</ele>
        <time>2014-06-15T09:13:30Z</time>
      </trkpt>
      <trkpt lat="44.33196" lon="2.64335">
        <ele>670.6569824</ele>
        <time>2014-06-15T09:13:36Z</time>
      </trkpt>
      <trkpt lat="44.33205" lon="2.64314">
        <ele>669.2150879</ele>
        <time>2014-06-15T09:13:42Z</time>
      </trkpt>
      <trkpt lat="44.33215" lon="2.64293">
        <ele>668.2536621</ele>
        <time>2014-06-15T09:13:48Z</time>
      </trkpt>
      <trkpt lat="44.33221" lon="2.6428">
        <ele>667.2922363</ele>
        <time>2014-06-15T09:13:52Z</time>
      </trkpt>
      <trkpt lat="44.33223" lon="2.64276">
        <ele>666.8115234</ele>
        <time>2014-06-15T09:13:53Z</time>
      </trkpt>
      <trkpt lat="44.3323" lon="2.64259">
        <ele>665.8503418</ele>
        <time>2014-06-15T09:13:58Z</time>
      </trkpt>
      <trkpt lat="44.33236" lon="2.6424">
        <ele>666.3308105</ele>
        <time>2014-06-15T09:14:03Z</time>
      </trkpt>
      <trkpt lat="44.33245" lon="2.64213">
        <ele>666.8115234</ele>
        <time>2014-06-15T09:14:10Z</time>
      </trkpt>
      <trkpt lat="44.33253" lon="2.6419">
        <ele>667.2922363</ele>
        <time>2014-06-15T09:14:16Z</time>
      </trkpt>
      <trkpt lat="44.33258" lon="2.64166">
        <ele>668.2536621</ele>
        <time>2014-06-15T09:14:22Z</time>
      </trkpt>
      <trkpt lat="44.33262" lon="2.64142">
        <ele>669.6958008</ele>
        <time>2014-06-15T09:14:28Z</time>
      </trkpt>
      <trkpt lat="44.33266" lon="2.64121">
        <ele>669.6958008</ele>
        <time>2014-06-15T09:14:33Z</time>
      </trkpt>
      <trkpt lat="44.33272" lon="2.64092">
        <ele>667.7727051</ele>
        <time>2014-06-15T09:14:40Z</time>
      </trkpt>
      <trkpt lat="44.33276" lon="2.64073">
        <ele>665.3696289</ele>
        <time>2014-06-15T09:14:45Z</time>
      </trkpt>
      <trkpt lat="44.33278" lon="2.64052">
        <ele>664.4082031</ele>
        <time>2014-06-15T09:14:50Z</time>
      </trkpt>
      <trkpt lat="44.33281" lon="2.64034">
        <ele>663.4470215</ele>
        <time>2014-06-15T09:14:55Z</time>
      </trkpt>
      <trkpt lat="44.33286" lon="2.64016">
        <ele>662.005127</ele>
        <time>2014-06-15T09:15:00Z</time>
      </trkpt>
      <trkpt lat="44.33292" lon="2.63994">
        <ele>661.5244141</ele>
        <time>2014-06-15T09:15:06Z</time>
      </trkpt>
      <trkpt lat="44.33295" lon="2.63971">
        <ele>661.0437012</ele>
        <time>2014-06-15T09:15:12Z</time>
      </trkpt>
      <trkpt lat="44.33298" lon="2.63942">
        <ele>661.5244141</ele>
        <time>2014-06-15T09:15:19Z</time>
      </trkpt>
      <trkpt lat="44.33301" lon="2.63922">
        <ele>661.5244141</ele>
        <time>2014-06-15T09:15:24Z</time>
      </trkpt>
      <trkpt lat="44.33305" lon="2.63902">
        <ele>661.0437012</ele>
        <time>2014-06-15T09:15:29Z</time>
      </trkpt>
      <trkpt lat="44.3331" lon="2.63883">
        <ele>660.0822754</ele>
        <time>2014-06-15T09:15:34Z</time>
      </trkpt>
      <trkpt lat="44.33314" lon="2.63866">
        <ele>658.6403809</ele>
        <time>2014-06-15T09:15:38Z</time>
      </trkpt>
      <trkpt lat="44.33319" lon="2.63844">
        <ele>656.7177734</ele>
        <time>2014-06-15T09:15:43Z</time>
      </trkpt>
      <trkpt lat="44.33324" lon="2.63825">
        <ele>654.795166</ele>
        <time>2014-06-15T09:15:48Z</time>
      </trkpt>
      <trkpt lat="44.33329" lon="2.63806">
        <ele>653.3532715</ele>
        <time>2014-06-15T09:15:53Z</time>
      </trkpt>
      <trkpt lat="44.33336" lon="2.63783">
        <ele>650.4692383</ele>
        <time>2014-06-15T09:15:59Z</time>
      </trkpt>
      <trkpt lat="44.33343" lon="2.63763">
        <ele>649.0270996</ele>
        <time>2014-06-15T09:16:04Z</time>
      </trkpt>
      <trkpt lat="44.33349" lon="2.63737">
        <ele>647.5852051</ele>
        <time>2014-06-15T09:16:10Z</time>
      </trkpt>
      <trkpt lat="44.33355" lon="2.63708">
        <ele>646.1433105</ele>
        <time>2014-06-15T09:16:16Z</time>
      </trkpt>
      <trkpt lat="44.33362" lon="2.63687">
        <ele>643.2592773</ele>
        <time>2014-06-15T09:16:21Z</time>
      </trkpt>
      <trkpt lat="44.33372" lon="2.6367">
        <ele>639.8947754</ele>
        <time>2014-06-15T09:16:26Z</time>
      </trkpt>
      <trkpt lat="44.33379" lon="2.63659">
        <ele>638.9335938</ele>
        <time>2014-06-15T09:16:30Z</time>
      </trkpt>
      <trkpt lat="44.33386" lon="2.63648">
        <ele>637.0107422</ele>
        <time>2014-06-15T09:16:33Z</time>
      </trkpt>
      <trkpt lat="44.33398" lon="2.63633">
        <ele>633.1652832</ele>
        <time>2014-06-15T09:16:38Z</time>
      </trkpt>
      <trkpt lat="44.3341" lon="2.63618">
        <ele>630.2814941</ele>
        <time>2014-06-15T09:16:43Z</time>
      </trkpt>
      <trkpt lat="44.33423" lon="2.63605">
        <ele>624.9943848</ele>
        <time>2014-06-15T09:16:48Z</time>
      </trkpt>
      <trkpt lat="44.33435" lon="2.63593">
        <ele>622.5910645</ele>
        <time>2014-06-15T09:16:53Z</time>
      </trkpt>
      <trkpt lat="44.33447" lon="2.63579">
        <ele>620.1877441</ele>
        <time>2014-06-15T09:16:59Z</time>
      </trkpt>
      <trkpt lat="44.33452" lon="2.63561">
        <ele>620.668457</ele>
        <time>2014-06-15T09:17:04Z</time>
      </trkpt>
      <trkpt lat="44.33452" lon="2.6354">
        <ele>622.5910645</ele>
        <time>2014-06-15T09:17:09Z</time>
      </trkpt>
      <trkpt lat="44.33453" lon="2.63522">
        <ele>625.4748535</ele>
        <time>2014-06-15T09:17:14Z</time>
      </trkpt>
      <trkpt lat="44.33459" lon="2.63503">
        <ele>626.9169922</ele>
        <time>2014-06-15T09:17:20Z</time>
      </trkpt>
      <trkpt lat="44.33464" lon="2.63489">
        <ele>626.9169922</ele>
        <time>2014-06-15T09:17:25Z</time>
      </trkpt>
      <trkpt lat="44.33469" lon="2.63468">
        <ele>629.3200684</ele>
        <time>2014-06-15T09:17:31Z</time>
      </trkpt>
      <trkpt lat="44.33475" lon="2.63453">
        <ele>628.8395996</ele>
        <time>2014-06-15T09:17:36Z</time>
      </trkpt>
      <trkpt lat="44.3348" lon="2.63436">
        <ele>628.3588867</ele>
        <time>2014-06-15T09:17:41Z</time>
      </trkpt>
      <trkpt lat="44.33483" lon="2.63425">
        <ele>627.8781738</ele>
        <time>2014-06-15T09:17:45Z</time>
      </trkpt>
      <trkpt lat="44.33485" lon="2.63409">
        <ele>627.8781738</ele>
        <time>2014-06-15T09:17:50Z</time>
      </trkpt>
      <trkpt lat="44.33485" lon="2.63393">
        <ele>629.3200684</ele>
        <time>2014-06-15T09:17:55Z</time>
      </trkpt>
      <trkpt lat="44.33487" lon="2.63373">
        <ele>629.3200684</ele>
        <time>2014-06-15T09:18:01Z</time>
      </trkpt>
      <trkpt lat="44.33489" lon="2.63353">
        <ele>630.762207</ele>
        <time>2014-06-15T09:18:07Z</time>
      </trkpt>
      <trkpt lat="44.33492" lon="2.63336">
        <ele>631.7233887</ele>
        <time>2014-06-15T09:18:12Z</time>
      </trkpt>
      <trkpt lat="44.33495" lon="2.63321">
        <ele>633.6459961</ele>
        <time>2014-06-15T09:18:17Z</time>
      </trkpt>
      <trkpt lat="44.33499" lon="2.63302">
        <ele>634.126709</ele>
        <time>2014-06-15T09:18:23Z</time>
      </trkpt>
      <trkpt lat="44.33502" lon="2.6329">
        <ele>634.6074219</ele>
        <time>2014-06-15T09:18:27Z</time>
      </trkpt>
      <trkpt lat="44.33504" lon="2.63284">
        <ele>635.0881348</ele>
        <time>2014-06-15T09:18:29Z</time>
      </trkpt>
      <trkpt lat="44.3351" lon="2.63262">
        <ele>636.0495605</ele>
        <time>2014-06-15T09:18:36Z</time>
      </trkpt>
      <trkpt lat="44.33516" lon="2.6325">
        <ele>636.0495605</ele>
        <time>2014-06-15T09:18:41Z</time>
      </trkpt>
      <trkpt lat="44.3352" lon="2.63236">
        <ele>636.0495605</ele>
        <time>2014-06-15T09:18:46Z</time>
      </trkpt>
      <trkpt lat="44.33525" lon="2.63213">
        <ele>636.5302734</ele>
        <time>2014-06-15T09:18:53Z</time>
      </trkpt>
      <trkpt lat="44.33528" lon="2.63197">
        <ele>637.4914551</ele>
        <time>2014-06-15T09:18:58Z</time>
      </trkpt>
      <trkpt lat="44.33531" lon="2.63181">
        <ele>639.4140625</ele>
        <time>2014-06-15T09:19:03Z</time>
      </trkpt>
      <trkpt lat="44.33535" lon="2.63166">
        <ele>639.8947754</ele>
        <time>2014-06-15T09:19:08Z</time>
      </trkpt>
      <trkpt lat="44.33539" lon="2.63154">
        <ele>640.3754883</ele>
        <time>2014-06-15T09:19:12Z</time>
      </trkpt>
      <trkpt lat="44.33544" lon="2.6314">
        <ele>639.8947754</ele>
        <time>2014-06-15T09:19:17Z</time>
      </trkpt>
      <trkpt lat="44.33551" lon="2.63127">
        <ele>639.4140625</ele>
        <time>2014-06-15T09:19:22Z</time>
      </trkpt>
      <trkpt lat="44.33558" lon="2.63111">
        <ele>638.4528809</ele>
        <time>2014-06-15T09:19:28Z</time>
      </trkpt>
      <trkpt lat="44.3356" lon="2.63099">
        <ele>638.4528809</ele>
        <time>2014-06-15T09:19:32Z</time>
      </trkpt>
      <trkpt lat="44.33564" lon="2.63078">
        <ele>639.4140625</ele>
        <time>2014-06-15T09:19:39Z</time>
      </trkpt>
      <trkpt lat="44.33566" lon="2.63053">
        <ele>641.3366699</ele>
        <time>2014-06-15T09:19:47Z</time>
      </trkpt>
      <trkpt lat="44.33566" lon="2.63046">
        <ele>641.8173828</ele>
        <time>2014-06-15T09:19:49Z</time>
      </trkpt>
      <trkpt lat="44.33569" lon="2.6304">
        <ele>643.7399902</ele>
        <time>2014-06-15T09:19:53Z</time>
      </trkpt>
      <trkpt lat="44.33572" lon="2.63031">
        <ele>647.5852051</ele>
        <time>2014-06-15T09:20:00Z</time>
      </trkpt>
      <trkpt lat="44.33573" lon="2.63027">
        <ele>648.065918</ele>
        <time>2014-06-15T09:20:02Z</time>
      </trkpt>
      <trkpt lat="44.33571" lon="2.63018">
        <ele>648.065918</ele>
        <time>2014-06-15T09:20:06Z</time>
      </trkpt>
      <trkpt lat="44.3357" lon="2.62992">
        <ele>648.065918</ele>
        <time>2014-06-15T09:20:14Z</time>
      </trkpt>
      <trkpt lat="44.33567" lon="2.6297">
        <ele>649.0270996</ele>
        <time>2014-06-15T09:20:21Z</time>
      </trkpt>
      <trkpt lat="44.33567" lon="2.62957">
        <ele>648.5463867</ele>
        <time>2014-06-15T09:20:25Z</time>
      </trkpt>
      <trkpt lat="44.33568" lon="2.62945">
        <ele>647.1044922</ele>
        <time>2014-06-15T09:20:30Z</time>
      </trkpt>
      <trkpt lat="44.33568" lon="2.62933">
        <ele>647.5852051</ele>
        <time>2014-06-15T09:20:37Z</time>
      </trkpt>
      <trkpt lat="44.33568" lon="2.62928">
        <ele>648.065918</ele>
        <time>2014-06-15T09:20:40Z</time>
      </trkpt>
      <trkpt lat="44.33572" lon="2.62924">
        <ele>649.0270996</ele>
        <time>2014-06-15T09:20:46Z</time>
      </trkpt>
      <trkpt lat="44.33574" lon="2.62922">
        <ele>649.5078125</ele>
        <time>2014-06-15T09:20:52Z</time>
      </trkpt>
      <trkpt lat="44.3358" lon="2.6292">
        <ele>649.9885254</ele>
        <time>2014-06-15T09:20:59Z</time>
      </trkpt>
      <trkpt lat="44.33584" lon="2.62919">
        <ele>649.9885254</ele>
        <time>2014-06-15T09:21:05Z</time>
      </trkpt>
      <trkpt lat="44.33586" lon="2.6292">
        <ele>649.9885254</ele>
        <time>2014-06-15T09:21:11Z</time>
      </trkpt>
      <trkpt lat="44.33587" lon="2.62919">
        <ele>649.9885254</ele>
        <time>2014-06-15T09:21:18Z</time>
      </trkpt>
      <trkpt lat="44.33587" lon="2.62917">
        <ele>653.3532715</ele>
        <time>2014-06-15T09:21:23Z</time>
      </trkpt>
      <trkpt lat="44.33589" lon="2.62922">
        <ele>649.0270996</ele>
        <time>2014-06-15T09:21:28Z</time>
      </trkpt>
      <trkpt lat="44.33589" lon="2.62927">
        <ele>652.8725586</ele>
        <time>2014-06-15T09:21:35Z</time>
      </trkpt>
      <trkpt lat="44.33587" lon="2.62929">
        <ele>649.5078125</ele>
        <time>2014-06-15T09:21:41Z</time>
      </trkpt>
      <trkpt lat="44.33588" lon="2.62929">
        <ele>640.855957</ele>
        <time>2014-06-15T09:21:45Z</time>
      </trkpt>
      <trkpt lat="44.3359" lon="2.62924">
        <ele>637.0107422</ele>
        <time>2014-06-15T09:21:48Z</time>
      </trkpt>
      <trkpt lat="44.33592" lon="2.62923">
        <ele>628.8395996</ele>
        <time>2014-06-15T09:21:54Z</time>
      </trkpt>
      <trkpt lat="44.33595" lon="2.62919">
        <ele>636.5302734</ele>
        <time>2014-06-15T09:22:00Z</time>
      </trkpt>
      <trkpt lat="44.33595" lon="2.62919">
        <ele>637.0107422</ele>
        <time>2014-06-15T09:22:01Z</time>
      </trkpt>
      <trkpt lat="44.33598" lon="2.62916">
        <ele>637.972168</ele>
        <time>2014-06-15T09:22:05Z</time>
      </trkpt>
      <trkpt lat="44.336" lon="2.62914">
        <ele>637.0107422</ele>
        <time>2014-06-15T09:22:11Z</time>
      </trkpt>
      <trkpt lat="44.33602" lon="2.62916">
        <ele>635.5686035</ele>
        <time>2014-06-15T09:22:13Z</time>
      </trkpt>
      <trkpt lat="44.33607" lon="2.62922">
        <ele>636.0495605</ele>
        <time>2014-06-15T09:22:20Z</time>
      </trkpt>
      <trkpt lat="44.33602" lon="2.62921">
        <ele>638.4528809</ele>
        <time>2014-06-15T09:22:27Z</time>
      </trkpt>
    </trkseg>
  </trk>
</gpx>